[[{"header":{"parameterUnit":"m.s-1","parameterCategory":1,"la1":30.6,"la2":29.2853,"lo1":-89.7004,"lo2":-87.6739,"dy":0.0162,"dx":0.0183,"nx":112,"ny":82,"refTime":"2023-10-05T12:00:00:Z","depth":0,"parameterNumber":2,"parameterNumberName":"U-component_of_WINDS"},"data":[0.0,0.0,0.0,0.0,0.0,0.0,0.0,0.0,0.0,0.0,0.0,0.0,0.0,0.0,0.0,0.0,0.0,0.0,0.0,0.0,0.0,0.0,0.0,0.0,0.0,0.0,0.0,0.0,0.0,0.0,0.0,0.0,0.0,0.0,0.0,0.0,0.0,0.0,0.0,0.0,0.0,0.0,0.0,0.0,0.0,0.0,0.0,0.0,0.0,0.0,0.0,0.0,0.0,0.0,0.0,0.0,0.0,0.0,0.0,0.0,0.0,0.0,0.0,0.0,0.0,0.0,0.0,0.0,0.0,0.0,0.0,0.0,0.0,0.0,0.0,0.0,0.0,0.0,0.0,0.0,0.0,0.0,0.0,0.0,0.0,0.0,0.0,0.0,0.0,0.0,0.0,1.5584,1.6496,1.7773,1.8847,1.9564,1.9552,1.8547,0.0,0.0,0.0,0.0,0.0,0.0,0.0,0.0,0.0,0.0,0.0,0.0,0.0,0.0,0.0,0.0,0.0,0.0,0.0,0.0,0.0,0.0,0.0,0.0,0.0,0.0,0.0,0.0,0.0,0.0,0.0,0.0,0.0,0.0,0.0,0.0,0.0,0.0,0.0,0.0,0.0,0.0,0.0,0.0,0.0,0.0,0.0,0.0,0.0,0.0,0.0,0.0,0.0,0.0,0.0,0.0,0.0,0.0,0.0,0.0,0.0,0.0,0.0,0.0,0.0,0.0,0.0,0.0,0.0,0.0,0.0,0.0,0.0,0.0,0.0,0.0,0.0,0.0,0.0,0.0,0.0,0.0,0.0,0.0,0.0,0.0,0.0,0.0,0.0,0.0,0.0,0.0,0.0,0.0,0.0,0.0,0.0,0.0,0.0,0.0,0.0,0.0,0.0,0.0,1.5794,1.479,1.513,1.588,1.7067,1.6929,1.6617,1.6275,0.0,0.0,0.0,0.0,0.0,0.0,0.0,0.0,0.0,0.0,0.0,0.0,0.0,0.0,0.0,0.0,0.0,0.0,0.0,0.0,0.0,0.0,0.0,0.0,0.0,0.0,0.0,0.0,0.0,0.0,0.0,0.0,0.0,0.0,0.0,0.0,0.0,0.0,0.0,0.0,0.0,0.0,0.0,0.0,0.0,0.0,0.0,0.0,0.0,0.0,0.0,0.0,0.0,0.0,0.0,0.0,0.0,0.0,0.0,0.0,0.0,0.0,0.0,0.0,0.0,0.0,0.0,0.0,0.0,0.0,0.0,0.0,0.0,0.0,0.0,0.0,0.0,0.0,0.0,0.0,0.0,0.0,0.0,0.0,0.0,0.0,0.0,0.0,0.0,0.0,0.0,0.0,0.0,0.0,0.0,0.0,0.0,0.0,0.0,0.0,0.0,0.0,0.0,1.5771,1.5194,1.4159,1.4282,1.4742,1.5319,1.4951,1.4465,1.3955,1.4798,0.0,0.0,0.0,0.0,0.0,0.0,0.0,0.0,0.0,0.0,0.0,0.0,0.0,0.0,0.0,0.0,0.0,0.0,0.0,0.0,0.0,0.0,0.0,0.0,0.0,0.0,0.0,0.0,0.0,0.0,0.0,0.0,0.0,0.0,0.0,0.0,0.0,0.0,0.0,0.0,0.0,0.0,0.0,0.0,0.0,0.0,0.0,0.0,0.0,0.0,0.0,0.0,0.0,0.0,0.0,0.0,0.0,0.0,0.0,0.0,0.0,0.0,0.0,0.0,0.0,0.0,0.0,0.0,0.0,0.0,0.0,0.0,0.0,0.0,0.0,0.0,0.0,0.0,0.0,0.0,0.0,0.0,0.0,0.0,0.0,0.0,0.0,0.0,0.0,0.0,0.0,0.0,0.0,0.0,0.0,0.0,0.0,0.0,0.0,0.0,0.0,0.0,1.5295,1.5201,1.3961,1.426,1.4406,1.3904,1.3818,1.3308,1.2251,1.1924,0.0,0.0,0.0,0.0,0.0,0.0,0.0,0.0,0.0,0.0,0.0,0.0,0.0,0.0,0.0,0.0,0.0,0.0,0.0,0.0,0.0,0.0,0.0,0.0,0.0,0.0,0.0,0.0,0.0,0.0,0.0,0.0,0.0,0.0,0.0,0.0,0.0,0.0,0.0,0.0,0.0,0.0,0.0,0.0,0.0,0.0,0.0,0.0,0.0,0.0,0.0,0.0,0.0,0.0,0.0,0.0,0.0,0.0,0.0,0.0,0.0,0.0,0.0,0.0,0.0,0.0,0.0,0.0,0.0,0.0,0.0,0.0,0.0,0.0,0.0,0.0,0.0,0.0,0.0,0.0,0.0,0.0,0.0,0.0,0.0,0.0,0.0,0.0,0.0,0.0,0.0,0.0,0.0,0.0,0.0,0.0,0.0,0.0,0.0,0.0,0.0,0.0,1.5591,1.5886,1.4668,1.5335,1.518,1.343,1.3801,1.3503,1.2009,1.1623,0.0,0.0,0.0,0.0,0.0,0.0,0.0,0.0,0.0,0.0,0.0,0.0,0.0,0.0,0.0,0.0,0.0,0.0,0.0,0.0,0.0,0.0,0.0,0.0,0.0,0.0,0.0,0.0,0.0,0.0,0.0,0.0,0.0,0.0,0.0,0.0,0.0,0.0,0.0,0.0,0.0,0.0,0.0,0.0,0.0,0.0,0.0,0.0,0.0,0.0,0.0,0.0,0.0,0.0,0.0,0.0,0.0,0.0,0.0,0.0,0.0,0.0,0.0,0.0,0.0,0.0,0.0,0.0,0.0,0.0,0.0,0.0,0.0,0.0,0.0,0.0,0.0,0.0,0.0,0.0,0.0,0.0,0.0,0.0,0.0,0.0,0.0,0.0,0.0,0.0,0.0,0.0,0.0,0.0,0.0,0.0,0.0,0.0,0.0,0.0,0.0,0.0,1.3735,1.4104,0.0,1.4132,1.4334,1.4456,1.4425,1.405,1.3315,0.0,0.0,0.0,0.0,0.0,0.0,0.0,0.0,0.0,0.0,0.0,0.0,0.0,0.0,0.0,0.0,0.0,0.0,0.0,0.0,0.0,0.0,0.0,0.0,0.0,0.0,0.0,0.0,0.0,0.0,0.0,0.0,0.0,0.0,0.0,0.0,0.0,0.0,0.0,0.0,0.0,0.0,0.0,0.0,0.0,0.0,0.0,0.0,0.0,0.0,0.0,0.0,0.0,0.0,0.0,0.0,0.0,0.0,0.0,0.0,0.0,0.0,0.0,0.0,0.0,0.0,0.0,0.0,0.0,0.0,0.0,0.0,0.0,0.0,0.0,0.0,0.0,0.0,0.0,0.0,0.0,0.0,0.0,0.0,0.0,0.0,0.0,0.0,0.0,0.0,0.0,0.0,0.0,0.0,0.0,0.0,0.0,0.0,0.0,0.0,0.0,0.0,1.213,1.2639,1.3099,0.0,1.3576,1.3976,1.4479,1.4433,1.4217,1.3876,0.0,0.0,0.0,0.0,0.0,0.0,0.0,0.0,0.0,0.0,0.0,0.0,0.0,0.0,0.0,0.0,0.0,0.0,0.0,0.0,0.0,0.0,0.0,0.0,0.0,0.0,0.0,0.0,0.0,0.0,0.0,0.0,0.0,0.0,0.0,0.0,0.0,0.0,0.0,0.0,0.0,0.0,0.0,0.0,0.0,0.0,0.0,0.0,0.0,0.0,0.0,0.0,0.0,0.0,0.0,0.0,0.0,0.0,0.0,0.0,0.0,0.0,0.0,0.0,0.0,0.0,0.0,0.0,0.0,0.0,0.0,0.0,0.0,0.0,0.0,0.0,0.0,0.0,0.0,0.0,0.0,0.0,0.0,0.0,0.0,0.0,0.0,0.0,0.0,0.0,0.0,0.0,0.0,0.0,0.0,0.0,0.0,0.0,0.0,0.0,0.0,0.0,1.184,1.2672,1.3147,1.329,1.414,1.4231,1.318,1.3719,1.3918,0.0,0.0,0.0,0.0,0.0,0.0,0.0,0.0,0.0,0.0,0.0,0.0,0.0,0.0,0.0,0.0,0.0,0.0,0.0,0.0,0.0,0.0,0.0,0.0,0.0,0.0,0.0,0.0,0.0,0.0,0.0,0.0,0.0,0.0,0.0,0.0,0.0,0.0,0.0,0.0,0.0,0.0,0.0,0.0,0.0,0.0,0.0,0.0,0.0,0.0,0.0,0.0,0.0,0.0,0.0,0.0,0.0,0.0,0.0,0.0,0.0,0.0,0.0,0.0,0.0,0.0,0.0,0.0,0.0,0.0,0.0,0.0,0.0,0.0,0.0,0.0,0.0,0.0,0.0,0.0,0.0,0.0,0.0,0.0,0.0,0.0,0.0,0.0,0.0,0.0,0.0,0.0,0.0,0.0,0.0,0.0,0.0,0.0,0.0,0.0,0.0,0.0,0.0,0.8888,0.9168,0.992,1.1573,1.1984,1.2848,1.4624,1.4698,1.4854,1.5308,0.0,0.0,0.0,0.0,0.0,0.0,0.0,0.0,0.0,0.0,0.0,0.0,0.0,0.0,0.0,0.0,0.0,0.0,0.0,0.0,0.0,0.0,0.0,0.0,0.0,0.0,0.0,0.0,0.0,0.0,0.0,0.0,0.0,0.0,0.0,0.0,0.0,0.0,0.0,0.0,0.0,0.0,0.0,0.0,0.0,0.0,0.0,0.0,0.0,0.0,0.0,0.0,0.0,0.0,0.0,0.0,0.0,0.0,0.0,0.0,0.0,0.0,0.0,0.0,0.0,0.0,0.0,0.0,0.0,0.0,0.0,0.0,0.0,0.0,0.0,0.0,0.0,0.0,0.0,0.0,0.0,0.0,0.0,0.0,0.0,0.0,0.0,0.0,0.0,0.0,0.0,0.0,0.0,0.0,0.0,0.0,0.0,0.0,0.0,0.0,0.0,0.0,0.7473,0.75,0.813,0.982,1.0282,1.1299,1.3461,1.3768,1.4118,1.4809,0.0,0.0,0.0,0.0,0.0,0.0,0.0,0.0,0.0,0.0,0.0,0.0,0.0,0.0,0.0,0.0,0.0,0.0,0.0,0.0,0.0,0.0,0.0,0.0,0.0,0.0,0.0,0.0,0.0,0.0,0.0,0.0,0.0,0.0,0.0,0.0,0.0,0.0,0.0,0.0,0.0,0.0,0.0,0.0,0.0,0.0,0.0,0.0,0.0,0.0,0.0,0.0,0.0,0.0,0.0,0.0,0.0,0.0,0.0,0.0,0.0,0.0,0.0,0.0,0.0,0.0,0.0,0.0,0.0,0.0,0.0,0.0,0.0,0.0,0.0,0.0,0.0,0.0,0.0,0.0,0.0,0.0,0.0,0.0,0.0,0.0,0.0,0.0,0.0,0.0,0.0,0.0,0.0,0.0,0.0,0.0,0.0,0.0,0.0,0.0,0.0,0.0,0.7015,0.6988,0.7202,0.8027,0.872,0.9591,1.0771,1.1616,1.2329,1.2974,0.0,0.0,0.0,0.0,0.0,0.0,0.0,0.0,0.0,0.0,0.0,0.0,0.0,0.0,0.0,0.0,0.0,0.0,0.0,0.0,0.0,0.0,0.0,0.0,0.0,0.0,0.0,0.0,0.0,0.0,0.0,0.0,0.0,0.0,0.0,0.0,0.0,0.0,0.0,0.0,0.0,0.0,0.0,0.0,0.0,0.0,0.0,0.0,0.0,0.0,0.0,0.0,0.0,0.0,0.0,0.0,0.0,0.0,0.0,0.0,-0.6597,0.0,0.0,0.0,0.0,0.0,0.0,0.0,0.0,0.0,0.0,0.0,0.0,0.0,0.0,0.0,0.0,0.0,0.0,0.0,0.0,0.0,0.0,0.0,0.0,0.0,0.0,0.0,0.0,0.0,0.0,0.0,0.0,0.0,0.0,0.0,0.0,0.0,0.0,0.0,0.0,0.0,0.5317,0.5308,0.5442,0.5793,0.6083,0.7432,1.0358,1.0732,1.1447,1.2913,0.0,0.0,0.0,0.0,0.0,0.0,0.0,0.0,0.0,0.0,0.0,0.0,0.0,0.0,0.0,0.0,0.0,0.0,0.0,0.0,0.0,0.0,0.0,0.0,0.0,0.0,0.0,0.0,0.0,0.0,0.0,0.0,0.0,0.0,0.0,0.0,0.0,0.0,0.0,0.0,0.0,0.0,0.0,0.0,0.0,0.0,0.0,0.0,0.0,0.0,0.0,0.0,0.0,0.0,0.0,0.0,0.0,0.0,0.0,0.0,0.0,-1.0331,0.0,0.0,0.0,0.0,0.0,0.0,0.0,0.0,0.0,0.0,0.0,0.0,0.0,0.0,0.0,0.0,0.0,0.0,0.0,0.0,0.0,0.0,0.0,0.0,0.0,0.0,0.0,0.0,0.0,0.0,0.0,0.0,0.0,0.0,0.0,0.0,0.0,0.0,0.0,0.0,0.4632,0.403,0.3737,0.4182,0.4758,0.6214,0.8939,0.9716,1.0555,1.1784,1.194,0.0,0.0,0.0,0.0,0.0,0.0,0.0,0.0,0.0,0.0,0.0,0.0,0.0,0.0,0.0,0.0,0.0,0.0,0.0,0.0,0.0,0.0,0.0,0.0,0.0,0.0,0.0,0.0,0.0,0.0,0.0,0.0,0.0,0.0,0.0,0.0,0.0,0.0,0.0,0.0,0.0,0.0,0.0,0.0,0.0,0.0,0.0,0.0,0.0,0.0,0.0,0.0,0.0,-1.9808,-1.5479,-1.1406,-1.0258,-1.1581,-1.4695,-1.3985,-1.6139,-1.9764,0.0,0.0,0.0,0.0,0.0,0.0,0.0,0.0,0.0,0.0,0.0,0.0,0.0,0.0,0.0,0.0,0.0,0.0,0.0,0.0,0.0,0.0,0.0,0.0,0.0,-0.411,-0.0,0.0,0.0,0.0,0.0,0.0,0.0,0.0,0.0,0.0,0.0,0.0,0.0,0.4473,0.3251,0.2531,0.3042,0.4122,0.5603,0.756,0.8654,0.9646,1.0549,1.088,1.1199,0.0,0.0,0.0,0.0,0.0,0.0,0.0,0.0,0.0,0.0,0.0,0.0,0.0,0.0,0.0,0.0,0.0,0.0,0.0,0.0,0.0,0.0,0.0,0.0,0.0,0.0,0.0,0.0,0.0,0.0,0.0,0.0,2.0012,1.88,0.0,0.0,0.0,0.0,0.0,0.0,0.0,0.0,0.0,0.0,0.0,0.0,0.0,0.0,-2.4692,-2.6672,-2.6621,-2.4588,-1.8559,-1.5531,-1.4861,-1.1463,-1.1956,-1.5665,-1.7552,0.0,-1.9417,-1.7812,0.0,0.0,0.0,0.0,0.0,0.0,0.0,0.0,0.0,0.0,0.0,0.0,0.0,0.0,0.0,0.0,0.0,0.0,0.0,0.0,0.0,0.0,-1.3189,-0.9533,-0.5443,-0.1005,0.0,0.4401,0.3283,0.0387,0.0,0.0,0.0,0.0,0.0,0.0,0.0,0.0,0.435,0.3551,0.2757,0.2361,0.3806,0.5579,0.7513,0.8111,0.9013,1.0485,1.0823,1.0918,1.0771,0.9965,0.0,0.0,0.0,0.0,0.0,0.0,0.0,0.0,0.0,0.0,0.0,0.0,0.0,0.0,0.0,0.0,0.0,0.0,0.0,0.0,0.0,0.0,0.0,0.0,0.0,0.0,0.0,0.0,0.0,1.8048,1.3089,1.1535,0.7711,0.6436,0.0,0.0,0.0,0.0,0.0,0.0,0.0,0.0,0.0,-1.707,-1.855,-2.2827,-3.0422,-2.8752,-2.6158,-2.2794,-1.9475,-1.6389,-1.3579,-1.4207,-1.5376,-1.6893,-2.0026,-2.1401,-2.14,-2.0671,-1.9706,-1.8272,0.0,0.0,0.0,0.0,-1.0131,-0.9465,-0.8379,-0.816,0.0,0.0,0.0,0.0,0.0,0.0,0.0,0.0,0.0,0.0,0.0,0.0,0.0,-0.4175,-0.3248,-0.1212,0.4247,0.5135,0.4111,0.0,-0.1159,-0.3442,-0.4346,0.0,0.0,0.0,0.0,0.0,0.4438,0.337,0.2809,0.3413,0.4187,0.5262,0.6719,0.7581,0.8567,0.9794,1.0147,1.0129,0.9914,0.9052,0.8657,0.0,0.0,0.0,0.0,0.0,0.0,0.0,0.0,0.0,0.0,0.0,0.0,0.0,0.0,0.0,0.0,0.0,0.0,0.0,0.0,0.0,0.0,0.0,0.0,0.0,0.0,0.0,0.0,1.1403,0.5161,0.0664,-0.1685,-0.2516,0.0,0.0,0.0,0.0,0.0,0.0,-0.7778,-0.9533,-1.5099,-2.5146,-2.3573,-2.6218,-3.3865,-2.9163,-2.4994,-2.1491,-1.9325,-1.6367,-1.3017,-1.5711,-1.7188,-1.7719,-2.0704,-2.1836,-2.1544,-2.1869,-2.0837,-1.8807,-1.5689,-1.3099,-1.1064,-1.0321,-0.9553,-0.8813,-0.809,-0.8081,-0.8233,-0.6908,0.0,-0.7185,-0.8505,0.0,0.0,0.0,0.0,-1.3304,-1.1364,-0.6023,-0.0973,-0.0191,-0.1033,-0.0904,0.3174,0.4455,0.4301,0.0,-0.0571,-0.3063,-0.3287,0.0,0.0,0.0,0.0,0.4501,0.4522,0.3522,0.3246,0.4353,0.4519,0.4974,0.6133,0.7123,0.8047,0.8917,0.9202,0.9249,0.8971,0.8212,0.7793,0.7848,0.0,0.0,0.0,0.0,0.0,0.0,0.0,0.0,0.0,0.0,0.0,0.0,0.0,0.0,0.0,0.0,0.0,0.0,0.0,0.0,0.0,0.0,0.0,0.0,0.0,0.0,0.0,0.0,0.0,-1.5343,-1.4059,0.0,0.0,0.0,0.0,-1.0576,-1.5123,-1.8675,-2.0545,-2.6058,-3.0129,-3.2335,-3.2972,-3.2758,-3.1673,-2.6829,-2.3559,-2.188,-1.6683,-1.4657,-1.554,-1.4567,-1.538,-1.7764,-1.8993,-1.8799,-1.7741,-2.0218,-1.9654,-1.6806,-1.3733,-1.1417,-0.9775,-0.9168,-0.9237,-0.9458,-0.8394,-0.836,-0.8564,-0.6881,-0.7366,-0.8962,-1.0923,-1.2279,0.0,0.0,-1.2086,-1.1068,-0.9316,-0.6559,-0.3532,-0.0678,-0.0057,-0.0057,0.0227,0.2499,0.4061,0.0,0.1649,0.0897,-0.0056,0.0,-0.0168,-0.0,0.2565,0.4522,0.4519,0.4408,0.4405,0.4519,0.4632,0.5089,0.6133,0.6684,0.7274,0.7989,0.8339,0.8361,0.8047,0.7489,0.7061,0.6894,0.5974,0.0,0.0,0.0,0.0,0.0,0.0,0.0,0.0,0.0,0.0,0.0,0.0,0.0,0.0,0.0,0.0,0.0,0.0,0.0,0.0,0.0,0.0,0.0,0.0,0.0,0.0,0.0,0.0,-1.7459,-1.9052,0.0,-1.9982,-2.0472,-2.147,-2.3297,-2.5354,-2.7669,-3.0207,-3.2372,-3.4262,-3.5861,-3.5213,-3.3945,-3.2249,-2.7705,-2.4021,-2.1337,-1.7987,-1.5967,-1.5305,-1.5188,-1.5543,-1.6448,-1.6641,-1.6555,-1.6296,-1.685,-1.6507,-1.5432,-1.3967,-1.2117,-1.0293,-0.9862,-0.8932,-0.7518,-0.5548,-0.6121,-0.777,-0.8143,-0.9665,-1.1464,-1.2241,-1.2883,-1.3392,-1.3336,-1.241,-1.0996,-0.8961,-0.6952,-0.4984,-0.3284,-0.1396,-0.0,-0.0,0.1573,0.3438,0.4756,0.4873,0.4657,0.4314,0.4258,0.4373,0.4716,0.5682,0.6248,0.5899,0.5843,0.5665,0.5203,0.5203,0.527,0.5326,0.5975,0.6502,0.6925,0.7007,0.6928,0.6831,0.6203,0.5268,0.4207,0.4969,0.3166,0.0,0.0,0.0,0.0,0.0,0.0,0.0,0.0,0.0,0.0,0.0,0.0,0.0,0.0,0.0,0.0,0.0,0.0,0.0,0.0,0.0,0.0,0.0,0.0,0.0,0.0,-1.7278,-2.0362,-2.3764,-2.6214,-2.7173,-2.867,-3.0338,-3.2122,-3.2315,-3.3129,-3.513,-3.4946,-3.5249,-3.6345,-3.5359,-3.3687,-3.1279,-2.8035,-2.4587,-2.1179,-1.8937,-1.6879,-1.4963,-1.4952,-1.4854,-1.4779,-1.4644,-1.4501,-1.4149,-1.2986,-1.234,-1.2197,-1.1718,-1.0188,-0.8219,-0.8038,-0.7354,-0.624,-0.39,-0.4979,-0.7529,-0.9106,-1.1073,-1.2915,-1.32,-1.3792,-1.4201,-1.3286,-1.21,-1.0593,-0.8293,-0.6732,-0.5571,-0.4677,-0.2561,-0.0614,-0.0112,0.1178,0.3088,0.6027,0.6375,0.6332,0.6564,0.6618,0.6737,0.709,0.7149,0.703,0.6623,0.6618,0.6391,0.5928,0.5922,0.5755,0.5216,0.5715,0.6018,0.5892,0.5843,0.5784,0.5738,0.5277,0.4293,0.2753,0.3266,0.1177,-0.3716,0.0,0.0,0.0,0.0,0.0,0.0,0.0,0.0,0.0,0.0,0.0,0.0,0.0,0.0,0.0,0.0,0.0,0.0,0.0,0.0,0.0,0.0,0.0,-0.9481,-1.8684,-2.5398,-2.5208,-2.8769,-3.1883,-3.3474,-3.56,-3.6742,-3.6382,-3.5631,-3.5111,-3.5111,-3.4359,-3.3959,-3.4027,-3.4027,-3.2374,-2.8848,-2.756,-2.5172,-2.1535,-1.916,-1.6964,-1.4731,-1.3788,-1.3168,-1.2858,-1.2864,-1.2194,-1.0983,-0.8631,-0.7289,-0.682,-0.6974,-0.5591,-0.3528,-0.3639,-0.477,-0.6008,-0.4002,-0.5245,-0.8076,-0.9793,-1.156,-1.3168,-1.3849,-1.4903,-1.5245,-1.2342,-1.095,-0.9804,-0.7233,-0.6056,-0.535,-0.4673,-0.3332,-0.1831,-0.0224,0.1234,0.3147,0.6082,0.6044,0.5809,0.6544,0.6712,0.6712,0.6712,0.6712,0.0,0.6712,0.6712,0.6723,0.6691,0.6817,0.6623,0.5894,0.6022,0.5801,0.4957,0.5033,0.5033,0.4916,0.4886,0.4219,0.2701,0.0898,-0.0727,-0.2119,0.0,0.0,0.0,0.0,0.0,0.0,0.0,0.0,0.0,0.0,0.0,0.0,0.0,0.0,0.0,0.0,0.0,0.0,0.0,0.0,0.0,0.0,-1.4044,-1.6421,-2.2253,-2.7212,-2.9851,-3.3021,-3.5355,-3.6499,-3.7647,-3.7576,-3.5676,-3.4688,-3.3922,-3.3378,-3.3143,-3.331,-3.3959,-3.4691,-3.3725,-3.0942,-2.9374,-2.6675,-2.2705,-1.9287,-1.6628,-1.474,-1.24,-1.126,-1.0824,-0.7872,-0.5322,-0.3396,-0.2547,-0.1225,-0.0169,-0.5139,-0.4555,-0.135,-0.447,-0.5832,-0.6334,-0.6586,-0.8282,-1.0479,-1.1286,-1.278,-1.4282,-1.4531,-1.4609,-1.4134,-1.2083,-1.0741,-0.9373,-0.7169,-0.6211,-0.5584,-0.4688,-0.42,-0.2579,0.2247,0.3554,0.4462,0.6734,0.7139,0.7459,0.8692,0.893,0.9102,0.9588,0.9655,0.0,0.9655,0.9228,0.8819,0.852,0.8116,0.7344,0.6201,0.6067,0.5711,0.4816,0.4691,0.4632,0.4632,0.4591,0.3919,0.2348,0.0782,-0.0223,0.0,0.0,0.0,0.0,0.0,0.0,0.0,0.0,0.0,0.0,0.0,0.0,0.0,0.0,0.0,0.0,0.0,0.0,0.0,0.0,0.0,0.0,-0.7295,-1.7137,-2.1489,-2.4537,-2.7815,-3.1654,-3.4345,-3.6397,-3.7681,-3.7544,-3.6625,-3.4727,-3.3786,-3.3087,-3.2593,-3.2961,-3.3474,-3.42,-3.4783,-3.3908,-3.1405,-2.9795,-2.7037,-2.3154,-1.9245,-1.6418,-1.4579,-1.1651,-0.9754,0.0,-0.6626,-0.2438,0.2713,0.2898,0.3662,0.0,0.0,0.0,0.0,0.0,-0.5994,-0.6298,-0.7884,-0.9373,-1.075,-1.2107,-1.3487,-1.4676,-1.4553,-1.4201,-1.3522,-1.1714,-1.0038,-0.849,-0.6993,-0.5941,-0.5037,-0.3802,-0.3086,-0.1291,0.3498,0.4804,0.5512,0.709,0.0,0.0,0.9903,0.997,1.0054,1.0718,1.0794,1.0794,1.0794,1.0194,0.9691,0.9486,0.8836,0.7908,0.647,0.635,0.0,0.0,0.0,0.4587,0.4529,0.4477,0.0,0.0,0.0,0.1282,-0.0,0.0,0.0,0.0,-0.8496,-1.0457,0.0,0.0,0.0,0.0,0.0,0.0,0.0,0.0,0.0,0.0,0.0,0.0,0.0,0.0,0.0,0.0,-0.8616,-1.9055,-2.4667,-2.6018,-2.7858,-3.1957,-3.4075,-3.5776,-3.7178,-3.5906,-3.4529,-3.3432,-3.2681,-3.2258,-3.2258,0.0,0.0,0.0,0.0,-3.3013,-3.0405,-2.8836,-2.6202,-2.2471,-1.8735,-1.5853,-1.39,-1.097,-0.8722,-0.7079,-0.7082,-0.1662,0.7066,0.7088,0.6927,0.6312,0.1787,-0.0331,-0.1096,-0.3997,-0.5491,-0.6311,-0.829,0.0,0.0,-1.2342,-1.3752,-1.4544,-1.4035,-1.3692,-1.3091,-1.123,-0.9191,-0.7452,-0.6788,-0.555,-0.4132,-0.2802,-0.1065,0.1009,0.3893,0.5353,0.6311,0.7153,0.7576,0.8448,1.034,1.0245,1.0165,1.0931,1.1054,1.1023,1.0919,1.0336,0.9917,0.9848,0.0,0.0,0.6898,0.6889,0.6283,0.4695,0.4646,0.4609,0.4484,0.4477,0.4484,0.4494,0.4494,0.3186,0.05,-0.1166,-0.2927,-0.4754,-0.7937,-1.0222,0.0,0.0,0.0,0.0,0.0,0.0,0.0,0.0,0.0,0.0,0.0,0.0,0.0,0.0,0.0,0.1553,-0.9506,-1.9165,-2.5113,-2.7238,-2.9531,-3.3333,-3.4852,-3.525,-3.4324,-3.3954,-3.2819,-3.0471,-3.0177,-3.0064,-2.9993,-3.0884,0.0,-3.1513,-3.2263,-3.1082,-2.7919,-2.6324,-2.3163,-1.862,0.0,0.0,-1.0845,-0.9144,-0.7851,-0.6888,-0.3148,0.1756,0.706,0.7068,0.7038,0.6576,0.185,-0.2063,-0.4953,-0.3683,-0.4938,-0.7446,-0.8477,-0.9737,-1.1169,-1.2478,-1.3498,-1.4035,-1.3081,-1.2743,0.0,-1.0492,-0.8856,-0.7452,-0.6788,-0.555,-0.4408,-0.4132,-0.1059,0.23,0.4082,0.5852,0.7018,0.6807,0.7747,0.8871,0.9835,1.0303,1.1054,1.2299,1.2492,1.2302,1.1688,1.1019,1.0478,1.0202,0.9568,0.8771,0.7941,0.7367,0.6553,0.5391,0.4816,0.4549,0.4522,0.4522,0.4522,0.4525,0.4477,0.4196,0.363,0.0685,-0.179,-0.3869,-0.7654,-0.9663,0.0,0.0,0.0,0.0,0.0,0.0,0.0,0.0,0.0,0.0,0.0,3.0245,0.0,0.0,0.8112,-0.0,-1.2887,-2.3123,-2.6858,-2.8599,-3.0244,-3.2109,-3.3062,-3.3213,-3.2464,-3.1307,-3.0227,-2.9169,-2.882,-2.8781,-2.9003,-2.9956,-3.0408,-3.0422,-3.0881,-2.9603,-2.6353,-2.4152,-2.1055,-1.7107,-1.4548,-1.1805,-0.8962,-0.796,-0.6042,-0.3414,-0.1065,0.1332,0.3664,0.4884,0.4782,0.3655,0.0232,-0.4146,-0.8219,-0.6393,-0.6933,-0.8838,-1.0121,-1.0977,-1.1696,-1.3033,-1.3411,-1.3199,-1.2663,-1.1622,-1.0401,-0.9507,-0.7923,-0.6473,-0.6142,-0.5262,-0.4519,-0.4519,-0.1615,0.1736,0.4018,0.555,0.6484,0.6579,0.7512,0.8573,0.9595,1.0102,1.0672,1.167,1.1856,1.1724,1.1361,1.0725,1.0234,1.0075,0.9412,0.8725,0.7991,0.692,0.5947,0.5062,0.4677,0.4519,0.4519,0.4519,0.4519,0.4519,0.4522,0.4477,0.4487,0.2839,0.0341,-0.2893,-0.5677,-0.7499,0.0,0.0,0.0,0.0,0.0,0.0,0.0,0.0,3.2788,3.3147,2.9776,2.6391,2.5198,1.5112,0.4208,-0.4043,-1.7398,-2.7275,-2.9038,-3.0004,-3.0297,-2.9811,-3.0496,-3.0854,-3.0353,-2.8641,-2.7575,-2.7562,-2.7393,-2.7486,-2.7815,-2.879,-2.9366,-2.9426,-2.9159,-2.76,-2.4753,-2.1827,-1.8825,-1.5709,-1.2559,-0.9747,-0.7208,-0.6587,-0.4242,-0.0514,-0.0503,-0.0752,-0.084,0.1051,0.1019,-0.0534,-0.2798,-0.6672,-1.0785,-0.94,-0.929,-1.0026,-1.1495,-1.189,-1.1963,-1.3268,-1.3049,-1.2279,-1.1906,-1.0339,-0.8639,-0.8387,-0.694,-0.5498,-0.5576,-0.5033,-0.4519,-0.4473,-0.2178,0.0839,0.3846,0.5033,0.5686,0.6284,0.7083,0.8041,0.9176,0.9528,0.9881,1.0698,1.0813,1.0755,1.0631,1.0131,0.9775,0.9595,0.9109,0.8448,0.7571,0.6416,0.5364,0.4574,0.4519,0.4519,0.4519,0.4519,0.4519,0.4519,0.4519,0.4473,0.4494,0.4209,0.2062,-0.1838,-0.3671,-0.5294,2.8398,2.633,2.5218,2.7702,2.8885,3.082,0.0,0.0,3.6607,3.8018,3.0332,2.061,1.1741,0.1854,-0.7426,-1.4849,-2.2412,-2.8446,-3.1362,-3.1056,-2.963,-2.7306,-2.8621,-2.8931,-2.6891,-2.6422,-2.553,-2.372,-2.4526,-2.5014,-2.4643,-2.5844,-2.6774,-2.7229,-2.6038,-2.4268,-2.1977,-1.8526,-1.5226,-1.2123,-1.0295,-0.7816,-0.4888,-0.3946,-0.3154,-0.2362,-0.239,-0.327,-0.4722,-0.439,-0.4451,-0.4882,-0.7655,-1.0187,-1.2056,-1.0206,-0.9888,-1.0531,-1.0973,-1.1614,-1.2209,-1.2081,-1.1999,-1.1528,-0.9693,-0.8924,-0.844,-0.7165,-0.6165,-0.5529,-0.578,-0.5203,-0.4473,-0.4514,-0.2191,0.0839,0.3846,0.5033,0.5546,0.5584,0.6725,0.7747,0.7923,0.8455,0.9334,1.0624,1.0805,1.0556,0.9993,0.9858,0.9588,0.899,0.8864,0.8218,0.6828,0.6592,0.5937,0.457,0.4519,0.4519,0.4519,0.4519,0.4519,0.4519,0.4519,0.4525,0.448,0.3128,0.1502,-0.0333,-0.3181,-0.4927,2.59,2.3071,2.1349,0.0,2.5497,2.8085,3.2781,3.5067,3.6501,3.774,2.8041,1.5782,0.396,-0.4998,-1.3481,0.0,-2.5721,-2.8148,-3.1413,-2.9766,-2.753,-2.5532,-2.4641,-2.4089,-2.37,-2.2763,-2.1981,-2.1707,-2.2027,-2.2128,-2.1762,-2.2997,-2.3691,-2.3811,-2.2956,-2.1344,-1.9046,-1.5931,-1.3008,-1.0241,-0.8427,-0.7202,-0.6542,-0.6311,-0.6069,-0.5829,-0.6749,-0.763,-0.8322,-0.884,-0.9151,-0.9563,-1.0656,-1.1744,-1.2526,-1.1229,-1.1321,-1.2141,-1.2405,-1.225,-1.1971,-1.184,-1.1247,-1.0403,-0.9106,-0.8139,-0.7318,-0.6459,-0.555,-0.4919,-0.5033,-0.4768,-0.4507,-0.4524,-0.1515,0.1849,0.4018,0.4746,0.5033,0.5436,0.6361,0.7198,0.7653,0.833,0.899,0.9535,0.9655,0.9535,0.9235,0.9228,0.9109,0.8811,0.8804,0.8212,0.6712,0.6573,0.5982,0.4574,0.4519,0.4519,0.4519,0.4519,0.4519,0.4519,0.4519,0.4519,0.4525,0.386,0.2347,-0.0056,-0.3077,-0.465,2.2227,1.9342,0.0,1.9479,2.1316,2.3726,2.7672,2.8913,3.095,3.7052,2.4963,1.0849,0.2825,-0.4718,-1.2968,-2.3144,-2.4305,-2.5412,-2.9644,-2.7764,-2.5222,-2.3283,-2.0998,-1.9703,-1.9923,-1.9306,-1.913,-1.9816,-1.9899,-1.9866,-1.9644,-2.0838,-2.149,-2.1475,-2.029,-1.8831,-1.7,-1.4018,-1.149,-0.9479,-0.7658,-0.7282,-0.8313,-0.8553,-0.8543,-0.8419,-0.974,-1.0434,-1.0699,-1.1538,-1.2158,-1.2696,-1.2653,-1.2842,-1.3092,-1.2429,-1.2678,-1.3342,-1.3135,-1.2479,-1.1749,-1.1389,-1.061,-0.9595,-0.8455,-0.7382,-0.6428,-0.5724,-0.5041,-0.448,-0.448,-0.4504,-0.43,-0.3442,-0.0449,0.2637,0.4187,0.4519,0.4632,0.5148,0.5784,0.6539,0.7264,0.7982,0.8567,0.8752,0.8804,0.8804,0.8804,0.8804,0.8804,0.8804,0.8626,0.7982,0.6712,0.6436,0.5784,0.4574,0.4519,0.4519,0.4519,0.4519,0.4519,0.4519,0.4519,0.4522,0.4473,0.449,0.2972,-0.0056,-0.3084,-0.4494,1.7307,1.5434,1.507,1.6481,1.69,1.7995,2.1871,1.7643,1.8277,3.7183,2.1396,0.5518,0.9879,0.4477,-0.4005,-1.415,-1.645,-1.9283,-2.5819,-2.5392,-2.3208,-2.0104,-1.8407,-1.6876,0.0,-1.6626,-1.7625,-1.7509,-1.827,-1.8702,-1.8554,-1.9726,-2.0652,-2.1176,-1.8443,-1.6709,-1.6232,-1.2999,-1.0848,-0.9898,-0.8554,-0.8305,-0.9003,-0.9176,-0.9284,-0.9265,-0.9768,-1.0482,-1.1336,-1.194,-1.2672,-1.3522,-1.3912,-1.4041,-1.4008,-1.3793,-1.3752,-1.36,-1.2276,-1.1849,-1.1594,-1.029,-0.985,-0.9408,-0.7284,-0.6622,-0.6308,-0.4919,-0.4494,-0.4472,-0.4472,-0.4472,-0.3784,-0.0842,0.1066,0.2637,0.4187,0.4519,0.4519,0.4519,0.5089,0.5786,0.6516,0.7225,0.7982,0.8692,0.8804,0.8804,0.8804,0.8804,0.8804,0.8804,0.8159,0.7401,0.6654,0.5973,0.5262,0.4519,0.4519,0.4519,0.4519,0.4519,0.4519,0.4519,0.4519,0.4473,0.4494,0.4507,0.2977,-0.0056,-0.3091,-0.4501,1.607,1.2772,1.0416,1.1527,1.1167,1.1118,1.3437,1.4392,1.7456,2.6808,1.7959,1.0227,1.5886,0.8527,0.0433,-0.3275,-1.0079,-1.5614,-1.7615,-2.208,-2.4206,-2.1757,-1.9294,0.0,0.0,0.0,0.0,-1.5725,-1.6503,-1.7016,-1.7148,-1.8816,-1.939,-1.8581,-1.7226,-1.6033,-1.4887,-1.2683,-1.1134,-1.0241,-1.0232,-1.0279,-1.0568,-1.159,-1.2066,-1.2121,-1.2878,-1.3377,-1.3652,-1.4094,-1.4715,-1.5268,-1.428,-1.4385,-1.4866,-1.3112,-1.2735,-1.3024,-1.2098,-1.151,-1.099,-1.0066,-0.9169,-0.817,-0.6993,-0.6391,-0.5903,-0.4823,-0.4507,-0.4014,-0.2023,-0.0056,0.1732,0.2745,0.3375,0.3887,0.4415,0.4519,0.4519,0.4519,0.5033,0.5589,0.5823,0.6913,0.7923,0.8685,0.8389,0.8094,0.8094,0.7629,0.7342,0.7342,0.7114,0.6653,0.5919,0.5635,0.5207,0.4519,0.4519,0.4519,0.4519,0.4519,0.4519,0.4519,0.449,0.4511,0.4518,0.2471,0.1009,-0.0,-0.1063,-0.2575,1.3995,1.0199,0.7057,0.7612,0.604,0.4808,0.6395,0.8112,1.1312,1.8389,1.5475,1.3904,2.1299,1.6297,0.9654,0.5418,-0.1535,-0.7958,-1.234,-1.8161,-2.2068,-2.2314,-1.9773,-1.7665,0.0,0.0,0.0,-1.499,-1.5634,-1.6234,-1.6834,-1.8153,-1.8452,-1.7465,-1.6396,-1.5371,-1.444,-1.3033,-1.2003,-1.1376,-1.201,-1.2268,-1.2185,-1.3381,-1.393,-1.399,-1.4733,-1.5077,-1.5094,-1.5565,-1.5973,-1.6236,-1.4948,-1.4619,-1.4687,-1.285,-1.2141,-1.1944,-1.1023,-1.0438,-0.9888,-0.8983,-0.8039,-0.7177,-0.645,-0.6041,-0.5575,-0.4101,-0.4061,-0.3784,-0.0785,0.224,0.4494,0.4487,0.4494,0.4216,0.3125,0.3292,0.3855,0.4408,0.486,0.5207,0.5436,0.6499,0.7459,0.7923,0.7395,0.7083,0.7628,0.7052,0.6592,0.6592,0.6357,0.6009,0.5542,0.5262,0.4974,0.4519,0.4519,0.4519,0.4519,0.4519,0.4525,0.4487,0.4514,0.3955,0.2871,0.0954,-0.0,-0.0,-0.0,-0.1064,1.103,0.7799,0.5147,0.4874,0.1808,-0.0607,0.1296,-0.0454,0.0934,1.291,1.4256,1.6233,0.0,0.0,2.2797,1.2244,0.8704,0.2975,-0.9308,-1.3666,-1.7205,0.0,0.0,0.0,0.0,0.0,0.0,-1.5352,0.0,-1.6429,-1.7511,-1.7839,-1.793,-1.7894,-1.5975,-1.4894,-1.4862,-1.4011,-1.3417,-1.3184,-1.3844,-1.4012,-1.382,-1.4466,-1.4789,-1.4846,-1.5414,-1.5641,-1.5674,-1.6275,-1.6466,-1.638,-1.5764,-1.4733,-1.3554,-1.2908,-1.1828,-1.0535,-0.9089,-0.8665,-0.8489,-0.7068,-0.6563,-0.6431,-0.5758,-0.5686,-0.531,-0.2981,-0.3268,-0.3613,-0.0729,0.2127,0.432,0.4467,0.4519,0.3735,0.0839,0.1234,0.2579,0.419,0.4519,0.4691,0.5376,0.6049,0.6559,0.6559,0.5937,0.5998,0.7406,0.6955,0.6483,0.6483,0.5843,0.5436,0.5436,0.486,0.4519,0.4519,0.4519,0.4519,0.4519,0.4519,0.4487,0.4475,0.436,0.2871,-0.0,-0.0,-0.0,-0.0,-0.0,-0.0,1.0501,0.7297,0.4403,0.3642,0.1379,-0.0142,0.1642,0.2919,0.6018,1.4281,1.6804,1.9446,0.0,0.0,0.0,2.2405,1.4133,0.0,0.2583,-0.8148,0.0,-1.8548,0.0,-1.8661,-1.8188,-1.6938,0.0,0.0,-1.5507,-1.5654,-1.6966,-1.8076,-1.8487,-1.7933,-1.6985,-1.6264,-1.5782,-1.4836,-1.4334,-1.4302,-1.4926,-1.518,-1.5152,-1.5747,-1.6064,-1.6064,-1.6219,-1.6275,-1.6275,-1.6436,-1.6238,-1.572,-1.4642,-1.3705,-1.2812,-1.119,-1.0198,-0.9527,-0.7735,-0.7841,-0.8462,-0.7047,-0.6249,-0.5764,-0.5795,-0.5381,-0.473,-0.411,-0.2583,-0.0954,-0.0224,0.0559,0.173,0.3978,0.4487,0.4314,0.3514,0.1899,0.1346,0.3999,0.4487,0.4688,0.5262,0.5517,0.5778,0.6237,0.5664,0.5391,0.6009,0.5436,0.5033,0.5033,0.486,0.4746,0.4746,0.4577,0.4519,0.4519,0.4519,0.4519,0.4519,0.4494,0.4518,0.4475,0.2305,0.0785,-0.0,-0.0,-0.0,-0.0,-0.0,-0.0,0.9003,0.6447,0.4166,0.3504,0.2381,0.1889,0.3968,0.7325,1.1398,1.62,1.9672,2.261,2.5084,2.5745,0.0,0.0,0.0,0.0,0.549,-0.4774,-1.3318,0.0,-1.8429,0.0,-1.8887,-1.7859,-1.691,0.0,-1.6092,-1.6483,-1.7587,-1.8668,-1.9074,-1.8667,-1.8292,-1.7847,-1.7264,-1.6539,-1.6051,-1.5849,-1.5965,-1.5984,-1.5997,-1.6335,-1.6522,-1.6522,0.0,-1.6362,-1.6113,-1.612,-1.5732,-1.5084,-1.3799,-1.2888,-1.2094,-1.0282,-0.9192,-0.8369,-0.6878,-0.6691,-0.6945,-0.5914,-0.5259,-0.498,-0.5089,-0.4864,-0.4497,-0.4504,-0.2355,-0.0,-0.0,-0.0,0.0783,0.3769,0.4497,0.4141,0.279,0.1174,0.0505,0.2193,0.3524,0.446,0.4746,0.479,0.4859,0.5178,0.4859,0.465,0.4809,0.452,0.4291,0.4291,0.4291,0.4291,0.4346,0.4349,0.4128,0.3524,0.3469,0.3808,0.4494,0.4518,0.3899,0.2531,0.0842,-0.0,-0.0,-0.0,-0.0,-0.0,-0.0,-0.0,0.7386,0.579,0.441,0.448,0.4513,0.5217,0.7984,1.2454,1.6694,1.8921,2.2553,2.5127,2.4437,2.4271,2.3128,1.9671,0.0,1.1377,0.4351,-0.2148,-0.8683,-1.5434,-1.7652,-1.8705,-1.8923,-1.8223,-1.7327,-1.6302,-1.7426,-1.8283,-1.8738,-1.9435,-1.9792,-1.9715,-1.9654,-1.9349,-1.8861,-1.8307,-1.7774,-1.7282,-1.6751,-1.6522,-1.6522,-1.6522,-1.6522,-1.6522,0.0,0.0,-1.5572,-1.5534,-1.5141,-1.4457,-1.3148,-1.2183,-1.1349,-0.9805,-0.8454,-0.7241,-0.6298,-0.5571,-0.493,-0.4372,-0.4174,-0.4175,-0.4022,-0.411,-0.4147,-0.3941,-0.2001,-0.0,-0.0,-0.0,0.0673,0.3271,0.3928,0.3178,0.056,-0.0,-0.0,-0.0,0.1952,0.3765,0.4136,0.407,0.3991,0.3947,0.3947,0.3947,0.3947,0.3976,0.4012,0.4012,0.4012,0.4069,0.418,0.403,0.3519,0.2587,0.2135,0.2531,0.3842,0.3899,0.2645,0.0056,-0.0,-0.0,-0.0,-0.0,-0.0,-0.0,-0.0,-0.0,0.7487,0.6429,0.5728,0.6776,0.8164,1.0291,1.4439,1.7751,0.0,0.0,2.476,2.4912,2.4391,2.4148,2.3124,2.0298,0.0,0.0,0.0,0.0,-0.3141,0.0,0.0,0.0,0.0,0.0,0.0,0.0,0.0,0.0,-1.9098,-2.0124,-2.0657,-2.0428,-2.0464,-2.0038,-1.9144,-1.8389,-1.7774,-1.7282,-1.6751,-1.6522,-1.6522,-1.6522,-1.6522,-1.6466,0.0,0.0,-1.5567,-1.5062,-1.4514,-1.3805,-1.2454,-1.1385,-1.0456,-0.9061,-0.7791,-0.666,-0.6155,-0.5362,-0.4455,-0.4151,-0.4023,-0.3899,-0.3174,-0.2777,-0.2318,-0.1148,-0.0429,-0.0,-0.0,-0.0,0.0112,0.0673,0.0784,0.0615,0.0112,-0.0,-0.0,-0.0,0.0392,0.1456,0.3677,0.3976,0.3854,0.3714,0.367,0.367,0.367,0.3858,0.4018,0.4018,0.4018,0.4072,0.4179,0.3206,0.2979,0.4014,0.1741,0.0505,0.0785,0.0785,0.0561,-0.0,-0.0,-0.0,-0.0,-0.0,-0.0,-0.0,-0.0,-0.0,0.7836,0.7671,0.7873,0.9728,1.1935,1.4621,1.8136,0.0,0.0,2.4718,2.4832,2.4295,2.3199,2.2886,0.0,1.8833,0.0,0.0,0.0,0.0,0.0,0.0,0.0,0.0,0.0,0.0,0.0,0.0,0.0,0.0,-2.0821,-2.1673,-2.223,-2.2296,-2.224,-2.1671,-2.0558,-1.95,-1.8546,-1.7691,-1.6594,-1.6233,-1.6509,-1.622,-1.6245,-1.6466,-1.6182,0.0,-1.5588,-1.5276,-1.4641,-1.3721,-1.2667,-1.1495,-1.0212,-0.879,-0.7356,-0.6023,-0.5411,-0.466,-0.3976,-0.3833,-0.3792,-0.3698,-0.3275,-0.3064,-0.2531,-0.0576,-0.0,-0.0,-0.0,-0.0,-0.0,-0.0,-0.0,-0.0,-0.0,-0.0,-0.0,-0.0,-0.0,0.0393,0.1679,0.2422,0.3007,0.3537,0.3581,0.3581,0.3581,0.3718,0.3806,0.3806,0.3806,0.381,0.3865,0.2936,0.2596,0.3241,0.1958,0.1118,0.1118,0.1118,0.1118,0.1118,0.0392,-0.0,-0.0,-0.0,-0.0,-0.0,-0.0,-0.0,0.8677,0.9345,1.0455,1.2754,1.5379,1.7998,2.0486,2.2567,0.0,2.4449,2.4204,2.3446,2.1875,2.1243,1.9944,0.0,1.4112,1.1102,0.0,0.0,0.0,0.0,0.0,0.0,0.0,0.0,0.0,0.0,0.0,0.0,-2.2758,-2.3269,-2.3724,-2.4124,-2.3781,-2.2988,-2.1718,-2.0194,-1.8844,-1.761,-1.5975,-1.5443,-1.5837,-1.5499,-1.5585,-1.5991,-1.5915,0.0,0.0,-1.5096,-1.4391,-1.3398,-1.2599,-1.1429,-0.9982,-0.8362,-0.6883,-0.5499,-0.4699,-0.4062,-0.3581,-0.3581,-0.3581,-0.3581,-0.3581,-0.3585,-0.3185,-0.1303,-0.0787,-0.0757,-0.078,-0.0393,-0.0,-0.0,-0.0,-0.0,-0.0,-0.0,-0.0,-0.0,-0.0,-0.0,-0.0,0.099,0.2115,0.3093,0.3537,0.3762,0.3762,0.3899,0.3902,0.3762,0.367,0.3581,0.3581,0.3021,0.263,0.2523,0.2648,0.2681,0.2681,0.2676,0.2676,0.2676,0.1563,0.0783,0.0448,0.0448,0.0448,0.0448,0.0448,0.028,1.0516,1.1728,1.3338,1.5575,1.7791,1.9984,2.2117,0.0,2.4318,2.4561,2.3603,2.2365,2.1033,1.9601,1.7838,1.5383,1.3253,1.0638,0.0,0.0,0.0,0.0,0.0,0.0,0.0,0.0,0.0,0.0,0.0,0.0,0.0,-2.4321,-2.4476,-2.488,-2.405,-2.2898,-2.1448,-1.9153,-1.7317,-1.5979,-1.438,-1.362,-1.3678,-1.4101,-1.4264,-1.43,-1.4144,0.0,0.0,-1.3372,-1.2827,-1.2229,-1.1054,-1.0107,-0.9204,-0.7399,-0.613,-0.5227,-0.4604,-0.4062,-0.3581,-0.3581,-0.3581,-0.3581,-0.3581,-0.3602,-0.3536,-0.3353,-0.3254,-0.3256,-0.3276,-0.1629,-0.0,-0.0,-0.0,-0.0,-0.0,-0.0,-0.0,-0.0,-0.0,-0.0,-0.0,0.099,0.1846,0.1936,0.3325,0.4317,0.4317,0.4825,0.4923,0.4405,0.3899,0.3581,0.3581,0.352,0.3478,0.3489,0.3999,0.4268,0.4268,0.4304,0.4294,0.4294,0.4181,0.34,0.2009,0.2009,0.2009,0.2009,0.2009,0.1284,1.3103,1.4244,1.5866,1.8678,2.0482,2.2112,2.4137,0.0,2.4292,2.3656,2.2424,2.09,1.9116,1.7477,1.5781,1.3899,1.1864,0.9552,0.6755,0.0,0.0,0.0,0.0,0.0,0.0,0.0,0.0,0.0,0.0,0.0,0.0,-2.4553,-2.4779,-2.4537,-2.3957,-2.2588,-2.039,-1.8591,-1.6698,-1.4755,-1.3819,-1.3328,-1.3367,-1.3883,-1.4277,-1.4602,-1.4825,0.0,0.0,-1.4383,-1.3638,-1.2685,-1.1287,-0.9727,-0.8099,-0.6808,-0.5738,-0.4829,-0.4156,-0.3767,-0.3442,-0.2448,-0.1828,-0.1701,-0.3152,-0.3622,-0.3308,-0.1848,-0.144,-0.1783,-0.3231,-0.183,-0.0,-0.0,-0.0,-0.0,-0.0,-0.0,-0.0,-0.0,-0.0,-0.0,-0.0,0.1621,0.2889,0.2873,0.3862,0.456,0.4423,0.4914,0.5187,0.4957,0.4744,0.446,0.4092,0.4422,0.4742,0.5027,0.5262,0.5492,0.5778,0.5778,0.5773,0.5773,0.5483,0.5035,0.4423,0.3883,0.3558,0.3558,0.3574,0.3249,1.5475,1.6584,1.8129,2.0872,2.2391,2.364,0.0,0.0,2.3979,2.2836,2.1211,1.9397,1.7449,1.5793,1.4214,1.2744,1.0914,0.8992,0.7102,0.4241,0.0,0.0,0.0,0.0,0.0,0.0,0.0,0.0,0.0,0.0,0.0,-2.345,-2.398,-2.4111,-2.3224,-2.1616,-1.9283,-1.744,-1.5569,-1.365,-1.2968,-1.2823,-1.322,-1.3717,-1.4259,-1.485,0.0,0.0,0.0,-1.4482,-1.3537,-1.2397,-1.1202,-0.9493,-0.7522,-0.565,-0.4552,-0.3867,-0.2876,-0.2536,-0.2313,-0.0928,0.0044,0.04,-0.1029,-0.1708,-0.1666,0.0045,0.045,-0.0,-0.1576,-0.099,0.009,0.045,0.0539,0.0539,0.0539,0.0539,0.0539,0.0539,0.0539,0.0539,0.0539,0.2256,0.3667,0.3906,0.4454,0.4907,0.4923,0.5582,0.5995,0.5809,0.5947,0.5685,0.4739,0.5043,0.5439,0.5758,0.5904,0.6117,0.643,0.6518,0.6588,0.6588,0.6298,0.6126,0.6126,0.5425,0.5105,0.5105,0.5132,0.503,1.7502,1.8745,2.0131,2.1693,2.3208,2.4375,2.4741,2.4197,2.3317,2.2328,2.0083,1.7885,1.6411,1.4856,1.3379,1.2003,1.0612,0.919,0.777,0.4978,0.0,0.0,0.0,0.0,0.0,0.0,0.0,0.0,0.0,0.0,0.0,-2.0729,-2.1848,-2.3835,-2.1707,-1.9777,-1.8223,-1.5435,-1.3545,-1.2591,-1.1545,-1.1698,-1.2922,-1.333,-1.3941,0.0,0.0,0.0,0.0,-1.2864,-1.1777,-1.0857,-1.0315,-0.9305,-0.7642,-0.3755,-0.2323,-0.2087,-0.0576,-0.0044,0.0088,0.092,0.1655,0.244,0.329,0.2692,0.1758,0.1758,0.1485,0.126,0.1666,0.0855,0.0315,0.1486,0.1803,0.1803,0.1803,0.1803,0.1803,0.1803,0.1803,0.1803,0.1803,0.2802,0.385,0.4599,0.5016,0.5515,0.6114,0.7167,0.7651,0.7027,0.7504,0.7172,0.5437,0.5303,0.5308,0.5313,0.5727,0.598,0.5985,0.641,0.6588,0.6588,0.6588,0.6588,0.6588,0.6588,0.6588,0.6588,0.6588,0.6303,1.9471,2.0288,2.1569,2.3242,2.4155,2.4855,2.5639,2.4262,2.2334,2.0788,1.8525,1.6344,1.4812,1.3742,1.2831,1.1931,1.1382,1.0418,0.0,0.0,0.0,0.0,0.0,0.0,0.0,0.0,0.0,0.0,0.0,0.0,0.0,-1.8735,-1.986,-2.191,-2.0356,-1.8777,-1.7338,-1.5256,-1.3868,-1.3231,-1.3425,-1.3896,-1.464,-1.5438,0.0,0.0,0.0,0.0,0.0,-1.4312,-1.3185,-1.1665,-0.9872,-0.6445,-0.242,-0.1339,-0.0181,0.0915,0.1395,0.2948,0.4673,0.447,0.4909,0.5477,0.5366,0.4238,0.3046,0.3046,0.2957,0.2865,0.3001,0.2729,0.2549,0.2957,0.3046,0.3046,0.3046,0.3046,0.3046,0.3046,0.3046,0.3046,0.3046,0.378,0.4422,0.4644,0.5382,0.6112,0.6658,0.7412,0.7983,0.8126,0.8326,0.8068,0.7105,0.7063,0.7432,0.8238,0.8449,0.8761,0.9241,0.9402,0.9459,0.9459,0.9459,0.9259,0.881,0.8271,0.7534,0.6588,0.7047,0.7191,2.1004,2.1394,2.2418,2.3723,2.4377,0.0,2.4856,2.3247,2.1162,1.9262,1.7095,1.5266,1.4297,1.3606,1.3034,1.2618,1.2337,1.1612,0.0,0.0,0.0,0.0,0.0,0.0,0.0,0.0,0.0,0.0,0.0,0.0,0.0,0.0,-1.4757,-1.4819,-1.4651,-1.3094,-1.0066,-0.8171,-0.79,-0.917,-1.0363,-1.2075,-1.425,-1.5893,0.0,0.0,0.0,0.0,0.0,-1.5015,-1.2639,-0.9076,-0.6447,-0.304,0.0602,0.2262,0.37,0.4768,0.4453,0.5586,0.716,0.6947,0.7078,0.7245,0.7062,0.6007,0.483,0.483,0.4688,0.4546,0.4546,0.4405,0.4224,0.4224,0.4224,0.4176,0.3947,0.4083,0.4176,0.3947,0.4083,0.4224,0.4224,0.4639,0.4993,0.5251,0.5797,0.6458,0.7258,0.8002,0.8674,0.9202,0.9415,0.9476,0.9304,0.8749,0.8747,0.9483,0.9801,1.0186,1.0638,1.0756,1.0813,1.0813,1.0813,1.061,1.0167,0.9732,0.9044,0.8212,0.8613,0.8703,0.0,2.2197,2.2783,2.3325,2.395,2.41,2.2847,2.1421,0.0,1.7856,1.5885,1.4563,1.4549,1.4143,1.3779,1.3721,1.3273,1.2589,0.0,0.0,0.0,0.0,0.0,0.0,0.0,0.0,0.0,0.0,0.0,0.0,0.0,0.0,-0.723,-0.3718,-0.5239,-0.3757,0.1187,0.3318,0.2175,-0.2212,-0.4003,-0.7459,-1.2336,-1.505,0.0,0.0,0.0,0.0,0.0,-1.4448,-1.0042,-0.3624,-0.0159,0.1532,0.2573,0.6887,0.8755,0.908,0.824,0.7951,0.8108,0.861,0.8455,0.8214,0.8639,0.7903,0.6975,0.6975,0.6586,0.6205,0.6179,0.5798,0.5419,0.5375,0.537,0.5184,0.4578,0.4914,0.5154,0.4578,0.4949,0.537,0.537,0.5375,0.5646,0.621,0.6361,0.6784,0.7898,0.8893,0.9694,1.0253,1.072,1.125,1.1795,1.0379,0.9497,0.9582,1.0268,1.0699,1.0679,1.0934,1.1057,1.1057,1.1007,1.1007,1.1007,1.0956,1.0956,1.0956,1.0931,1.0739,2.2987,0.0,2.3383,2.3163,2.334,2.3337,0.0,2.0566,1.8627,1.7109,1.5322,1.3852,1.343,1.36,1.3637,1.32,1.3362,1.3046,0.0,0.0,0.0,0.0,0.0,0.0,0.0,0.0,0.0,0.0,0.0,0.0,0.0,0.0,-0.1488,0.4997,0.4652,0.3168,0.0716,0.2962,0.1372,-0.4001,-0.567,-0.8661,-1.284,-1.5726,0.0,0.0,0.0,0.0,-0.9652,-0.8025,-0.4396,0.096,0.9515,1.2138,1.1201,1.1743,1.1615,1.112,1.045,1.0616,1.1157,1.1295,1.1256,1.1209,1.1297,0.9545,0.7503,0.7529,0.7426,0.722,0.6803,0.663,0.6441,0.6021,0.5925,0.5743,0.5189,0.5203,0.5257,0.5124,0.5556,0.5925,0.5925,0.6301,0.68,0.7321,0.775,0.8438,0.952,1.0167,1.0771,1.1367,1.1813,1.2095,1.226,1.1608,1.1531,1.2254,1.288,1.3361,1.3668,1.3742,1.3773,1.3773,1.328,1.3022,1.3022,1.2503,1.2252,1.2242,1.2336,1.2335,2.2802,2.3588,2.4307,2.4401,2.4016,2.3345,2.2337,1.9811,1.7322,1.6003,1.4224,1.2899,1.288,1.2959,1.3008,1.29,1.3066,0.0,0.0,0.0,0.0,0.0,0.0,0.0,0.0,0.0,0.0,0.0,0.0,0.0,0.0,0.0,0.3654,1.0146,0.9867,0.9075,0.7993,0.8879,0.6859,0.198,-0.0962,-0.4281,-0.7982,-1.1569,-1.2848,0.0,0.0,0.0,-0.3988,-0.0874,0.2552,0.6526,1.3883,1.6143,1.5135,1.4076,1.3579,1.3334,1.2723,1.2701,1.2922,1.2826,1.2691,1.2604,1.2855,1.1884,1.0648,1.0243,0.983,0.943,0.9114,0.8537,0.7995,0.7665,0.7466,0.7125,0.6554,0.6649,0.6791,0.6482,0.6881,0.7301,0.7311,0.7569,0.7967,0.8464,0.8766,0.9323,1.0409,1.1132,1.1782,1.2351,1.2973,1.3348,1.3342,1.3387,1.3419,1.3422,1.3891,1.4419,1.4975,1.4743,1.4744,1.5061,1.4947,1.4631,1.4183,1.4033,1.3721,1.3169,1.33,1.3346,2.2054,2.3341,2.4673,2.5314,2.4553,2.3276,2.1858,1.8877,1.6019,1.4766,0.0,1.1972,1.2461,1.2186,0.0,0.0,0.0,0.0,0.0,0.0,0.0,0.0,0.0,0.0,0.0,0.0,0.0,0.0,0.0,0.0,0.0,0.0,0.0,1.2965,1.2275,1.3312,1.6478,1.569,1.3428,0.974,0.554,0.1862,-0.1335,-0.5347,-0.6601,0.0,0.0,0.0,0.1589,0.6621,1.0061,1.2482,1.5723,1.6978,1.6764,1.5561,1.5323,1.5552,1.4906,1.4508,1.429,1.4055,1.3802,1.3644,1.411,1.4477,1.4583,1.3804,1.2866,1.2072,1.1932,1.0978,0.9983,0.979,0.935,0.884,0.8196,0.8393,0.8583,0.8139,0.8534,0.8963,0.9046,0.9023,0.9213,0.9697,0.9762,1.0109,1.1112,1.2011,1.2722,1.3251,1.4059,1.4598,1.4602,1.5124,1.5045,1.4161,1.4416,1.4866,1.5541,1.5157,1.5198,1.5886,1.6363,1.6099,1.5052,1.5502,1.5181,1.4089,1.4087,1.4118,2.128,2.1872,2.2352,2.2548,2.2355,2.1535,1.951,1.719,1.5063,1.3829,0.0,1.1713,0.0,1.0761,1.0192,0.0,0.0,0.0,0.0,0.0,0.0,0.0,0.0,0.0,0.0,0.0,0.0,0.0,0.0,0.0,0.0,0.0,1.1182,1.3984,1.3189,1.3539,1.5252,1.4252,1.2376,0.9695,0.6787,0.4158,0.1837,-0.0562,-0.1936,0.0,0.0,0.6547,0.7135,1.4042,1.7303,1.7962,1.8281,1.8538,1.876,1.8485,1.8051,1.7455,1.6674,1.6533,1.6648,1.6375,1.6258,1.6246,1.6316,1.6517,1.6683,1.6307,1.5301,1.4146,1.3405,1.3041,1.2579,1.1501,1.0872,1.0244,0.934,0.8898,0.8793,0.909,0.9591,1.0117,1.0498,1.0546,1.0772,1.136,1.1365,1.1699,1.2643,1.327,1.3828,1.4246,1.4715,1.4993,1.5008,1.5725,1.6084,1.5914,1.5852,1.6127,1.6815,1.6716,1.7032,1.7706,1.7786,1.7461,1.675,1.6792,1.6458,1.5715,1.5278,1.5372,1.988,1.9887,1.9535,1.8376,1.8596,1.8855,1.7728,1.53,1.3199,1.3016,0.0,0.0,0.0,0.0,0.0,0.0,0.0,0.0,0.0,0.0,0.0,0.0,0.0,0.0,0.0,0.0,0.0,0.0,0.0,0.0,0.0,0.0,1.2618,1.4628,1.3712,1.3799,1.4987,1.371,1.2304,1.0802,0.8157,0.65,0.5738,0.3843,0.3804,0.5394,0.0,1.1805,1.3631,1.7552,1.9445,1.9812,1.953,1.9537,1.9706,1.9413,1.882,1.8145,1.7952,1.7569,1.7205,1.7254,1.706,1.6841,1.6978,1.7238,1.7461,1.7502,1.6635,1.5596,1.5088,1.4573,1.3993,1.3245,1.2648,1.2019,1.119,1.085,1.0693,1.0693,1.0908,1.1118,1.1341,1.1553,1.1872,1.2421,1.2697,1.3079,1.3783,1.427,1.4612,1.4805,1.5241,1.5534,1.5725,1.6094,1.6302,1.6302,1.6585,1.6683,1.6498,1.7093,1.7436,1.7458,1.8092,1.7791,1.6543,1.7579,1.7374,1.6101,1.6306,1.6635,1.8175,1.7606,1.6522,1.4295,1.4777,1.5731,1.5322,1.298,1.1056,1.1721,0.0,0.0,0.0,0.0,0.0,0.0,0.0,0.0,0.0,0.0,0.0,0.0,0.0,0.0,0.0,0.0,0.0,0.0,0.0,0.0,0.0,0.0,1.3124,1.4473,1.3619,1.3592,1.4504,1.3266,1.2378,1.1947,0.9894,0.904,0.9226,0.8218,0.9208,1.1761,1.3077,1.5196,1.7783,1.8999,1.9724,2.0109,2.0088,2.0156,2.0195,1.9742,1.9214,1.8736,1.8782,1.8297,1.7701,1.7851,1.7597,1.7263,1.7478,1.7747,1.8038,1.8183,1.7676,1.6997,1.6636,1.6023,1.5355,1.4851,1.427,1.3633,1.2999,1.2605,1.2351,1.2132,1.2033,1.2023,1.2244,1.256,1.2908,1.3367,1.3729,1.4113,1.4593,1.4909,1.5124,1.5256,1.5593,1.6,1.6452,1.6597,1.6642,1.6725,1.7054,1.7016,1.6468,1.7258,1.7702,1.7615,1.8519,1.8278,1.6875,1.8311,1.8139,1.6492,1.7106,1.7589,1.6291,1.5059,1.3485,1.1354,1.1622,1.2212,1.1216,0.9872,0.8977,0.9507,0.0,0.0,0.0,0.0,0.0,0.0,0.0,0.0,0.0,0.0,0.0,0.0,0.0,0.0,0.0,0.0,0.0,0.0,0.0,0.0,0.0,0.0,0.0,1.3134,1.2456,1.243,1.3134,1.2413,1.2202,1.2437,1.2271,1.1949,1.1583,1.2773,1.3354,1.3513,1.5227,1.628,1.6905,1.8475,1.9156,1.9277,2.005,2.0379,2.0348,1.9921,1.9852,1.9869,1.9066,1.8904,1.9006,1.8643,1.8508,1.8471,1.8491,1.8698,1.8861,1.8623,1.868,1.8626,1.7812,1.7552,1.7255,1.6295,1.5417,1.4688,1.4252,1.3214,1.2516,1.2918,1.2692,1.2736,1.3603,1.3783,1.3927,1.4352,1.4428,1.4602,1.4994,1.5081,1.5256,1.571,1.5784,1.6165,1.706,1.7422,1.7714,1.7959,1.7485,1.7333,1.764,1.7763,1.8375,1.964,1.9766,1.9594,1.9166,1.9288,1.8738,1.759,1.7647,1.8022,1.5571,1.4335,1.267,0.9598,0.8376,0.8148,0.8538,0.7706,0.7175,0.8328,0.8296,0.0,0.0,0.0,0.0,0.0,0.0,0.0,0.0,0.0,0.0,0.0,0.0,0.0,0.0,0.0,0.0,0.0,0.0,0.0,0.0,0.0,0.0,1.3002,1.251,1.2341,1.257,1.2341,1.2312,1.2496,1.2175,1.2083,1.2246,1.3042,1.3918,1.4845,1.5786,1.6881,1.8049,1.8657,1.9221,1.9696,2.0162,2.0357,2.0371,2.0228,2.0143,2.0052,1.9635,1.9346,1.917,1.893,1.9073,1.9388,1.9541,1.9669,1.974,1.9775,1.9481,1.9031,1.8415,1.8263,1.8082,1.73,1.6886,1.6441,1.5645,1.524,1.4872,1.4398,1.434,1.4353,1.428,1.4468,1.4706,1.4848,1.5124,1.5372,1.5519,1.5534,1.5593,1.5784,1.6168,1.6709,1.7445,1.7964,1.8287,1.8398,1.8001,1.7721,1.7676,1.7518,1.7897,1.8893,1.9142,1.9236,1.916,1.9988,1.9844,1.8757,1.9155,1.9322,1.4905,1.3497,1.1752,0.8777,0.6509,0.542,0.6656,0.6108,0.5688,0.716,0.7333,0.6884,0.5994,0.0,0.0,0.0,0.0,0.0,0.0,0.0,0.0,0.0,0.0,0.0,0.0,0.0,0.0,0.0,0.0,0.0,0.0,0.0,0.0,0.0,1.2237,1.2087,1.1862,1.1898,1.2053,1.2282,1.1722,1.1985,1.2953,1.3369,1.4349,1.5743,1.6204,1.7249,1.8628,1.8752,1.9239,1.9963,2.0159,2.0266,2.0304,2.0389,2.0297,2.0134,2.0018,1.9749,1.9425,1.9298,1.9477,1.9776,2.0016,2.0032,2.0051,2.0221,1.9882,1.9383,1.9066,1.8861,1.86,1.809,1.7845,1.7509,1.6823,1.6463,1.6148,1.5599,1.5515,1.5389,1.5059,1.5219,1.5387,1.5329,1.5593,1.5799,1.5799,1.5799,1.5857,1.5946,1.6635,1.7316,1.785,1.8449,1.884,1.8965,1.8752,1.8413,1.7933,1.7724,1.7992,1.8718,1.901,1.93,1.9596,2.0505,2.0604,1.9907,2.0346,2.0364,1.4222,1.2375,1.0588,0.8807,0.6306,0.4496,0.5552,0.4977,0.4569,0.601,0.5847,0.5377,0.5159,0.0,0.0,0.0,0.0,0.0,0.0,0.0,0.0,0.0,0.0,0.0,0.0,0.0,0.0,0.0,0.0,0.0,0.0,0.0,0.0,0.0,1.141,1.1443,1.0909,1.0909,1.12,1.1774,1.1188,1.1949,1.3901,1.431,1.5122,1.6219,1.6628,1.7351,1.8249,1.8646,1.9203,1.9824,2.0028,2.0092,2.0118,2.033,2.0365,2.0282,2.0147,2.0065,1.9993,1.9847,1.972,1.9641,1.9762,1.972,1.9655,1.9762,1.9813,1.98,1.98,1.9407,1.8939,1.8654,1.8155,1.7704,1.7721,1.6625,1.5833,1.6505,1.6009,1.5637,1.605,1.6094,1.602,1.5814,1.5799,1.5814,1.5814,1.5814,1.5931,1.6271,1.7149,1.7884,1.8263,1.8861,1.9375,1.977,1.9807,1.943,1.8642,1.8608,1.8943,1.9699,1.9697,2.0117,2.0911,2.0911,2.0953,2.1023,2.1023,2.1023,1.3497,1.2794,1.2012,0.9019,0.0,0.0,0.0,0.5045,0.0,0.0,0.5862,0.5802,0.5864,0.0,0.0,0.0,0.0,0.0,0.0,0.0,0.0,0.0,0.0,0.0,0.0,0.0,0.0,0.0,0.0,0.0,0.0,0.0,0.0,0.0,1.1652,1.1346,1.0432,1.0754,1.083,1.0685,1.083,1.1608,1.2941,1.3912,1.4857,1.5783,1.6922,1.7842,1.8529,1.9225,1.9752,2.0162,2.0222,2.0246,2.0242,2.0314,2.035,2.0343,2.0158,2.0101,2.0037,1.985,2.0169,2.0584,2.0634,2.0609,2.0577,2.0618,2.0231,1.9812,1.981,1.969,1.946,1.9107,1.8895,1.868,1.8383,1.8042,1.7854,1.811,1.7388,1.6809,1.6997,1.6377,1.5872,1.5814,1.6005,1.6243,1.6466,1.6675,1.6905,1.7248,1.7696,1.8249,1.8878,1.91,1.9362,1.9763,1.9801,1.9698,1.9457,1.9261,1.9512,2.025,2.0678,2.1258,2.2031,2.1931,2.2048,2.2332,2.1615,2.1395,1.3134,1.2656,0.0,0.9215,0.8279,0.7728,0.6572,0.0,0.0,0.0,0.0,0.6621,0.0,0.0,0.0,0.0,0.0,0.0,0.0,0.0,0.0,0.0,0.0,0.0,0.0,0.0,0.0,0.0,0.0,0.0,0.0,0.0,0.0,0.0,1.1157,1.075,0.9948,1.0012,0.9895,0.96,1.0089,1.0891,1.1911,1.3413,1.4722,1.5839,1.7042,1.7827,1.8288,1.8888,1.923,1.9465,1.9867,2.005,2.0107,2.0195,2.0274,2.0345,2.0254,2.0199,2.0167,2.0078,2.0333,2.0684,2.0741,2.0732,2.0689,2.0713,2.0369,2.0009,1.9988,2.0001,1.9895,1.9532,1.9323,1.9146,1.8962,1.8665,1.8541,1.8801,1.8217,1.7626,1.756,1.7014,1.651,1.6243,1.6464,1.6739,1.6918,1.7305,1.7617,1.785,1.827,1.8734,1.924,1.9452,1.9673,1.9969,2.0007,2.0035,2.0049,1.972,1.9771,2.0219,2.0569,2.1081,2.1726,2.1624,2.1803,2.226,2.1967,2.1948,1.2936,1.214,1.1259,0.9608,0.8446,0.0,0.7263,0.7279,0.7257,0.7174,0.0,0.0,0.0,0.0,0.0,0.0,0.0,0.0,0.0,0.0,0.0,0.0,0.0,0.0,0.0,0.0,0.0,0.0,0.0,0.0,0.0,0.0,0.0,0.0,1.0118,0.9836,0.935,0.8829,0.8586,0.0,0.9151,0.9943,1.1036,1.2964,1.4738,1.6354,1.7144,1.7594,1.7801,1.8111,1.8235,1.8351,1.9258,1.9707,1.9847,2.002,2.018,2.0313,2.0363,2.0348,2.0314,2.0379,2.0318,2.0227,2.0349,2.0307,2.0218,2.0282,2.0312,2.0312,2.0312,2.0312,2.0227,1.9911,1.9556,1.9306,1.9412,1.8794,1.8358,1.892,1.8577,1.8143,1.7928,1.7824,1.7581,1.7008,1.7117,1.7278,1.7316,1.7842,1.8188,1.8193,1.8822,1.9301,1.9446,1.9855,2.0165,2.028,2.0366,2.0408,2.0408,2.0054,1.9854,1.9849,1.9936,2.0176,2.0602,2.0588,2.0874,2.1418,2.2061,2.2446,1.2049,1.1976,0.0,1.0426,0.9311,0.8452,0.8321,0.8626,0.8783,0.794,0.0,0.0,0.0,0.0,0.0,0.0,0.0,0.0,0.0,0.0,0.0,0.0,0.0,0.0,0.0,0.0,0.0,0.0,0.0,0.0,0.0,0.0,0.0,1.0234,0.9451,0.8763,0.8164,0.7653,0.757,0.0,0.8496,0.9666,1.1511,1.3233,1.517,1.7179,1.7995,1.8317,1.8294,1.8989,1.9343,1.945,1.9675,1.9836,1.9954,2.0012,2.0137,2.0302,2.0329,2.0302,2.0305,2.0327,2.0297,2.0278,2.0317,2.0342,2.0371,2.0361,2.0389,2.0369,2.0312,2.0312,2.0285,2.0208,2.0018,1.9817,1.9726,1.9326,1.9163,1.9861,1.8985,1.8205,1.8528,1.8017,1.7622,1.7802,1.7685,1.7744,1.8234,1.8604,1.8848,1.895,1.9289,1.9606,1.985,2.0016,2.016,2.0293,2.0369,2.0408,2.0408,2.0331,2.0277,2.0263,2.0943,2.1309,2.135,2.1311,2.1606,2.2236,2.167,2.2074,1.1229,1.1432,0.0,1.0815,0.0,0.8832,0.9136,0.9321,0.932,0.0,0.0,0.0,0.0,0.0,0.0,0.0,0.0,0.0,0.0,0.0,0.0,0.0,0.0,0.0,0.0,0.0,0.0,0.0,0.0,0.0,0.0,1.091,1.0015,0.9681,0.8528,0.7743,0.7432,0.6868,0.6868,0.7432,0.8646,1.0761,1.3633,1.4761,1.6192,1.7843,1.8161,1.8352,1.8429,1.8845,1.9013,1.9013,1.9404,1.9657,1.9802,1.9802,1.9962,2.0159,2.0192,2.0253,2.0303,2.0344,2.036,2.0348,2.0348,2.0388,2.0441,2.0418,2.0422,2.0422,2.0363,2.0346,2.035,2.0312,2.015,2.0007,2.0017,1.9745,1.9554,1.9829,1.9199,1.8638,1.8693,1.8316,1.8106,1.8312,1.8339,1.8431,1.8742,1.9091,1.9323,1.9378,1.963,1.9852,2.003,2.0169,2.0266,2.0332,2.0416,2.0422,2.0402,2.0795,2.0834,2.0402,2.0856,2.1055,2.1035,2.0985,2.1159,2.1501,2.1844,2.2456,1.0629,1.1022,1.1394,1.0997,0.9973,0.0,0.9967,0.9802,0.9648,0.0,0.0,0.0,0.0,0.0,0.0,0.0,0.0,0.0,0.0,0.0,0.0,0.0,0.0,0.0,0.0,0.0,0.0,0.0,0.0,0.0,1.1991,1.0622,0.952,0.8814,0.7588,0.6787,0.6567,0.6209,0.641,0.7169,0.963,1.2717,1.6146,1.6678,1.739,1.8253,1.8246,1.8331,1.8429,1.8553,1.8525,1.8415,1.9047,1.9409,1.9596,1.9623,1.9797,2.0003,2.0099,2.0208,2.0312,2.0369,2.0485,2.0573,2.0443,2.0539,2.0657,2.0468,2.0449,2.0488,2.0391,2.0391,2.0408,2.0331,2.0188,2.0111,2.0265,2.0054,1.9763,1.9561,1.9324,1.9127,1.8965,1.8752,1.8726,1.909,1.9165,1.9271,1.9485,1.981,2.0033,2.0108,2.02,2.0265,2.035,2.0371,2.0395,2.041,2.0445,2.0459,2.0401,2.1105,2.1221,2.065,2.0788,2.0786,2.0649,2.0787,2.0773,2.0666,2.2258,2.3081,1.0575,0.0,1.1764,0.0,1.1201,1.1009,0.0,0.0,0.0,0.0,0.0,0.0,0.0,0.0,0.0,0.0,0.0,0.0,0.0,0.0,0.0,0.0,0.0,0.0,0.0,0.0,0.0,0.0,0.0,0.0,1.1369,0.975,0.8489,0.7657,0.7007,0.603,0.4778,0.5216,0.6156,0.7684,1.2119,1.5371,1.747,1.8235,1.839,1.8075,1.8874,1.8964,1.8617,1.9195,1.9415,1.9393,1.9328,1.9409,1.9609,1.9726,1.9869,2.0031,2.0214,2.0292,2.0312,2.0312,2.0823,2.1304,2.0612,2.0918,2.1377,2.0617,2.0449,2.0469,2.0352,2.0391,2.0465,2.0331,2.0331,2.035,2.0312,2.0131,1.9953,1.9933,1.9532,1.9415,2.0132,1.9341,1.924,2.1078,2.0615,2.0421,2.1458,2.1655,2.1816,2.2153,2.1609,2.1259,2.1402,2.0791,2.0407,2.0391,2.0413,2.0404,2.0404,2.0565,2.0962,2.1603,2.2352,2.2362,2.162,2.2379,2.2321,2.1542,2.2536,2.3364,1.0561,1.0907,1.1182,0.0,1.1303,1.1149,1.1022,0.0,0.0,0.0,0.0,0.0,0.0,0.0,0.0,0.0,0.0,0.0,0.0,0.0,0.0,0.0,0.0,0.0,0.0,0.0,0.0,0.0,0.0,1.2054,1.1017,0.977,0.8528,0.7285,0.6584,0.5657,0.4391,0.5365,0.7532,1.0866,1.421,1.6709,1.8393,1.9041,1.921,1.8977,1.951,1.9549,1.93,1.9587,1.9604,1.9409,1.9335,1.935,1.9438,1.9504,1.9682,1.9901,2.0001,2.0144,2.0312,2.0312,2.0861,2.1477,2.1116,2.1317,2.1555,2.1182,2.0763,2.0437,2.0368,2.0409,2.0429,2.0372,2.0377,2.0389,2.0369,2.0265,2.0131,2.0007,2.0137,2.0388,2.0766,2.0758,2.0982,2.1953,2.1285,2.0896,2.1423,2.1171,2.118,2.1866,2.1271,2.1051,2.1609,2.1339,2.1105,2.1064,2.1527,2.1775,2.1756,2.2246,2.2714,2.3141,2.2643,2.2422,2.2539,2.2871,2.2832,2.2441,2.3281,2.3865,1.0744,0.0,1.0793,1.1238,1.1114,1.0882,0.0,0.0,0.0,0.0,0.0,0.0,0.0,0.0,0.0,0.0,0.0,0.0,0.0,0.0,0.0,0.0,0.0,0.0,0.0,0.0,0.0,0.0,0.0,1.1846,1.0864,0.9834,0.8615,0.7249,0.6651,0.5869,0.4844,0.6643,0.962,1.3757,1.5943,1.7762,1.9217,1.9669,1.9869,1.9859,2.0012,1.9992,1.9873,1.9821,1.9619,1.9365,1.932,1.9305,1.9305,1.935,1.9532,1.9762,1.9824,2.0002,2.0233,2.0285,2.085,2.1504,2.152,2.1694,2.1897,2.1902,2.1336,2.0694,2.0675,2.0541,2.0404,2.0386,2.0408,2.0488,2.067,2.0485,2.0312,2.0331,2.0758,2.1207,2.1386,2.19,2.2444,2.2863,2.2247,2.1815,2.2101,2.1708,2.1577,2.2057,2.1497,2.1244,2.1679,2.1711,2.1687,2.1617,2.2425,2.2866,2.2808,2.3441,2.3916,2.4197,2.2994,2.2706,2.3371,2.3547,2.3528,2.3313,2.4132,2.4496,0.0,1.1164,0.0,1.1106,1.0863,0.0,0.0,0.0,0.0,0.0,0.0,0.0,0.0,0.0,0.0,0.0,0.0,0.0,0.0,0.0,0.0,0.0,0.0,0.0,0.0,0.0,0.0,0.0,0.0,1.0864,1.0813,0.9547,0.843,0.7526,0.7464,0.6978,0.6128,0.9325,1.2267,1.4928,1.722,1.8917,2.0036,2.0267,2.0318,2.0266,2.028,2.0201,2.0066,1.9873,1.9713,1.9555,1.9365,1.9305,1.932,1.9513,1.9601,1.9649,1.9912,2.0012,2.006,2.0241,2.085,2.1504,2.1573,2.2133,2.2738,2.2739,2.215,2.1525,2.1463,2.092,2.0377,2.0315,2.0409,2.0687,2.1397,2.0885,2.0485,2.1105,2.1262,2.1489,2.2134,2.2267,2.2842,2.4427,2.3985,2.3832,2.4866,2.4957,2.4709,2.4116,2.3397,2.2617,2.1777,2.1755,2.174,2.1608,2.2412,2.2873,2.2796,2.2892,2.3343,2.4178,2.4063,2.4034,2.4139,2.4966,2.4947,2.4159,2.4947,2.5332,0.0,0.0,0.0,1.0912,1.077,1.0625,0.0,0.0,0.0,0.0,0.0,0.0,0.0,0.0,0.0,0.0,0.0,0.0,0.0,0.0,0.0,0.0,0.0,0.0,0.0,0.0,0.0,0.0,0.0,0.0,1.0864,0.9909,0.8851,0.7544,0.7598,0.8101,0.9159,1.2099,1.4932,1.7583,1.9826,2.0954,2.1061,2.1236,2.1249,2.1206,2.1208,2.1005,2.063,2.0028,1.9937,2.0172,2.0094,1.9748,1.9378,1.9954,2.0331,2.0571,2.0672,2.0823,2.0973,2.1045,2.1273,2.162,2.2186,2.2565,2.2911,2.3486,2.3025,2.2363,2.2334,2.1718,2.0982,2.0485,2.0395,2.0663,2.1535,2.1455,2.1252,2.1443,2.2408,2.3229,2.342,2.3919,2.4495,2.5091,2.4542,2.419,2.4573,2.3676,2.3359,2.4238,2.3125,2.2617,2.3301,2.3354,2.3302,2.3221,2.3976,2.4438,2.4408,2.4438,2.4534,2.4706,2.4687,2.4706,2.4774,2.5053,2.4966,2.4591,2.4889,2.5005,1.2026,0.0,0.0,0.0,0.0,1.0884,0.0,0.0,0.0,0.0,0.0,0.0,0.0,0.0,0.0,0.0,0.0,0.0,0.0,0.0,0.0,0.0,0.0,0.0,0.0,0.0,0.0,0.0,0.0,0.0,1.1216,1.0517,0.965,0.8622,0.8896,1.0057,1.2108,1.4595,1.7091,1.9614,2.1527,2.2321,2.2107,2.2207,2.2211,2.217,2.2153,2.1895,2.1463,2.0872,2.077,2.0941,2.0941,2.0611,2.0189,2.0739,2.1115,2.1357,2.1457,2.1612,2.179,2.1902,2.1947,2.21,2.2975,2.3199,2.3339,2.4245,2.364,2.2777,2.3129,2.2384,2.1336,2.0589,2.0648,2.0975,2.1323,2.1559,2.1765,2.2011,2.3236,2.4214,2.4169,2.487,2.5446,2.5453,2.5047,2.4746,2.4766,2.3809,2.3437,2.4277,2.3379,2.3008,2.3769,2.4058,2.4159,2.4105,2.4888,2.5322,2.5303,2.5245,2.5149,2.5005,2.4953,2.493,2.4911,2.493,2.4892,2.4803,2.4803,2.4803,0.0,0.0,0.0,0.0,0.0,0.0,0.0,0.0,0.0,0.0,0.0,0.0,0.0,0.0,0.0,0.0,0.0,0.0,0.0,0.0,0.0,0.0,0.0,0.0,0.0,0.0,0.0,0.0,0.0,1.258,1.1864,1.1166,1.0813,1.0813,1.1414,1.2746,1.4851,1.675,1.878,2.0912,2.2178,2.2912,2.3138,2.3134,2.314,2.3128,2.3067,2.2863,2.2561,2.238,2.2114,2.1839,2.1839,2.1821,2.1803,2.1839,2.1839,2.1889,2.222,2.2324,2.2388,2.27,2.2803,2.2938,2.3793,2.3924,2.4003,2.4945,2.3938,2.2805,2.3794,2.2851,2.1421,2.0585,2.1083,2.1533,2.0772,2.1181,2.1953,2.2793,2.3689,2.4293,2.4293,2.4976,2.5522,2.5582,2.5605,2.5625,2.5684,2.5684,2.5312,2.4434,2.4316,2.3945,2.3046,2.376,2.4216,2.414,2.4928,2.537,2.5303,2.5111,2.5005,2.4985,2.4851,2.4688,2.4485,2.4688,2.48,2.4781,2.4781,2.4781,1.3623,0.0,0.0,0.0,0.0,0.0,0.0,0.0,0.0,0.0,0.0,0.0,0.0,0.0,0.0,0.0,0.0,0.0,0.0,0.0,0.0,0.0,0.0,0.0,0.0,0.0,0.0,0.0,1.5028,1.4125,1.2628,1.1458,1.1007,1.1423,1.2795,1.4576,1.6811,1.9239,2.1343,2.313,2.4208,2.4466,2.397,2.3969,2.3996,2.4044,2.3975,2.4056,2.4148,2.2846,2.2436,2.2666,2.2666,2.2299,2.1876,2.2446,2.2754,2.2885,2.2977,2.3078,2.3186,2.3278,2.2886,2.2419,2.2721,2.317,2.3517,2.3214,2.3637,2.3976,2.316,2.2707,2.2119,2.0675,2.0521,2.0672,2.0495,2.1064,2.1738,2.207,2.3311,2.4286,2.4244,2.4988,2.5588,2.5605,2.5644,2.5684,2.5703,2.5117,2.4824,2.5195,2.4631,2.4353,2.4689,2.4934,2.5043,2.4966,2.5187,2.5322,2.5303,2.5111,2.4953,2.4877,2.4432,2.4135,2.3913,2.4374,2.4504,2.4374,2.4374,2.4374,0.0,0.0,0.0,0.0,0.0,0.0,1.2016,1.2244,0.0,0.0,0.0,0.0,0.0,0.0,0.0,0.0,0.0,0.0,0.0,0.0,0.0,0.0,0.0,0.0,0.0,0.0,0.0,1.5644,1.5588,1.5028,1.3679,1.286,1.2676,1.3246,1.4696,1.6507,1.8803,2.0911,2.2797,2.4467,2.5163,2.5265,2.483,2.481,2.4846,2.4934,2.4875,2.4865,2.4816,2.3785,2.3414,2.3511,2.3511,2.3217,2.285,2.3327,2.3566,2.3688,2.3768,2.3621,2.3435,2.3479,2.3149,2.2703,2.2401,2.3056,2.3769,2.3012,2.3764,2.4441,2.2898,2.2611,2.2402,2.113,2.0864,2.0795,2.048,2.1044,2.1667,2.1737,2.2832,2.375,2.373,2.4492,2.5098,2.5098,2.543,2.5664,2.5664,2.5156,2.4976,2.5469,2.5035,2.4889,2.5322,2.537,2.5303,2.5187,2.5168,2.5149,2.5091,2.4908,2.4683,2.4468,2.4079,2.3751,2.3494,2.3806,2.3895,2.3785,2.3785,2.3785,0.0,0.0,0.0,0.0,0.0,0.0,1.2921,1.3443,1.3897,0.0,0.0,0.0,0.0,0.0,0.0,0.0,0.0,0.0,0.0,0.0,0.0,0.0,0.0,0.0,0.0,1.733,1.6843,1.5768,1.5632,1.541,1.4926,1.4835,1.5106,1.5731,1.6803,1.8483,2.0689,2.2099,2.3573,2.512,2.537,2.5524,2.5592,2.5538,2.5567,2.5703,2.5623,2.5332,2.4899,2.4823,2.4557,2.419,2.419,2.419,2.419,2.419,2.4208,2.4246,2.4442,2.4048,2.3456,2.349,2.3509,2.3325,2.2432,2.3187,2.4248,2.3712,2.4084,2.432,2.2974,2.2595,2.2411,2.1748,2.1575,2.1336,2.057,2.1001,2.1533,2.1548,2.2321,2.3024,2.3082,2.3886,2.4512,2.4512,2.5137,2.5586,2.5582,2.5522,2.5464,2.5418,2.539,2.537,2.5264,2.5264,2.5187,2.4985,2.4973,2.4922,2.4796,2.4624,2.4344,2.4006,2.3722,2.3445,2.3102,2.3168,2.3202,2.3202,2.3202,2.3202,0.0,0.0,0.0,0.0,0.0,0.0,1.2955,1.3026,1.3192,0.0,0.0,0.0,0.0,0.0,0.0,0.0,0.0,0.0,0.0,0.0,0.0,0.0,0.0,0.0,0.0,1.6916,1.6536,1.6331,1.5864,1.5752,1.6046,1.5616,1.5967,1.7303,1.8586,2.0176,2.2013,2.3371,2.446,2.5274,2.537,2.5447,2.5515,2.5518,2.5567,2.5703,2.5632,2.5327,2.4899,2.4823,2.4557,2.419,2.419,2.419,2.419,2.419,2.4301,2.4448,2.4487,2.4487,2.4395,2.3725,2.35,2.3224,2.1712,2.2277,2.3526,2.3948,2.3842,2.3546,2.3362,2.2922,2.2345,2.1674,2.102,2.0523,2.0369,2.0446,2.0573,2.0566,2.1901,2.3005,2.3024,2.4283,2.5293,2.5293,2.543,2.5512,2.5529,2.5464,2.5412,2.5399,2.5341,2.5245,2.5072,2.5072,2.5005,2.4851,2.4846,2.4833,2.4814,2.4611,2.4338,2.4005,2.3265,2.276,2.2474,2.2968,2.3215,2.3215,2.3215,2.3215,0.0,0.0,0.0,1.3975,0.0,0.0,0.0,1.3648,1.3807,0.0,0.0,0.0,0.0,0.0,0.0,0.0,0.0,0.0,0.0,0.0,0.0,0.0,0.0,0.0,0.0,1.7881,1.7488,1.7011,1.6398,1.6299,1.6828,1.6549,1.7085,1.8639,1.9526,2.0831,2.264,2.3658,2.4502,2.5152,2.5321,2.5428,2.5457,2.548,2.5548,2.5644,2.5601,2.5337,2.4891,2.4825,2.4557,2.4209,2.4321,2.441,2.4495,2.4495,2.4568,2.4642,2.4642,2.4439,2.4139,2.3729,2.3607,2.3374,2.2125,2.2511,2.3529,2.4209,2.4226,2.3969,2.36,2.3003,2.2336,2.1655,2.1182,2.0781,2.0389,2.057,2.0781,2.0762,2.1853,2.2689,2.2361,2.3708,2.4842,2.4842,2.5192,2.5453,2.5457,2.539,2.5303,2.5207,2.5168,2.5091,2.4908,2.4898,2.4827,2.4662,2.4649,2.4615,2.4504,2.4226,2.3858,2.3354,2.2806,2.244,2.231,2.2587,2.2762,2.2762,2.2762,2.2762,0.0,0.0,0.0,0.0,0.0,1.4052,0.0,0.0,0.0,1.5112,0.0,0.0,0.0,0.0,0.0,0.0,0.0,0.0,0.0,0.0,0.0,0.0,0.0,0.0,0.0,1.8932,1.8407,1.7302,1.6892,1.688,1.7284,1.7312,1.7946,1.9411,1.9917,2.0951,2.2621,2.3358,2.4108,2.4873,2.5126,2.5301,2.5351,2.5459,2.5546,2.5605,2.5589,2.5313,2.4873,2.482,2.4605,2.4339,2.4444,2.4591,2.4746,2.4799,2.4818,2.4856,2.4855,2.4474,2.3957,2.386,2.3696,2.345,2.2928,2.3195,2.3789,2.4449,2.4726,2.4648,2.3966,2.3256,2.2622,2.2114,2.1872,2.1556,2.0881,2.1147,2.1493,2.1416,2.2135,2.2603,2.2106,2.3323,2.4351,2.4351,2.4889,2.5284,2.5284,2.5245,2.5149,2.4985,2.4949,2.4901,2.4748,2.4743,2.467,2.4448,2.4448,2.4374,2.4208,2.3808,2.3318,2.2711,2.244,2.231,2.231,2.231,2.231,2.231,2.231,2.231,0.0,0.0,0.0,0.0,1.4841,0.0,0.0,0.0,1.5266,1.4831,0.0,0.0,0.0,0.0,0.0,0.0,0.0,0.0,0.0,0.0,0.0,0.0,0.0,0.0,0.0,0.0,1.778,1.6606,1.7016,1.7301,1.7297,1.7312,1.78,1.8867,1.9652,2.0575,2.1742,2.2599,2.3476,2.4388,2.4591,2.4885,2.5226,2.5418,2.5542,2.5597,2.5538,2.5245,2.481,2.4787,2.4779,2.4716,2.4559,2.4512,2.4559,2.4733,2.4907,2.5069,2.508,2.5156,2.5171,2.4454,2.3663,2.3086,2.3592,2.3792,2.3985,2.4625,2.4784,2.4796,2.4815,2.4245,2.3678,2.379,2.3215,2.2585,2.2307,2.2303,2.2306,2.2106,2.2813,2.3417,2.3528,2.4312,2.4908,2.4908,2.4889,2.487,2.487,2.487,2.4851,2.4832,2.4817,2.4727,2.4542,2.4524,2.4448,2.4245,2.4226,2.4208,2.419,2.3601,2.3076,2.27,2.244,2.231,2.231,2.231,2.231,2.231,2.231,2.231,0.0,0.0,0.0,0.0,0.0,0.0,0.0,0.0,1.6174,0.0,0.0,0.0,0.0,0.0,0.0,0.0,0.0,0.0,0.0,0.0,0.0,0.0,0.0,0.0,0.0,0.0,0.0,0.0,0.0,1.7377,1.7297,1.6954,1.7206,1.8208,1.8196,1.8794,2.0067,2.085,2.1925,2.3333,2.3925,2.4511,2.5083,2.5339,2.5464,2.5484,2.533,2.5087,2.4778,2.4663,2.4652,2.4683,2.4676,2.4802,2.4968,2.5057,2.5164,2.5283,2.5321,2.5441,2.5492,2.5158,2.4768,2.4469,2.4748,2.484,2.4861,2.4982,2.5097,2.5024,2.4495,2.4168,2.3869,2.3447,2.3447,2.3399,2.2796,2.2974,2.3188,2.299,2.3254,2.364,2.4123,2.4581,2.4881,2.4888,2.4832,2.4794,2.4794,2.4794,2.4757,2.4629,2.4632,2.454,2.4337,2.4337,2.4301,2.4208,2.4024,2.3821,2.3637,2.3175,2.2779,2.2474,2.2361,2.231,2.231,2.231,2.231,2.231,2.231,2.231,1.0979,0.0,0.0,0.0,0.0,0.0,0.0,0.0,0.0,0.0,0.0,0.0,0.0,0.0,0.0,0.0,0.0,0.0,0.0,0.0,0.0,0.0,0.0,0.0,0.0,0.0,0.0,1.8254,1.784,1.7428,1.7025,1.6598,1.6597,1.7107,1.6818,1.725,1.8491,1.9357,2.0668,2.24,2.3378,2.4245,2.496,2.5262,2.5398,2.5383,2.5195,2.4993,2.4804,2.4629,2.4608,2.4672,2.4832,2.5076,2.5346,2.5351,2.5409,2.5457,2.5498,2.5564,2.5629,2.5609,2.5543,2.5505,2.5505,2.5493,2.5466,2.5311,2.534,2.526,2.4514,2.437,2.4274,2.364,2.3976,2.4236,2.3554,2.3769,2.4013,2.381,2.3713,2.3858,2.4337,2.4576,2.4714,2.4709,2.467,2.4652,2.4652,2.4652,2.4577,2.443,2.4411,2.4356,2.4208,2.419,2.419,2.419,2.3895,2.3537,2.3207,2.2877,2.257,2.231,2.231,2.231,2.231,2.231,2.231,2.231,2.231,2.231,0.0,0.0,0.0,1.4175,0.0,0.0,0.0,0.0,1.7225,0.0,0.0,0.0,0.0,0.0,0.0,1.8989,0.0,0.0,0.0,0.0,0.0,0.0,0.0,0.0,0.0,0.0,0.0,1.8279,1.8191,1.7634,1.6385,1.6303,1.6045,1.5381,1.5881,1.647,1.7142,1.8578,2.0144,2.1834,2.3153,2.4161,2.4829,2.5212,2.539,2.538,2.5194,2.4991,2.479,2.479,2.4791,2.4813,2.5007,2.5255,2.5488,2.55,2.5543,2.5582,2.5592,2.5638,2.5681,2.5623,2.5543,2.5505,2.5505,2.5495,2.5506,2.5494,2.5483,2.5471,2.5369,2.5303,2.5245,2.5226,2.5245,2.5207,2.4985,2.4841,2.4706,2.4504,2.4309,2.4171,2.4208,2.4394,2.4523,2.4504,2.4337,2.4208,2.4208,2.4208,2.4208,2.4208,2.4208,2.4208,2.419,2.419,2.419,2.419,2.3895,2.3552,2.3213,2.2875,2.257,2.231,2.231,2.231,2.231,2.231,2.231,2.231,2.231,2.231,0.0,0.0,1.2911,1.3775,0.0,0.0,0.0,0.0,0.0,0.0,0.0,0.0,0.0,0.0,1.9352,1.9482,1.9817,0.0,0.0,0.0,0.0,0.0,0.0,0.0,0.0,0.0,0.0,1.7739,1.7245,1.6539,0.0,1.52,1.4814,1.4317,1.4744,1.5436,1.6438,1.7665,1.9325,2.1354,2.261,2.3748,2.4804,2.5018,2.5212,2.5312,2.5032,2.4865,2.479,2.4654,2.4711,2.4888,2.508,2.5363,2.5625,2.5531,2.5542,2.561,2.5649,2.565,2.5624,2.5618,2.5552,2.5505,2.5495,2.5524,2.5562,2.5575,2.5522,2.5496,2.5474,2.539,2.5303,2.5303,2.5303,2.5284,2.5207,2.5072,2.4881,2.4738,2.4541,2.4356,2.4208,2.4245,2.4301,2.4301,2.4226,2.419,2.419,2.419,2.419,2.419,2.419,2.419,2.419,2.419,2.419,2.419,2.3895,2.3642,2.3549,2.3005,2.2666,2.257,2.2378,2.231,2.231,2.231,2.231,2.231,2.231,2.231,1.0998,1.1968,0.0,1.3655,1.4464,0.0,1.5672,0.0,0.0,0.0,0.0,0.0,0.0,0.0,0.0,1.993,2.0183,2.0184,0.0,1.9765,0.0,0.0,0.0,0.0,0.0,0.0,1.8568,1.7463,1.6995,1.6255,0.0,0.0,1.4512,1.4288,1.4533,1.5219,1.6496,1.7544,1.904,2.0991,2.2407,2.3648,2.4625,2.4879,2.5111,2.5274,2.5,2.4864,2.485,2.4723,2.4817,2.5031,2.5226,2.5444,2.5641,2.5564,2.5551,2.5607,2.5655,2.5644,2.5644,2.5644,2.5597,2.5535,2.5535,2.5561,2.5601,2.5601,2.5574,2.5535,2.5511,2.5428,2.5322,2.5303,2.5303,2.5303,2.5303,2.5111,2.4901,2.4819,2.4577,2.4356,2.4208,2.419,2.419,2.419,2.419,2.419,2.419,2.419,2.419,2.419,2.419,2.419,2.419,2.419,2.419,2.419,2.3765,2.3575,2.3703,2.3063,2.2886,2.3311,2.283,2.27,2.2909,2.2587,2.2378,2.231,2.231,2.231]},{"header":{"parameterUnit":"m.s-1","parameterCategory":1,"la1":30.6,"la2":29.2853,"lo1":-89.7004,"lo2":-87.6739,"dy":0.0162,"dx":0.0183,"nx":112,"ny":82,"refTime":"2023-10-05T12:00:00:Z","depth":0,"parameterNumber":3,"parameterNumberName":"V-component_of_WINDS"},"data":[0.0,0.0,0.0,0.0,0.0,0.0,0.0,0.0,0.0,0.0,0.0,0.0,0.0,0.0,0.0,0.0,0.0,0.0,0.0,0.0,0.0,0.0,0.0,0.0,0.0,0.0,0.0,0.0,0.0,0.0,0.0,0.0,0.0,0.0,0.0,0.0,0.0,0.0,0.0,0.0,0.0,0.0,0.0,0.0,0.0,0.0,0.0,0.0,0.0,0.0,0.0,0.0,0.0,0.0,0.0,0.0,0.0,0.0,0.0,0.0,0.0,0.0,0.0,0.0,0.0,0.0,0.0,0.0,0.0,0.0,0.0,0.0,0.0,0.0,0.0,0.0,0.0,0.0,0.0,0.0,0.0,0.0,0.0,0.0,0.0,0.0,0.0,0.0,0.0,0.0,0.0,-3.5627,-3.9824,-4.2127,-4.1357,-4.0112,-3.7559,-3.3287,0.0,0.0,0.0,0.0,0.0,0.0,0.0,0.0,0.0,0.0,0.0,0.0,0.0,0.0,0.0,0.0,0.0,0.0,0.0,0.0,0.0,0.0,0.0,0.0,0.0,0.0,0.0,0.0,0.0,0.0,0.0,0.0,0.0,0.0,0.0,0.0,0.0,0.0,0.0,0.0,0.0,0.0,0.0,0.0,0.0,0.0,0.0,0.0,0.0,0.0,0.0,0.0,0.0,0.0,0.0,0.0,0.0,0.0,0.0,0.0,0.0,0.0,0.0,0.0,0.0,0.0,0.0,0.0,0.0,0.0,0.0,0.0,0.0,0.0,0.0,0.0,0.0,0.0,0.0,0.0,0.0,0.0,0.0,0.0,0.0,0.0,0.0,0.0,0.0,0.0,0.0,0.0,0.0,0.0,0.0,0.0,0.0,0.0,0.0,0.0,0.0,0.0,0.0,0.0,-3.2563,-3.8528,-4.0467,-4.1101,-4.0453,-3.9642,-3.7542,-3.3741,0.0,0.0,0.0,0.0,0.0,0.0,0.0,0.0,0.0,0.0,0.0,0.0,0.0,0.0,0.0,0.0,0.0,0.0,0.0,0.0,0.0,0.0,0.0,0.0,0.0,0.0,0.0,0.0,0.0,0.0,0.0,0.0,0.0,0.0,0.0,0.0,0.0,0.0,0.0,0.0,0.0,0.0,0.0,0.0,0.0,0.0,0.0,0.0,0.0,0.0,0.0,0.0,0.0,0.0,0.0,0.0,0.0,0.0,0.0,0.0,0.0,0.0,0.0,0.0,0.0,0.0,0.0,0.0,0.0,0.0,0.0,0.0,0.0,0.0,0.0,0.0,0.0,0.0,0.0,0.0,0.0,0.0,0.0,0.0,0.0,0.0,0.0,0.0,0.0,0.0,0.0,0.0,0.0,0.0,0.0,0.0,0.0,0.0,0.0,0.0,0.0,0.0,0.0,-3.1289,-3.3148,-3.7869,-3.9239,-3.9694,-3.9392,-3.8696,-3.6958,-3.39,-3.2471,0.0,0.0,0.0,0.0,0.0,0.0,0.0,0.0,0.0,0.0,0.0,0.0,0.0,0.0,0.0,0.0,0.0,0.0,0.0,0.0,0.0,0.0,0.0,0.0,0.0,0.0,0.0,0.0,0.0,0.0,0.0,0.0,0.0,0.0,0.0,0.0,0.0,0.0,0.0,0.0,0.0,0.0,0.0,0.0,0.0,0.0,0.0,0.0,0.0,0.0,0.0,0.0,0.0,0.0,0.0,0.0,0.0,0.0,0.0,0.0,0.0,0.0,0.0,0.0,0.0,0.0,0.0,0.0,0.0,0.0,0.0,0.0,0.0,0.0,0.0,0.0,0.0,0.0,0.0,0.0,0.0,0.0,0.0,0.0,0.0,0.0,0.0,0.0,0.0,0.0,0.0,0.0,0.0,0.0,0.0,0.0,0.0,0.0,0.0,0.0,0.0,0.0,-3.2066,-3.3746,-3.6608,-3.7393,-3.7776,-3.7943,-3.7204,-3.5831,-3.366,-3.2761,0.0,0.0,0.0,0.0,0.0,0.0,0.0,0.0,0.0,0.0,0.0,0.0,0.0,0.0,0.0,0.0,0.0,0.0,0.0,0.0,0.0,0.0,0.0,0.0,0.0,0.0,0.0,0.0,0.0,0.0,0.0,0.0,0.0,0.0,0.0,0.0,0.0,0.0,0.0,0.0,0.0,0.0,0.0,0.0,0.0,0.0,0.0,0.0,0.0,0.0,0.0,0.0,0.0,0.0,0.0,0.0,0.0,0.0,0.0,0.0,0.0,0.0,0.0,0.0,0.0,0.0,0.0,0.0,0.0,0.0,0.0,0.0,0.0,0.0,0.0,0.0,0.0,0.0,0.0,0.0,0.0,0.0,0.0,0.0,0.0,0.0,0.0,0.0,0.0,0.0,0.0,0.0,0.0,0.0,0.0,0.0,0.0,0.0,0.0,0.0,0.0,0.0,-3.1967,-3.3494,-3.6077,-3.548,-3.5121,-3.5681,-3.5036,-3.4062,-3.2771,-3.1935,0.0,0.0,0.0,0.0,0.0,0.0,0.0,0.0,0.0,0.0,0.0,0.0,0.0,0.0,0.0,0.0,0.0,0.0,0.0,0.0,0.0,0.0,0.0,0.0,0.0,0.0,0.0,0.0,0.0,0.0,0.0,0.0,0.0,0.0,0.0,0.0,0.0,0.0,0.0,0.0,0.0,0.0,0.0,0.0,0.0,0.0,0.0,0.0,0.0,0.0,0.0,0.0,0.0,0.0,0.0,0.0,0.0,0.0,0.0,0.0,0.0,0.0,0.0,0.0,0.0,0.0,0.0,0.0,0.0,0.0,0.0,0.0,0.0,0.0,0.0,0.0,0.0,0.0,0.0,0.0,0.0,0.0,0.0,0.0,0.0,0.0,0.0,0.0,0.0,0.0,0.0,0.0,0.0,0.0,0.0,0.0,0.0,0.0,0.0,0.0,0.0,0.0,-3.0315,-3.2054,0.0,-3.37,-3.3975,-3.3647,-3.2979,-3.212,-3.0991,0.0,0.0,0.0,0.0,0.0,0.0,0.0,0.0,0.0,0.0,0.0,0.0,0.0,0.0,0.0,0.0,0.0,0.0,0.0,0.0,0.0,0.0,0.0,0.0,0.0,0.0,0.0,0.0,0.0,0.0,0.0,0.0,0.0,0.0,0.0,0.0,0.0,0.0,0.0,0.0,0.0,0.0,0.0,0.0,0.0,0.0,0.0,0.0,0.0,0.0,0.0,0.0,0.0,0.0,0.0,0.0,0.0,0.0,0.0,0.0,0.0,0.0,0.0,0.0,0.0,0.0,0.0,0.0,0.0,0.0,0.0,0.0,0.0,0.0,0.0,0.0,0.0,0.0,0.0,0.0,0.0,0.0,0.0,0.0,0.0,0.0,0.0,0.0,0.0,0.0,0.0,0.0,0.0,0.0,0.0,0.0,0.0,0.0,0.0,0.0,0.0,0.0,-2.7567,-2.9241,-3.0489,0.0,-3.1984,-3.2727,-3.2143,-3.1671,-3.1018,-3.01,0.0,0.0,0.0,0.0,0.0,0.0,0.0,0.0,0.0,0.0,0.0,0.0,0.0,0.0,0.0,0.0,0.0,0.0,0.0,0.0,0.0,0.0,0.0,0.0,0.0,0.0,0.0,0.0,0.0,0.0,0.0,0.0,0.0,0.0,0.0,0.0,0.0,0.0,0.0,0.0,0.0,0.0,0.0,0.0,0.0,0.0,0.0,0.0,0.0,0.0,0.0,0.0,0.0,0.0,0.0,0.0,0.0,0.0,0.0,0.0,0.0,0.0,0.0,0.0,0.0,0.0,0.0,0.0,0.0,0.0,0.0,0.0,0.0,0.0,0.0,0.0,0.0,0.0,0.0,0.0,0.0,0.0,0.0,0.0,0.0,0.0,0.0,0.0,0.0,0.0,0.0,0.0,0.0,0.0,0.0,0.0,0.0,0.0,0.0,0.0,0.0,0.0,-2.8941,-2.8971,-2.9016,-2.8994,-3.0322,-3.1227,-3.124,-3.1178,-3.0897,0.0,0.0,0.0,0.0,0.0,0.0,0.0,0.0,0.0,0.0,0.0,0.0,0.0,0.0,0.0,0.0,0.0,0.0,0.0,0.0,0.0,0.0,0.0,0.0,0.0,0.0,0.0,0.0,0.0,0.0,0.0,0.0,0.0,0.0,0.0,0.0,0.0,0.0,0.0,0.0,0.0,0.0,0.0,0.0,0.0,0.0,0.0,0.0,0.0,0.0,0.0,0.0,0.0,0.0,0.0,0.0,0.0,0.0,0.0,0.0,0.0,0.0,0.0,0.0,0.0,0.0,0.0,0.0,0.0,0.0,0.0,0.0,0.0,0.0,0.0,0.0,0.0,0.0,0.0,0.0,0.0,0.0,0.0,0.0,0.0,0.0,0.0,0.0,0.0,0.0,0.0,0.0,0.0,0.0,0.0,0.0,0.0,0.0,0.0,0.0,0.0,0.0,0.0,-2.5631,-2.7599,-2.9015,-2.9007,-3.1425,-3.3039,-3.3041,-2.9969,-2.7937,-2.7758,0.0,0.0,0.0,0.0,0.0,0.0,0.0,0.0,0.0,0.0,0.0,0.0,0.0,0.0,0.0,0.0,0.0,0.0,0.0,0.0,0.0,0.0,0.0,0.0,0.0,0.0,0.0,0.0,0.0,0.0,0.0,0.0,0.0,0.0,0.0,0.0,0.0,0.0,0.0,0.0,0.0,0.0,0.0,0.0,0.0,0.0,0.0,0.0,0.0,0.0,0.0,0.0,0.0,0.0,0.0,0.0,0.0,0.0,0.0,0.0,0.0,0.0,0.0,0.0,0.0,0.0,0.0,0.0,0.0,0.0,0.0,0.0,0.0,0.0,0.0,0.0,0.0,0.0,0.0,0.0,0.0,0.0,0.0,0.0,0.0,0.0,0.0,0.0,0.0,0.0,0.0,0.0,0.0,0.0,0.0,0.0,0.0,0.0,0.0,0.0,0.0,0.0,-2.4634,-2.7511,-2.9567,-2.9564,-3.0954,-3.1906,-3.1905,-2.8705,-2.6692,-2.6717,0.0,0.0,0.0,0.0,0.0,0.0,0.0,0.0,0.0,0.0,0.0,0.0,0.0,0.0,0.0,0.0,0.0,0.0,0.0,0.0,0.0,0.0,0.0,0.0,0.0,0.0,0.0,0.0,0.0,0.0,0.0,0.0,0.0,0.0,0.0,0.0,0.0,0.0,0.0,0.0,0.0,0.0,0.0,0.0,0.0,0.0,0.0,0.0,0.0,0.0,0.0,0.0,0.0,0.0,0.0,0.0,0.0,0.0,0.0,0.0,0.0,0.0,0.0,0.0,0.0,0.0,0.0,0.0,0.0,0.0,0.0,0.0,0.0,0.0,0.0,0.0,0.0,0.0,0.0,0.0,0.0,0.0,0.0,0.0,0.0,0.0,0.0,0.0,0.0,0.0,0.0,0.0,0.0,0.0,0.0,0.0,0.0,0.0,0.0,0.0,0.0,0.0,-2.5295,-2.829,-3.0288,-2.9959,-2.9439,-2.9084,-2.9002,-2.7702,-2.6899,-2.6898,0.0,0.0,0.0,0.0,0.0,0.0,0.0,0.0,0.0,0.0,0.0,0.0,0.0,0.0,0.0,0.0,0.0,0.0,0.0,0.0,0.0,0.0,0.0,0.0,0.0,0.0,0.0,0.0,0.0,0.0,0.0,0.0,0.0,0.0,0.0,0.0,0.0,0.0,0.0,0.0,0.0,0.0,0.0,0.0,0.0,0.0,0.0,0.0,0.0,0.0,0.0,0.0,0.0,0.0,0.0,0.0,0.0,0.0,0.0,0.0,-3.5168,0.0,0.0,0.0,0.0,0.0,0.0,0.0,0.0,0.0,0.0,0.0,0.0,0.0,0.0,0.0,0.0,0.0,0.0,0.0,0.0,0.0,0.0,0.0,0.0,0.0,0.0,0.0,0.0,0.0,0.0,0.0,0.0,0.0,0.0,0.0,0.0,0.0,0.0,0.0,0.0,0.0,-2.5287,-2.8295,-2.9363,-2.6683,-2.8618,-2.981,-2.9048,-2.8704,-2.8511,-2.85,0.0,0.0,0.0,0.0,0.0,0.0,0.0,0.0,0.0,0.0,0.0,0.0,0.0,0.0,0.0,0.0,0.0,0.0,0.0,0.0,0.0,0.0,0.0,0.0,0.0,0.0,0.0,0.0,0.0,0.0,0.0,0.0,0.0,0.0,0.0,0.0,0.0,0.0,0.0,0.0,0.0,0.0,0.0,0.0,0.0,0.0,0.0,0.0,0.0,0.0,0.0,0.0,0.0,0.0,0.0,0.0,0.0,0.0,0.0,0.0,0.0,-3.6028,0.0,0.0,0.0,0.0,0.0,0.0,0.0,0.0,0.0,0.0,0.0,0.0,0.0,0.0,0.0,0.0,0.0,0.0,0.0,0.0,0.0,0.0,0.0,0.0,0.0,0.0,0.0,0.0,0.0,0.0,0.0,0.0,0.0,0.0,0.0,0.0,0.0,0.0,0.0,0.0,-2.5302,-2.6966,-2.7462,-2.5677,-2.8433,-3.0207,-2.97,-2.9249,-2.8998,-2.8985,-2.9006,0.0,0.0,0.0,0.0,0.0,0.0,0.0,0.0,0.0,0.0,0.0,0.0,0.0,0.0,0.0,0.0,0.0,0.0,0.0,0.0,0.0,0.0,0.0,0.0,0.0,0.0,0.0,0.0,0.0,0.0,0.0,0.0,0.0,0.0,0.0,0.0,0.0,0.0,0.0,0.0,0.0,0.0,0.0,0.0,0.0,0.0,0.0,0.0,0.0,0.0,0.0,0.0,0.0,-4.2721,-4.4638,-4.5325,-4.4878,-4.3989,-4.2678,-3.9222,-3.6898,-3.5292,0.0,0.0,0.0,0.0,0.0,0.0,0.0,0.0,0.0,0.0,0.0,0.0,0.0,0.0,0.0,0.0,0.0,0.0,0.0,0.0,0.0,0.0,0.0,0.0,0.0,-3.0703,-3.0039,0.0,0.0,0.0,0.0,0.0,0.0,0.0,0.0,0.0,0.0,0.0,0.0,-2.537,-2.5556,-2.5696,-2.5699,-2.7999,-2.9512,-2.9496,-2.9214,-2.9251,-2.9789,-2.9295,-2.8986,0.0,0.0,0.0,0.0,0.0,0.0,0.0,0.0,0.0,0.0,0.0,0.0,0.0,0.0,0.0,0.0,0.0,0.0,0.0,0.0,0.0,0.0,0.0,0.0,0.0,0.0,0.0,0.0,0.0,0.0,0.0,0.0,-2.0723,-2.5523,0.0,0.0,0.0,0.0,0.0,0.0,0.0,0.0,0.0,0.0,0.0,0.0,0.0,0.0,-3.189,-2.7023,-2.9566,-3.9541,-4.2938,-4.4475,-4.4416,-4.4726,-4.4233,-4.3039,-4.1351,0.0,-3.7101,-3.2977,0.0,0.0,0.0,0.0,0.0,0.0,0.0,0.0,0.0,0.0,0.0,0.0,0.0,0.0,0.0,0.0,0.0,0.0,0.0,0.0,0.0,0.0,-3.0152,-3.0702,-3.0871,-3.0687,0.0,-2.7403,-2.626,-2.9529,0.0,0.0,0.0,0.0,0.0,0.0,0.0,0.0,-2.5649,-2.5673,-2.5692,-2.5692,-2.5854,-2.597,-2.5986,-2.7826,-3.0187,-3.3003,-3.0562,-2.9009,-2.9002,-2.9783,0.0,0.0,0.0,0.0,0.0,0.0,0.0,0.0,0.0,0.0,0.0,0.0,0.0,0.0,0.0,0.0,0.0,0.0,0.0,0.0,0.0,0.0,0.0,0.0,0.0,0.0,0.0,0.0,0.0,-2.0671,-2.7752,-2.5758,-2.9032,-3.028,0.0,0.0,0.0,0.0,0.0,0.0,0.0,0.0,0.0,-1.707,-2.1528,-2.6609,-3.2198,-3.1377,-3.4089,-4.0288,-4.2488,-4.3833,-4.4416,-4.4383,-4.3723,-4.2613,-4.106,-3.9829,-3.8606,-3.4745,-3.2157,-3.056,0.0,0.0,0.0,0.0,-3.1414,-3.2212,-3.1826,-3.4317,0.0,0.0,0.0,0.0,0.0,0.0,0.0,0.0,0.0,0.0,0.0,0.0,0.0,-3.0674,-3.0904,-3.0855,-3.0704,-2.9498,-2.8356,0.0,-2.6537,-2.5294,-2.5293,0.0,0.0,0.0,0.0,0.0,-2.5495,-2.5599,-2.5647,-2.5495,-2.536,-2.5298,-2.5295,-2.757,-3.0377,-3.3602,-3.0772,-2.9005,-2.8997,-2.9379,-2.8316,0.0,0.0,0.0,0.0,0.0,0.0,0.0,0.0,0.0,0.0,0.0,0.0,0.0,0.0,0.0,0.0,0.0,0.0,0.0,0.0,0.0,0.0,0.0,0.0,0.0,0.0,0.0,0.0,-2.6541,-3.1692,-2.7648,-3.2143,-3.3852,0.0,0.0,0.0,0.0,0.0,0.0,-2.1964,-2.1795,-2.228,-2.3552,-2.7358,-3.0028,-3.1442,-3.491,-3.8123,-4.1064,-4.2406,-4.3487,-4.4299,-4.406,-4.3358,-4.2255,-4.0854,-4.0216,-3.9886,-3.6396,-3.4851,-3.4459,-3.2527,-3.2625,-3.3802,-3.3239,-3.3874,-3.5021,-3.5396,-3.6079,-3.6385,-3.3953,0.0,-3.6964,-3.4112,0.0,0.0,0.0,0.0,-2.4001,-2.4935,-2.6352,-2.7874,-2.9238,-2.9572,-2.9576,-2.9576,-3.026,-3.0124,0.0,-2.6146,-2.5402,-2.5394,0.0,0.0,0.0,0.0,-2.5524,-2.5322,-2.5461,-2.5517,-2.5332,-2.5303,-2.5297,-2.5302,-2.7793,-3.0297,-3.2429,-3.0334,-2.9113,-2.9343,-2.9362,-2.8586,-2.6926,0.0,0.0,0.0,0.0,0.0,0.0,0.0,0.0,0.0,0.0,0.0,0.0,0.0,0.0,0.0,0.0,0.0,0.0,0.0,0.0,0.0,0.0,0.0,0.0,0.0,0.0,0.0,0.0,0.0,-3.6813,-3.6152,0.0,0.0,0.0,0.0,-2.4324,-2.5547,-2.667,-2.7389,-2.6749,-2.7367,-2.95,-2.9171,-3.0681,-3.4264,-3.6758,-3.9209,-4.1587,-4.3178,-4.3804,-4.3582,-4.3855,-4.3431,-4.2364,-4.1677,-4.125,-4.0802,-3.7627,-3.6578,-3.6878,-3.5314,-3.6211,-3.8142,-3.61,-3.5397,-3.5924,-3.9069,-4.0194,-4.0291,-4.0573,-3.4655,-2.7379,-2.7206,-2.6943,0.0,0.0,-2.5482,-2.5302,-2.4917,-2.5135,-2.5538,-2.589,-2.5957,-2.5957,-2.5956,-2.8563,-3.0847,0.0,-2.7959,-2.5687,-2.5683,0.0,-2.5683,-2.5703,-2.5477,-2.5322,-2.5303,-2.5322,-2.5303,-2.5303,-2.5302,-2.5294,-2.5302,-2.8384,-3.001,-2.9302,-2.9082,-2.9401,-3.0297,-3.0319,-3.0281,-3.016,-2.8721,0.0,0.0,0.0,0.0,0.0,0.0,0.0,0.0,0.0,0.0,0.0,0.0,0.0,0.0,0.0,0.0,0.0,0.0,0.0,0.0,0.0,0.0,0.0,0.0,0.0,0.0,0.0,0.0,-3.4265,-3.4548,0.0,-2.921,-2.7541,-2.6871,-2.7157,-2.8158,-2.8778,-2.8917,-2.864,-2.875,-2.93,-2.9287,-3.1241,-3.5193,-3.6765,-3.8629,-4.077,-4.2375,-4.299,-4.2629,-4.3188,-4.329,-4.285,-4.1978,-4.176,-4.1904,-3.9697,-3.8888,-3.8928,-3.7607,-3.7854,-3.8754,-3.713,-3.7204,-3.8233,-3.8864,-3.9766,-3.9974,-3.5985,-3.2112,-2.8735,-2.7175,-2.6269,-2.5727,-2.5756,-2.5304,-2.4843,-2.513,-2.5069,-2.5056,-2.5374,-2.5567,-2.5703,-2.5703,-2.6672,-2.7501,-2.7323,-2.629,-2.5437,-2.5438,-2.5447,-2.5447,-2.5446,-2.5367,-2.5294,-2.5298,-2.5311,-2.5291,-2.5291,-2.5291,-2.6194,-2.8391,-2.9698,-2.9327,-2.6775,-2.6613,-2.7278,-2.873,-2.8872,-2.8422,-2.7334,-2.6809,-2.6255,0.0,0.0,0.0,0.0,0.0,0.0,0.0,0.0,0.0,0.0,0.0,0.0,0.0,0.0,0.0,0.0,0.0,0.0,0.0,0.0,0.0,0.0,0.0,0.0,0.0,0.0,-3.4466,-3.2116,-3.2708,-3.1519,-2.6937,-2.6502,-2.6841,-2.7678,-2.8969,-2.9699,-2.9478,-2.9847,-2.9973,-2.9695,-2.9934,-3.169,-3.52,-3.6045,-3.7502,-3.9416,-4.0843,-4.1778,-4.2253,-4.2816,-4.3139,-4.3227,-4.253,-4.2414,-4.2594,-4.1185,-4.0363,-3.9896,-3.9245,-3.9044,-3.9087,-3.8645,-3.9199,-3.9965,-3.873,-3.8468,-3.7852,-3.2559,-3.0015,-2.8671,-2.6766,-2.5803,-2.5357,-2.5386,-2.5086,-2.4805,-2.4967,-2.4907,-2.4872,-2.5234,-2.5438,-2.5598,-2.5683,-2.5696,-2.5615,-2.5348,-2.5102,-2.4931,-2.4932,-2.4917,-2.4926,-2.4929,-2.4933,-2.4926,-2.4936,-2.4917,-2.4936,-2.493,-2.5152,-2.6231,-2.8491,-2.9749,-2.8931,-2.552,-2.5311,-2.5825,-2.6995,-2.7148,-2.6728,-2.5653,-2.5672,-2.5676,-2.563,0.0,0.0,0.0,0.0,0.0,0.0,0.0,0.0,0.0,0.0,0.0,0.0,0.0,0.0,0.0,0.0,0.0,0.0,0.0,0.0,0.0,0.0,0.0,-3.0534,-3.3881,-3.5118,-3.1409,-3.1123,-2.9472,-2.4996,-2.516,-2.5608,-2.5712,-2.8089,-2.9592,-2.9592,-3.0667,-3.1254,-3.118,-3.118,-3.2093,-3.4077,-3.4804,-3.595,-3.7678,-3.8853,-4.0454,-4.2479,-4.2753,-4.3071,-4.3409,-4.3428,-4.3235,-4.2853,-4.1953,-4.0819,-3.9692,-4.0062,-3.9785,-3.9334,-4.0579,-4.1071,-4.081,-3.8896,-3.6737,-3.4296,-3.1297,-2.8612,-2.6411,-2.5506,-2.5427,-2.5497,-2.4619,-2.4885,-2.5211,-2.442,-2.4517,-2.4901,-2.5215,-2.5309,-2.5383,-2.5643,-2.5693,-2.5628,-2.5335,-2.4701,-2.4195,-2.4209,-2.4204,-2.4204,-2.4204,-2.4204,0.0,-2.4204,-2.4204,-2.4241,-2.4331,-2.5005,-2.5381,-2.5279,-2.8332,-2.8836,-2.5499,-2.5305,-2.5305,-2.5288,-2.5433,-2.5552,-2.5698,-2.5707,-2.5634,-2.5498,0.0,0.0,0.0,0.0,0.0,0.0,0.0,0.0,0.0,0.0,0.0,0.0,0.0,0.0,0.0,0.0,0.0,0.0,0.0,0.0,0.0,0.0,-3.6115,-3.4234,-3.4431,-3.4057,-3.2011,-2.9994,-2.8123,-2.6155,-2.5393,-2.5946,-2.8251,-2.9757,-3.0948,-3.1675,-3.2006,-3.1888,-3.1254,-3.0558,-3.0903,-3.2323,-3.409,-3.556,-3.687,-3.9986,-4.1415,-4.1337,-4.3603,-4.4335,-4.382,-4.3532,-4.3346,-4.3148,-4.1641,-4.0098,-3.8652,-3.8388,-3.8481,-3.8668,-3.7764,-3.7894,-3.8367,-3.7353,-3.5873,-3.4008,-3.1434,-2.9392,-2.773,-2.6625,-2.5822,-2.5238,-2.4638,-2.3845,-2.3345,-2.4011,-2.468,-2.5189,-2.5292,-2.5437,-2.5613,-2.5683,-2.5693,-2.563,-2.5351,-2.4692,-2.4209,-2.4209,-2.4206,-2.4184,-2.4184,-2.42,0.0,-2.42,-2.4198,-2.5077,-2.7438,-2.7845,-2.717,-2.5105,-2.6021,-2.6301,-2.5367,-2.5311,-2.5302,-2.5302,-2.5389,-2.5462,-2.5556,-2.5593,-2.5585,0.0,0.0,0.0,0.0,0.0,0.0,0.0,0.0,0.0,0.0,0.0,0.0,0.0,0.0,0.0,0.0,0.0,0.0,0.0,0.0,0.0,0.0,-3.469,-3.7822,-3.5941,-3.5535,-3.4349,-3.1516,-2.9076,-2.7056,-2.5656,-2.5683,-2.6978,-2.9922,-3.1095,-3.1951,-3.2593,-3.2249,-3.1489,-3.0258,-2.9707,-2.9999,-3.1268,-3.2515,-3.4296,-3.6521,-3.8811,-4.0131,-4.0607,-4.2737,-4.355,0.0,-4.3048,-4.2939,-4.2824,-4.1442,-3.9852,0.0,0.0,0.0,0.0,0.0,-3.6305,-3.665,-3.5562,-3.4086,-3.2363,-3.0539,-2.8924,-2.7457,-2.639,-2.5357,-2.4394,-2.3753,-2.3365,-2.3327,-2.4388,-2.4987,-2.5324,-2.544,-2.5596,-2.571,-2.5701,-2.5608,-2.5385,-2.4929,0.0,0.0,-2.4205,-2.3775,-2.34,-2.3383,-2.3413,-2.3413,-2.3413,-2.3871,-2.492,-2.6788,-2.7605,-2.7133,-2.5017,-2.547,0.0,0.0,0.0,-2.5687,-2.536,-2.539,0.0,0.0,0.0,-2.5534,-2.5508,0.0,0.0,0.0,-2.5764,-2.5561,0.0,0.0,0.0,0.0,0.0,0.0,0.0,0.0,0.0,0.0,0.0,0.0,0.0,0.0,0.0,0.0,-3.6236,-3.8011,-3.6228,-3.6308,-3.4866,-3.0194,-2.8089,-2.6352,-2.4724,-2.6207,-2.8337,-3.0904,-3.1976,-3.2541,-3.2541,0.0,0.0,0.0,0.0,-2.9595,-3.094,-3.1194,-3.3089,-3.667,-3.6969,-3.8272,-4.0369,-4.1302,-4.1934,-4.2302,-4.2322,-4.2311,-4.2225,-4.1251,-3.9792,-3.8232,-3.8982,-3.7889,-3.5882,-3.5773,-3.5674,-3.5339,-3.3562,0.0,0.0,-2.8901,-2.7582,-2.6239,-2.5583,-2.4701,-2.3739,-2.2772,-2.3333,-2.4375,-2.5114,-2.5297,-2.5369,-2.5589,-2.5681,-2.5683,-2.5663,-2.5459,-2.5077,-2.4342,-2.4213,-2.4192,-2.4213,-2.3146,-2.2305,-2.2288,-2.2293,-2.2352,-2.2511,-2.3491,-2.4241,-2.4375,0.0,0.0,-2.5084,-2.5937,-2.617,-2.533,-2.6014,-2.614,-2.5428,-2.539,-2.5428,-2.5486,-2.5486,-2.5485,-2.5483,-2.5422,-2.5693,-2.6292,-2.6371,-2.6118,0.0,0.0,0.0,0.0,0.0,0.0,0.0,0.0,0.0,0.0,0.0,0.0,0.0,0.0,0.0,-3.2326,-3.579,-3.7012,-3.537,-3.3636,-3.1668,-2.9233,-2.6864,-2.5847,-2.6938,-2.7373,-2.8782,-3.1692,-3.208,-3.2239,-3.2305,-3.1428,0.0,-3.0432,-2.9693,-3.0147,-3.1836,-3.3391,-3.533,-3.7551,0.0,0.0,-4.1194,-4.2564,-4.2881,-4.2294,-4.2364,-4.2346,-4.2187,-4.06,-3.8919,-3.7296,-3.6829,-3.6328,-3.5811,-3.5041,-3.4591,-3.3939,-3.1092,-2.953,-2.8537,-2.7067,-2.6068,-2.5583,-2.6236,-2.6272,0.0,-2.4275,-2.4004,-2.4375,-2.5114,-2.5297,-2.5322,-2.5369,-2.5544,-2.5639,-2.5416,-2.5349,-2.5092,-2.4339,-2.42,-2.4207,-2.419,-2.3142,-2.2293,-2.2302,-2.2307,-2.2657,-2.3701,-2.404,-2.4536,-2.5411,-2.5761,-2.5837,-2.5573,-2.5906,-2.5802,-2.5091,-2.5367,-2.5476,-2.5322,-2.5322,-2.5322,-2.5341,-2.539,-2.5418,-2.5426,-2.6143,-2.6424,-2.6279,-2.6047,-2.6017,0.0,0.0,0.0,0.0,0.0,0.0,0.0,0.0,0.0,0.0,0.0,-1.0488,0.0,0.0,-3.2237,-3.3769,-3.4467,-3.4443,-3.3315,-3.0668,-2.8451,-2.7545,-2.6299,-2.5949,-2.6881,-2.7456,-2.881,-3.1418,-3.1315,-3.1272,-3.1651,-3.0751,-3.0276,-3.029,-2.9821,-3.0521,-3.2543,-3.3704,-3.5744,-3.8649,-3.9433,-4.0176,-4.0845,-4.0952,-4.1042,-4.1089,-4.067,-4.0681,-4.0852,-3.9071,-3.7588,-3.6301,-3.537,-3.5029,-3.4905,-3.3278,-3.2271,-3.1336,-2.878,-2.7689,-2.7223,-2.5998,-2.5761,-2.6045,-2.6549,-2.6104,-2.5267,-2.4447,-2.4205,-2.437,-2.5099,-2.5298,-2.5303,-2.5303,-2.5496,-2.5625,-2.5367,-2.5297,-2.5073,-2.4341,-2.4193,-2.421,-2.4203,-2.3656,-2.3017,-2.2418,-2.2298,-2.2522,-2.3165,-2.3809,-2.4406,-2.4936,-2.5006,-2.4985,-2.4963,-2.5382,-2.5507,-2.516,-2.5234,-2.5303,-2.5303,-2.5303,-2.5303,-2.5303,-2.5322,-2.539,-2.5447,-2.5919,-2.6052,-2.5894,-2.5609,-2.5726,0.0,0.0,0.0,0.0,0.0,0.0,0.0,0.0,-0.3446,-0.9818,-1.3024,-1.6331,-2.1712,-3.0984,-3.6929,-3.4156,-3.238,-3.1101,-3.0334,-2.7735,-2.5876,-2.5574,-2.5703,-2.6005,-2.6618,-2.7417,-2.8679,-3.0611,-3.029,-3.0127,-3.0488,-2.9813,-2.9495,-2.9683,-2.9672,-3.0788,-3.2998,-3.345,-3.5404,-3.888,-3.8368,-3.8734,-3.9861,-3.884,-3.8733,-3.9293,-3.8434,-3.8274,-3.8506,-3.7036,-3.5903,-3.4957,-3.3673,-3.3164,-3.2948,-3.1233,-2.9919,-2.871,-2.6756,-2.609,-2.5949,-2.4954,-2.5201,-2.5888,-2.6126,-2.5272,-2.4228,-2.4358,-2.4403,-2.4548,-2.5151,-2.5305,-2.5303,-2.537,-2.5532,-2.5631,-2.5354,-2.5305,-2.5126,-2.452,-2.4301,-2.4207,-2.4218,-2.4187,-2.3855,-2.2811,-2.267,-2.2676,-2.267,-2.358,-2.4194,-2.4203,-2.4202,-2.4192,-2.4195,-2.4809,-2.5237,-2.5293,-2.5303,-2.5303,-2.5303,-2.5303,-2.5303,-2.5303,-2.5303,-2.537,-2.5486,-2.5495,-2.5483,-2.5481,-2.5321,-2.5451,0.9364,1.4821,1.7988,1.8162,1.5359,1.214,0.0,0.0,-0.6867,-1.8645,-2.0555,-2.1719,-2.6841,-2.9258,-3.0636,-3.1132,-2.9208,-2.7112,-2.5853,-2.5487,-2.4973,-2.3842,-2.423,-2.5484,-2.7846,-2.8211,-2.8604,-2.9422,-2.9621,-2.9287,-2.8473,-2.8452,-2.8711,-2.9328,-2.9302,-3.0509,-3.3047,-3.3768,-3.5017,-3.6764,-3.7438,-3.7993,-3.8421,-3.8352,-3.7955,-3.7288,-3.6465,-3.5592,-3.47,-3.4507,-3.381,-3.2664,-3.0701,-2.9584,-2.9106,-2.9433,-2.8716,-2.7255,-2.5237,-2.4625,-2.4488,-2.3084,-2.2686,-2.2995,-2.4142,-2.4354,-2.434,-2.4989,-2.5194,-2.5201,-2.5285,-2.5291,-2.537,-2.5601,-2.5688,-2.5631,-2.5354,-2.5305,-2.5278,-2.5189,-2.4666,-2.42,-2.4205,-2.4211,-2.4158,-2.4004,-2.3987,-2.3991,-2.3977,-2.4097,-2.4184,-2.4205,-2.4189,-2.421,-2.4212,-2.4601,-2.4968,-2.5274,-2.5303,-2.5303,-2.5303,-2.5303,-2.5303,-2.5303,-2.5303,-2.5341,-2.5409,-2.5473,-2.5464,-2.5408,-2.5446,-2.5346,1.2702,1.8434,2.182,0.0,1.9742,1.7042,1.4681,0.6499,-0.2712,-1.0378,-1.9543,-2.6927,-2.958,-3.0689,-3.1004,0.0,-2.7342,-2.5013,-2.4542,-2.432,-2.4356,-2.4872,-2.5185,-2.606,-2.7995,-2.786,-2.8134,-2.9202,-2.8321,-2.7819,-2.8106,-2.8273,-2.8867,-2.98,-3.0464,-3.1496,-3.2823,-3.4163,-3.5026,-3.5424,-3.614,-3.6205,-3.5734,-3.5339,-3.4866,-3.4372,-3.4323,-3.3718,-3.2768,-3.2147,-3.1144,-2.9874,-2.8691,-2.701,-2.54,-2.6615,-2.6193,-2.4892,-2.4215,-2.3657,-2.312,-2.2505,-2.2807,-2.3504,-2.4036,-2.4504,-2.4904,-2.5201,-2.5297,-2.5308,-2.5305,-2.5416,-2.5563,-2.5659,-2.5697,-2.5636,-2.5367,-2.5301,-2.5305,-2.5302,-2.5045,-2.4695,-2.4271,-2.4192,-2.4205,-2.4205,-2.42,-2.4205,-2.4217,-2.4198,-2.4202,-2.4208,-2.419,-2.4191,-2.4204,-2.4747,-2.5158,-2.5293,-2.5303,-2.5303,-2.5303,-2.5303,-2.5303,-2.5303,-2.5303,-2.5303,-2.5341,-2.5451,-2.5537,-2.5566,-2.5518,-2.5398,1.6522,2.1481,0.0,2.5157,2.3987,2.2125,1.9829,1.1755,0.3185,-0.2672,-1.5372,-2.6519,-3.0024,-3.0655,-3.0184,-2.8708,-2.5724,-2.3697,-2.4005,-2.4029,-2.4463,-2.5633,-2.6047,-2.6749,-2.806,-2.7444,-2.7448,-2.8565,-2.7139,-2.6604,-2.754,-2.7779,-2.8389,-2.9422,-3.051,-3.134,-3.1972,-3.343,-3.4092,-3.3895,-3.4192,-3.3895,-3.3033,-3.1921,-3.1337,-3.1148,-3.1129,-3.0738,-3.0005,-2.9105,-2.8129,-2.7073,-2.638,-2.4802,-2.3022,-2.4004,-2.3719,-2.2878,-2.3334,-2.2983,-2.2332,-2.2474,-2.3282,-2.4203,-2.4211,-2.4722,-2.531,-2.5298,-2.5343,-2.5409,-2.5409,-2.5543,-2.5697,-2.5708,-2.5699,-2.5626,-2.536,-2.5303,-2.5302,-2.5302,-2.5304,-2.5059,-2.4329,-2.4206,-2.4192,-2.4209,-2.419,-2.419,-2.419,-2.419,-2.419,-2.419,-2.4192,-2.4206,-2.4204,-2.4884,-2.5304,-2.5293,-2.5303,-2.5303,-2.5303,-2.5303,-2.5303,-2.5303,-2.5303,-2.5322,-2.537,-2.5466,-2.559,-2.5703,-2.5576,-2.5486,2.0535,2.3208,2.6234,2.826,2.7714,2.6805,2.725,1.9595,0.9515,-0.0568,-0.9027,-1.7633,-2.7705,-2.7489,-2.5646,-2.5139,-2.3935,-2.3185,-2.3659,-2.4736,-2.5438,-2.5162,-2.6166,-2.7271,0.0,-2.7264,-2.6629,-2.6962,-2.6214,-2.586,-2.6254,-2.6416,-2.6793,-2.7473,-2.8265,-2.9234,-3.0368,-3.0998,-3.1505,-3.1877,-3.1374,-3.0996,-3.0638,-2.8665,-2.7746,-2.769,-2.6478,-2.5783,-2.5461,-2.5033,-2.4736,-2.4394,-2.3268,-2.2801,-2.2637,-2.1966,-2.1691,-2.1764,-2.2493,-2.2522,-2.2391,-2.2977,-2.3635,-2.4192,-2.4201,-2.4714,-2.53,-2.5308,-2.5486,-2.5688,-2.5688,-2.5688,-2.5699,-2.5709,-2.5701,-2.5626,-2.536,-2.5303,-2.5303,-2.5303,-2.5294,-2.5063,-2.4318,-2.4198,-2.4206,-2.4209,-2.419,-2.419,-2.419,-2.419,-2.419,-2.419,-2.4209,-2.4206,-2.4199,-2.4879,-2.5298,-2.5303,-2.5303,-2.5303,-2.5303,-2.5303,-2.5303,-2.5303,-2.5303,-2.537,-2.5486,-2.5563,-2.5628,-2.5703,-2.5635,-2.5524,2.3058,2.6627,3.0249,3.1887,3.1103,2.9936,2.9828,2.721,2.2647,1.5167,0.532,-0.6737,-2.2375,-2.4764,-2.4801,-2.6202,-2.2771,-2.0441,-2.185,-2.1698,-2.1891,-2.3027,-2.5837,0.0,0.0,0.0,0.0,-2.7794,-2.603,-2.5227,-2.6031,-2.5898,-2.6204,-2.7163,-2.8248,-2.8629,-2.8295,-2.952,-2.9387,-2.7948,-2.8305,-2.8433,-2.8265,-2.6032,-2.5015,-2.4989,-2.4607,-2.4384,-2.4254,-2.334,-2.2768,-2.2424,-2.2095,-2.163,-2.1231,-2.2039,-2.2169,-2.2,-2.2634,-2.296,-2.317,-2.3714,-2.42,-2.4596,-2.4591,-2.4936,-2.5317,-2.5405,-2.5563,-2.5704,-2.5702,-2.5625,-2.5566,-2.5576,-2.5638,-2.5625,-2.5361,-2.5303,-2.5303,-2.5303,-2.5305,-2.5208,-2.4975,-2.4512,-2.4205,-2.4191,-2.4192,-2.419,-2.419,-2.4197,-2.4204,-2.4204,-2.4211,-2.4402,-2.4892,-2.5158,-2.531,-2.5303,-2.5303,-2.5303,-2.5303,-2.5303,-2.5303,-2.5303,-2.5466,-2.5582,-2.562,-2.5662,-2.5683,-2.5703,-2.5622,-2.5574,2.6182,2.9621,3.2504,3.3642,3.3403,3.2656,3.1785,3.0542,2.8354,2.4073,1.3217,0.0273,-1.3569,-1.7249,-1.8447,-1.9211,-1.5942,-1.331,-1.3408,-1.3316,-1.3924,-1.577,-2.0655,-2.3982,0.0,0.0,0.0,-2.7753,-2.5764,-2.4879,-2.5677,-2.51,-2.5051,-2.5772,-2.6626,-2.6759,-2.6051,-2.7173,-2.696,-2.5401,-2.5755,-2.572,-2.5262,-2.3532,-2.2731,-2.2718,-2.2687,-2.2671,-2.2589,-2.1621,-2.1101,-2.0875,-2.1053,-2.0975,-2.0879,-2.2035,-2.2478,-2.2583,-2.3111,-2.3445,-2.3725,-2.4186,-2.4558,-2.4823,-2.4941,-2.5164,-2.5411,-2.5532,-2.5637,-2.5699,-2.5691,-2.5605,-2.5486,-2.5447,-2.5486,-2.5533,-2.5453,-2.5432,-2.5412,-2.5322,-2.5299,-2.531,-2.5302,-2.4686,-2.4209,-2.4205,-2.4188,-2.4301,-2.4566,-2.4595,-2.4601,-2.4601,-2.4582,-2.479,-2.5258,-2.5298,-2.5297,-2.5303,-2.5303,-2.5303,-2.5303,-2.5303,-2.5341,-2.5447,-2.5601,-2.5693,-2.5699,-2.5705,-2.5703,-2.5703,-2.5664,-2.5642,2.9698,3.1872,3.296,3.3613,3.4503,3.478,3.2982,2.9743,2.6741,2.5338,1.4634,0.3748,0.0,0.0,-0.6591,-0.4276,-0.3429,-0.2016,0.0937,-0.0388,-0.2341,0.0,0.0,0.0,0.0,0.0,0.0,-2.6725,0.0,-2.4704,-2.5125,-2.3998,-2.3367,-2.332,-2.3573,-2.3719,-2.367,-2.4025,-2.4206,-2.4156,-2.3739,-2.2979,-2.1903,-2.1246,-2.0926,-2.091,-2.0642,-2.0569,-2.0519,-1.9919,-1.9711,-1.9782,-2.0177,-2.0847,-2.1586,-2.2023,-2.26,-2.3252,-2.3833,-2.397,-2.3971,-2.4448,-2.471,-2.4865,-2.519,-2.5387,-2.5528,-2.5667,-2.5691,-2.5704,-2.5693,-2.5595,-2.5476,-2.5332,-2.5303,-2.5371,-2.5631,-2.5693,-2.5613,-2.5379,-2.5303,-2.5311,-2.5294,-2.472,-2.4266,-2.4266,-2.4265,-2.4511,-2.5204,-2.5292,-2.5296,-2.5296,-2.5311,-2.5302,-2.5302,-2.5299,-2.5303,-2.5303,-2.5303,-2.5303,-2.5303,-2.5303,-2.5447,-2.5707,-2.5707,-2.5699,-2.5703,-2.5703,-2.5703,-2.5703,-2.5703,-2.5703,2.8851,3.0988,3.289,3.3258,3.3253,3.2539,3.0072,2.7777,2.4828,2.0114,1.5601,1.0724,0.0,0.0,0.0,1.2676,1.2232,0.0,1.1651,0.8148,0.0,0.1297,0.0,-1.4911,-1.6021,-2.2891,0.0,0.0,-2.543,-2.481,-2.4457,-2.3451,-2.2627,-2.2146,-2.254,-2.2489,-2.1922,-2.1892,-2.1967,-2.2128,-2.1617,-2.1679,-2.2149,-2.0708,-2.0015,-2.0015,-1.994,-1.9919,-1.9919,-1.9762,-1.9874,-2.0212,-2.0911,-2.1513,-2.2079,-2.2944,-2.3039,-2.286,-2.4163,-2.4314,-2.4063,-2.4576,-2.4831,-2.4968,-2.5101,-2.5313,-2.5522,-2.559,-2.5651,-2.5705,-2.5702,-2.5638,-2.5547,-2.5473,-2.5447,-2.5438,-2.5403,-2.5554,-2.5687,-2.5608,-2.5447,-2.5292,-2.5298,-2.5144,-2.5025,-2.5015,-2.5031,-2.5091,-2.5272,-2.5302,-2.5305,-2.5305,-2.5299,-2.5301,-2.5301,-2.5312,-2.5303,-2.5303,-2.5303,-2.5303,-2.5303,-2.5486,-2.562,-2.5707,-2.5698,-2.5691,-2.5703,-2.5703,-2.5703,-2.5703,-2.5703,-2.5703,2.968,3.1336,3.2744,3.1996,3.112,2.9823,2.737,2.4148,2.0457,1.62,1.3584,1.1028,0.7669,0.8739,0.0,0.0,0.0,0.0,2.067,1.8132,1.4921,0.0,0.2467,0.0,-1.0523,-1.755,-2.2645,0.0,-2.5018,-2.4668,-2.3552,-2.2248,-2.1092,-2.0194,-1.9875,-1.9648,-1.9514,-1.9624,-2.0,-2.0655,-2.0343,-2.0551,-2.1132,-2.0172,-1.969,-1.969,0.0,-1.9848,-2.0076,-1.9995,-2.0227,-2.0667,-2.1453,-2.199,-2.2392,-2.2959,-2.3186,-2.3309,-2.3791,-2.4128,-2.4422,-2.4873,-2.474,-2.4479,-2.5015,-2.5318,-2.5505,-2.5543,-2.5634,-2.5703,-2.5703,-2.5664,-2.5633,-2.5603,-2.5505,-2.5427,-2.5473,-2.5598,-2.5698,-2.5707,-2.548,-2.5293,-2.5301,-2.4079,-2.3108,-2.3119,-2.3108,-2.3111,-2.3118,-2.4389,-2.5303,-2.5303,-2.5303,-2.5303,-2.5293,-2.5313,-2.535,-2.548,-2.5488,-2.5479,-2.5486,-2.562,-2.5702,-2.5696,-2.5709,-2.5703,-2.5703,-2.5703,-2.5703,-2.5703,-2.5703,-2.5703,3.0766,3.1623,3.1884,2.9979,2.8492,2.6841,2.4391,1.9739,1.523,1.2883,1.0041,0.7862,0.7646,0.9256,1.204,1.6361,0.0,2.307,2.747,2.7298,2.5764,2.3208,1.521,0.6078,-0.3678,-1.031,-1.6157,-2.1341,-2.2916,-2.3191,-2.2036,-2.0302,-1.8782,-1.7596,-1.6565,-1.638,-1.7057,-1.7678,-1.8567,-1.9706,-1.97,-1.969,-1.969,-1.969,-1.969,-1.969,0.0,0.0,-2.0571,-2.0429,-2.0649,-2.1134,-2.1881,-2.2321,-2.2516,-2.255,-2.307,-2.3683,-2.3102,-2.3429,-2.423,-2.4793,-2.4292,-2.3678,-2.4694,-2.5234,-2.5465,-2.5241,-2.5429,-2.5703,-2.5703,-2.5703,-2.5694,-2.5711,-2.552,-2.5427,-2.5658,-2.5703,-2.5703,-2.5703,-2.5511,-2.5189,-2.4715,-2.2228,-2.0295,-2.0304,-2.0304,-2.0304,-2.0304,-2.284,-2.4636,-2.4636,-2.4636,-2.4647,-2.4648,-2.5089,-2.5441,-2.569,-2.5693,-2.5696,-2.571,-2.5702,-2.5704,-2.5703,-2.5703,-2.5703,-2.5703,-2.5703,-2.5703,-2.5703,-2.5703,-2.5703,2.895,2.8703,2.8154,2.7176,2.5892,2.3809,1.9783,1.5983,0.0,0.0,0.7041,0.6327,0.7399,0.9573,1.295,1.8438,0.0,0.0,0.0,0.0,2.8676,0.0,0.0,0.0,0.0,0.0,0.0,0.0,0.0,0.0,-1.8686,-1.7036,-1.5426,-1.4105,-1.453,-1.5306,-1.635,-1.7451,-1.8567,-1.9706,-1.97,-1.969,-1.969,-1.969,-1.969,-1.9711,0.0,0.0,-2.0379,-2.0731,-2.1118,-2.1565,-2.2238,-2.2345,-2.217,-2.2712,-2.2311,-2.1614,-2.2574,-2.1912,-2.0958,-2.267,-2.3109,-2.2992,-2.332,-2.4374,-2.5226,-2.3898,-2.4567,-2.5703,-2.5703,-2.5703,-2.5703,-2.5694,-2.5652,-2.5637,-2.5683,-2.5703,-2.5703,-2.5703,-2.5661,-2.4684,-2.1683,-2.0696,-2.0301,-2.0288,-2.0296,-2.0296,-2.0296,-2.0817,-2.1165,-2.1165,-2.1165,-2.1194,-2.1253,-2.3946,-2.5648,-2.5704,-2.5703,-2.5698,-2.5691,-2.5691,-2.5697,-2.5703,-2.5703,-2.5703,-2.5703,-2.5703,-2.5703,-2.5703,-2.5703,-2.5703,2.7783,2.7201,2.6369,2.4696,2.2565,1.9941,1.6402,0.0,0.0,0.7794,0.7003,0.7312,0.9728,1.1913,0.0,1.9418,0.0,0.0,0.0,0.0,0.0,0.0,0.0,0.0,0.0,0.0,0.0,0.0,0.0,0.0,-1.5336,-1.3152,-1.1266,-1.0278,-1.1028,-1.2386,-1.4328,-1.5862,-1.737,-1.8888,-1.9089,-1.9346,-1.9675,-1.9331,-1.9361,-1.9711,-1.9894,0.0,-2.0314,-2.055,-2.1007,-2.1642,-2.2163,-2.22,-2.2025,-2.2315,-2.1985,-2.1354,-2.1114,-2.0593,-2.0218,-2.1199,-2.1504,-2.152,-2.1589,-2.2152,-2.2652,-2.1985,-2.3672,-2.5703,-2.5703,-2.5703,-2.5703,-2.5703,-2.5703,-2.5215,-2.3437,-2.3047,-2.3574,-2.5352,-2.4258,-2.2497,-2.0752,-2.0463,-2.0424,-2.0319,-2.0312,-2.0312,-2.0312,-2.0307,-2.0291,-2.0291,-2.0291,-2.031,-2.0359,-2.1933,-2.3706,-2.5478,-2.5589,-2.5601,-2.5601,-2.5601,-2.5601,-2.5601,-2.5661,-2.5703,-2.5703,-2.5703,-2.5703,-2.5703,-2.5703,-2.5703,2.6507,2.5676,2.4482,2.209,1.9162,1.6205,1.3495,1.0106,0.0,0.7475,0.7864,0.9118,1.2063,1.4261,1.6735,0.0,2.2365,2.4646,0.0,0.0,0.0,0.0,0.0,0.0,0.0,0.0,0.0,0.0,0.0,0.0,-1.0673,-0.8816,-0.731,-0.6634,-0.7899,-0.9876,-1.2539,-1.4471,-1.6309,-1.8156,-1.854,-1.8985,-1.947,-1.914,-1.9246,-1.9747,-2.0008,0.0,0.0,-2.0682,-2.1037,-2.1545,-2.1932,-2.1838,-2.1529,-2.1644,-2.1503,-2.1072,-1.9762,-1.9743,-2.0312,-2.0312,-2.0312,-2.0312,-2.0312,-2.0331,-2.0397,-2.0564,-2.2545,-2.4774,-2.5515,-2.57,-2.5527,-2.4785,-2.4609,-2.3867,-2.1172,-2.0605,-2.1387,-2.4082,-2.2441,-2.0605,-2.0605,-2.0601,-2.0555,-2.0392,-2.0319,-2.0299,-2.0299,-2.0293,-2.0312,-2.0299,-2.0296,-2.0312,-2.0312,-2.0521,-2.1815,-2.4519,-2.5193,-2.5504,-2.5504,-2.5465,-2.5465,-2.5465,-2.5558,-2.5633,-2.566,-2.566,-2.566,-2.566,-2.566,-2.5662,2.4477,2.2893,2.0936,1.8978,1.6231,1.3227,1.0431,0.0,0.7435,0.6811,0.8532,1.0727,1.2701,1.5041,1.7683,2.0884,2.25,2.4467,0.0,0.0,0.0,0.0,0.0,0.0,0.0,0.0,0.0,0.0,0.0,0.0,0.0,-0.4124,-0.4371,-0.3718,-0.6896,-0.9838,-1.2383,-1.463,-1.665,-1.8381,-1.8656,-1.8833,-1.8912,-1.9498,-1.9814,-1.9956,-2.0969,0.0,0.0,-2.1928,-2.1776,-2.1288,-2.1812,-2.119,-2.0081,-2.0751,-2.0367,-1.9507,-1.9362,-1.9743,-2.0312,-2.0312,-2.0312,-2.0312,-2.0312,-2.0427,-2.0577,-2.0588,-2.0841,-2.1789,-2.4883,-2.571,-2.4922,-2.1816,-2.1074,-2.0977,-2.0664,-2.0605,-2.0684,-2.1016,-2.0801,-2.0605,-2.0605,-2.0601,-2.0581,-2.0573,-2.0415,-2.0308,-2.0308,-2.0294,-2.031,-2.0289,-2.0293,-2.0312,-2.0312,-2.1036,-2.1656,-2.203,-2.4223,-2.5505,-2.5505,-2.538,-2.5322,-2.5322,-2.5321,-2.5398,-2.5526,-2.5526,-2.5526,-2.5526,-2.5526,-2.5573,2.2926,2.1019,1.8659,1.6381,1.3429,1.0488,0.8311,0.0,0.7253,0.8088,1.0279,1.2807,1.5342,1.7325,1.9314,2.1505,2.2669,2.4094,2.6355,0.0,0.0,0.0,0.0,0.0,0.0,0.0,0.0,0.0,0.0,0.0,0.0,0.0911,-0.1136,-0.1286,-0.4278,-0.7339,-1.0445,-1.3017,-1.5571,-1.8059,-1.7929,-1.8176,-1.8654,-1.8175,-1.8192,-1.8606,-1.9496,0.0,0.0,-2.0257,-2.0508,-2.07,-2.134,-2.098,-2.0173,-2.0645,-2.0176,-1.9368,-1.9763,-2.0079,-2.0296,-2.0302,-2.0387,-2.0476,-2.0481,-2.0542,-2.0595,-2.0601,-2.0594,-2.0901,-2.2286,-2.2621,-2.2285,-2.0918,-2.0605,-2.0605,-2.0605,-2.0605,-2.0605,-2.0605,-2.0605,-2.0605,-2.0605,-2.06,-2.056,-2.0444,-2.034,-2.0154,-1.9745,-1.9709,-1.97,-1.9698,-1.9952,-2.0117,-2.0115,-2.0365,-2.0955,-2.1991,-2.302,-2.4029,-2.5025,-2.5025,-2.5006,-2.5006,-2.4991,-2.5026,-2.5082,-2.523,-2.5318,-2.5318,-2.5434,-2.5536,2.0913,1.8994,1.6613,1.4078,1.1164,0.8487,0.0,0.0,0.7733,0.9635,1.2246,1.5018,1.7602,1.933,2.0779,2.2073,2.2882,2.3891,2.5393,2.6044,0.0,0.0,0.0,0.0,0.0,0.0,0.0,0.0,0.0,0.0,0.0,0.5306,0.2415,0.0684,-0.3006,-0.6454,-0.9562,-1.2613,-1.5366,-1.7788,-1.7446,-1.7408,-1.7624,-1.6939,-1.6769,-1.7008,0.0,0.0,0.0,-1.9045,-1.9514,-1.9936,-2.0632,-2.083,-2.0666,-2.0546,-2.0116,-1.9662,-2.0147,-2.0291,-2.0298,-2.0233,-2.0273,-2.0387,-2.0482,-2.0554,-2.0597,-2.0605,-2.0601,-2.0605,-2.0604,-2.0601,-2.0605,-2.0601,-2.0598,-2.0598,-2.0598,-2.0598,-2.0598,-2.0598,-2.0598,-2.0598,-2.0598,-2.0599,-2.0534,-2.0331,-2.0298,-2.0053,-1.9385,-1.9307,-1.9306,-1.9301,-1.9606,-1.9826,-1.9933,-1.9858,-2.0299,-2.1488,-2.2035,-2.2827,-2.3997,-2.454,-2.4804,-2.4804,-2.4799,-2.4801,-2.4801,-2.4984,-2.5091,-2.5091,-2.5225,-2.5286,1.8124,1.6512,1.4559,1.2149,0.9554,0.7452,0.6745,0.7629,0.9126,1.1071,1.4325,1.7271,1.8963,2.0542,2.1832,2.2574,2.3152,2.3941,2.5217,2.5913,0.0,0.0,0.0,0.0,0.0,0.0,0.0,0.0,0.0,0.0,0.0,0.8799,0.6213,0.2295,-0.3876,-0.8242,-1.0468,-1.4205,-1.6652,-1.7816,-1.7443,-1.663,-1.5469,-1.6171,-1.6038,0.0,0.0,0.0,0.0,-1.8982,-1.9218,-1.89,-1.971,-2.0657,-2.1432,-2.026,-2.0002,-2.0283,-2.0304,-2.0293,-2.0273,-2.0077,-1.9912,-1.987,-2.0203,-2.0449,-2.0609,-2.0609,-2.0591,-2.0606,-2.0597,-2.0607,-2.0603,-2.061,-2.0605,-2.0605,-2.0605,-2.0605,-2.0605,-2.0605,-2.0605,-2.0605,-2.0605,-2.0591,-2.0521,-2.0326,-2.0308,-2.0056,-1.9391,-1.9298,-1.93,-1.9308,-1.9295,-1.9442,-1.9774,-1.979,-1.9809,-1.9828,-2.1375,-2.2318,-2.2337,-2.3922,-2.4804,-2.4804,-2.4804,-2.4804,-2.4804,-2.4804,-2.4804,-2.4804,-2.4804,-2.4818,1.6629,1.4808,1.2832,1.0838,0.8613,0.6776,0.6155,0.8,1.0474,1.2615,1.5962,1.8969,2.0575,2.1467,2.2113,2.2678,2.2828,2.3262,0.0,0.0,0.0,0.0,0.0,0.0,0.0,0.0,0.0,0.0,0.0,0.0,0.0,1.0871,0.7723,0.3372,-0.1736,-0.5786,-0.8692,-1.3262,-1.5134,-1.4314,-1.4587,-1.3361,-1.0883,-1.071,0.0,0.0,0.0,0.0,0.0,-1.7362,-1.8232,-1.8942,-2.024,-2.0597,-2.0443,-2.1129,-2.0761,-1.9959,-1.9951,-1.9722,-1.9466,-1.9754,-1.969,-1.9418,-1.9186,-1.9726,-2.0379,-2.0379,-2.0392,-2.0386,-2.0386,-2.0385,-2.0388,-2.0392,-2.0379,-2.0379,-2.0379,-2.0379,-2.0379,-2.0379,-2.0379,-2.0379,-2.0379,-2.0395,-2.0365,-2.0316,-1.991,-1.9535,-1.9335,-1.931,-1.9038,-1.836,-1.827,-1.8556,-1.9259,-1.9274,-1.9616,-2.0517,-2.1043,-2.1822,-2.2872,-2.3417,-2.371,-2.371,-2.371,-2.381,-2.4042,-2.4192,-2.4452,-2.4804,-2.4576,-2.4473,1.5051,1.3564,1.1795,1.0192,0.8394,0.0,0.7481,0.9511,1.2095,1.4713,1.7702,2.0167,2.1195,2.1668,2.2017,2.2303,2.2371,2.2667,0.0,0.0,0.0,0.0,0.0,0.0,0.0,0.0,0.0,0.0,0.0,0.0,0.0,0.0,1.0624,0.6328,0.0704,-0.4066,-0.7864,-1.295,-1.3684,-1.014,-0.9331,-0.7582,-0.5046,-0.5126,0.0,0.0,0.0,0.0,0.0,-1.5147,-1.6545,-1.791,-1.9694,-2.0044,-1.9698,-2.0658,-2.0211,-1.9122,-1.9097,-1.8858,-1.8653,-1.9087,-1.9185,-1.8997,-1.8398,-1.9199,-2.0313,-2.0313,-2.0306,-2.0298,-2.0298,-2.0289,-2.0307,-2.0307,-2.0307,-2.0298,-2.0304,-2.0296,-2.0298,-2.0304,-2.0296,-2.0307,-2.0307,-2.0297,-2.0213,-1.9945,-1.957,-1.93,-1.9285,-1.8967,-1.8497,-1.7867,-1.78,-1.8011,-1.856,-1.8763,-1.9194,-1.9994,-2.0664,-2.1476,-2.2429,-2.2935,-2.3189,-2.3189,-2.3189,-2.3282,-2.3522,-2.3642,-2.3871,-2.4191,-2.3989,-2.3749,0.0,1.2686,1.1297,1.0081,0.8776,0.8298,1.0053,1.1874,0.0,1.7019,1.9355,2.0895,2.107,2.1368,2.1628,2.1642,2.1874,2.2252,0.0,0.0,0.0,0.0,0.0,0.0,0.0,0.0,0.0,0.0,0.0,0.0,0.0,0.0,1.4422,1.0721,0.355,-0.2534,-0.7287,-1.2274,-1.1595,-0.5341,-0.255,-0.0163,0.1761,0.0493,0.0,0.0,0.0,0.0,0.0,-1.2615,-1.4475,-1.6181,-1.8202,-1.8942,-1.8908,-1.8922,-1.8459,-1.782,-1.7772,-1.7754,-1.779,-1.8052,-1.834,-1.8449,-1.7713,-1.8733,-2.0114,-2.0114,-2.0121,-2.014,-2.0209,-2.022,-2.0224,-2.0236,-2.0217,-2.0225,-2.0231,-2.0272,-2.0293,-2.0231,-2.0224,-2.0217,-2.0217,-2.0236,-2.002,-1.9401,-1.9291,-1.9291,-1.9306,-1.8436,-1.7761,-1.767,-1.7666,-1.7658,-1.7652,-1.8251,-1.8638,-1.8704,-2.0261,-2.1226,-2.1301,-2.2417,-2.3052,-2.3052,-2.3076,-2.3076,-2.3076,-2.31,-2.31,-2.31,-2.3047,-2.2641,1.3271,0.0,1.0289,1.0495,0.9847,0.9548,0.0,1.3228,1.563,1.7717,1.9878,2.1535,2.1915,2.1764,2.1718,2.2077,2.1911,2.2259,0.0,0.0,0.0,0.0,0.0,0.0,0.0,0.0,0.0,0.0,0.0,0.0,0.0,0.0,1.5456,1.3728,0.8139,0.2903,-0.1817,-0.3758,-0.3173,-0.0148,0.0911,0.3588,0.7563,0.5958,0.0,0.0,0.0,0.0,-0.9321,-1.2067,-1.4157,-1.5693,-1.6563,-1.6554,-1.6071,-1.6238,-1.6209,-1.6104,-1.6246,-1.6347,-1.6386,-1.6434,-1.6532,-1.654,-1.6361,-1.7308,-1.8455,-1.8402,-1.8381,-1.8567,-1.9346,-1.953,-1.9532,-1.9543,-1.9531,-1.9545,-1.9537,-1.9938,-2.0146,-1.9635,-1.9538,-1.9531,-1.9531,-1.9536,-1.9472,-1.9324,-1.9303,-1.929,-1.9304,-1.8437,-1.7406,-1.6385,-1.6259,-1.6271,-1.6269,-1.7706,-1.891,-1.9611,-2.0024,-2.0574,-2.1351,-2.1467,-2.1516,-2.1516,-2.1778,-2.1888,-2.1888,-2.2099,-2.2217,-2.22,-2.1475,-2.1046,1.3701,1.2674,1.1464,1.2033,1.1843,1.1959,1.3488,1.5408,1.7398,1.9156,2.0891,2.2119,2.2198,2.2446,2.253,2.2231,2.2745,0.0,0.0,0.0,0.0,0.0,0.0,0.0,0.0,0.0,0.0,0.0,0.0,0.0,0.0,0.0,1.6655,1.5113,1.1811,0.7414,0.1845,0.2173,0.4245,0.794,0.8284,1.0086,1.309,1.1825,0.9464,0.0,0.0,0.0,-0.4838,-0.6425,-1.0234,-1.501,-1.4694,-1.3849,-1.2984,-1.4015,-1.4309,-1.4299,-1.4896,-1.5272,-1.5469,-1.5422,-1.5533,-1.5704,-1.5525,-1.5843,-1.6397,-1.7132,-1.7552,-1.7924,-1.848,-1.8625,-1.8609,-1.8621,-1.8954,-1.9314,-1.9308,-1.9586,-1.9723,-1.9374,-1.9298,-1.9143,-1.8679,-1.8618,-1.877,-1.9236,-1.8906,-1.8397,-1.776,-1.7224,-1.6594,-1.588,-1.5807,-1.5492,-1.4689,-1.5536,-1.7176,-1.9712,-1.9839,-1.9846,-1.9872,-2.048,-2.0767,-2.0635,-2.0573,-2.0512,-2.0445,-2.0902,-2.0828,-2.0279,-2.0286,-1.9693,1.4875,1.487,1.4606,1.4395,1.4463,1.5044,1.6848,1.8071,1.9346,2.0991,0.0,2.2634,2.248,2.3162,0.0,0.0,0.0,0.0,0.0,0.0,0.0,0.0,0.0,0.0,0.0,0.0,0.0,0.0,0.0,0.0,0.0,0.0,0.0,1.5382,1.4121,1.078,0.5156,0.6822,1.0444,1.5816,1.5753,1.634,1.7449,1.6458,1.4485,0.0,0.0,0.0,0.0482,-0.0029,-0.4989,-1.2266,-1.1848,-1.0973,-1.0173,-1.1673,-1.2298,-1.2482,-1.3539,-1.4133,-1.4353,-1.4365,-1.4608,-1.489,-1.4612,-1.4165,-1.4083,-1.5534,-1.6617,-1.7321,-1.7442,-1.7484,-1.7555,-1.7753,-1.845,-1.9066,-1.9076,-1.9075,-1.9054,-1.9058,-1.9055,-1.8792,-1.7947,-1.7805,-1.8081,-1.893,-1.8168,-1.7076,-1.5943,-1.5796,-1.571,-1.5447,-1.541,-1.479,-1.3322,-1.3205,-1.4785,-1.8455,-1.8702,-1.8522,-1.8037,-1.9487,-2.0169,-1.9882,-1.9415,-1.9101,-1.8923,-1.9489,-1.917,-1.8115,-1.8951,-1.8315,1.7233,1.9521,2.0935,1.7616,1.7387,1.8393,1.9767,2.076,2.1713,2.2678,0.0,2.2989,0.0,2.375,2.3723,0.0,0.0,0.0,0.0,0.0,0.0,0.0,0.0,0.0,0.0,0.0,0.0,0.0,0.0,0.0,0.0,0.0,1.6346,1.4544,1.3189,1.1873,1.0532,1.1697,1.4112,1.7671,1.6384,1.6677,1.8248,1.6084,1.4224,0.0,0.0,0.8418,0.2668,-0.0123,-0.1666,-0.2564,-0.6117,-0.8109,-0.8848,-0.8182,-0.9099,-1.0802,-1.1839,-1.1902,-1.1603,-1.2117,-1.2307,-1.2354,-1.2295,-1.189,-1.1519,-1.2012,-1.3537,-1.517,-1.5905,-1.6104,-1.6394,-1.7542,-1.7916,-1.8014,-1.8038,-1.8043,-1.8029,-1.8034,-1.8038,-1.7973,-1.7822,-1.7815,-1.784,-1.8005,-1.6929,-1.6028,-1.5823,-1.5815,-1.5224,-1.3757,-1.3603,-1.35,-1.322,-1.3195,-1.3496,-1.4141,-1.4211,-1.5238,-1.7565,-1.8484,-1.8751,-1.8416,-1.8338,-1.8082,-1.7574,-1.7695,-1.7419,-1.6778,-1.6384,-1.6269,1.9198,2.1326,2.3178,2.2491,2.3067,2.381,2.3959,2.4249,2.4437,2.4224,0.0,0.0,0.0,0.0,0.0,0.0,0.0,0.0,0.0,0.0,0.0,0.0,0.0,0.0,0.0,0.0,0.0,0.0,0.0,0.0,0.0,0.0,1.5793,1.4065,1.3299,1.2867,1.2857,1.3356,1.4534,1.6319,1.636,1.7045,1.8199,1.7333,1.5999,1.4331,0.0,1.1252,0.6759,0.4826,0.2819,0.0692,-0.1967,-0.3798,-0.5005,-0.5567,-0.7271,-0.9345,-0.9545,-1.0195,-1.0908,-1.0939,-1.1345,-1.1737,-1.1398,-1.0929,-1.0492,-1.0309,-1.1486,-1.2799,-1.2829,-1.3237,-1.3932,-1.5037,-1.6044,-1.6929,-1.765,-1.7793,-1.7796,-1.7796,-1.7205,-1.6719,-1.6734,-1.6731,-1.6722,-1.6709,-1.6179,-1.5796,-1.5786,-1.4972,-1.411,-1.3272,-1.319,-1.3209,-1.3195,-1.3208,-1.3201,-1.3201,-1.3192,-1.3814,-1.5184,-1.6292,-1.6837,-1.6786,-1.6797,-1.6518,-1.5906,-1.6829,-1.6704,-1.5548,-1.6094,-1.6064,2.1001,2.3049,2.5321,2.6885,2.7646,2.7947,2.7928,2.7522,2.7025,2.6637,0.0,0.0,0.0,0.0,0.0,0.0,0.0,0.0,0.0,0.0,0.0,0.0,0.0,0.0,0.0,0.0,0.0,0.0,0.0,0.0,0.0,0.0,1.5298,1.3916,1.356,1.3532,1.3884,1.3798,1.4239,1.5154,1.6225,1.7092,1.7723,1.7826,1.6958,1.5397,1.4977,1.3093,1.0215,0.8658,0.603,0.2871,0.1405,-0.0044,-0.1545,-0.3659,-0.5691,-0.738,-0.7684,-0.8776,-0.9964,-0.9895,-1.0417,-1.0998,-1.0502,-1.0041,-0.9591,-0.9315,-0.9848,-1.0467,-1.0345,-1.0858,-1.1623,-1.2352,-1.3901,-1.5477,-1.6489,-1.7035,-1.7316,-1.7327,-1.6486,-1.5811,-1.5814,-1.579,-1.5659,-1.5242,-1.5181,-1.5201,-1.5177,-1.4025,-1.3205,-1.3203,-1.32,-1.3015,-1.2567,-1.2506,-1.2315,-1.1766,-1.2677,-1.3116,-1.2866,-1.3975,-1.4788,-1.5312,-1.5334,-1.5134,-1.4734,-1.6059,-1.6048,-1.4784,-1.6022,-1.6046,2.2734,2.6082,2.942,2.9387,2.8587,2.8425,3.0815,2.9938,2.9137,3.0854,0.0,0.0,0.0,0.0,0.0,0.0,0.0,0.0,0.0,0.0,0.0,0.0,0.0,0.0,0.0,0.0,0.0,0.0,0.0,0.0,0.0,0.0,0.0,1.4084,1.3594,1.3565,1.4084,1.3606,1.4287,1.6208,1.6285,1.6522,1.6853,1.5844,1.5228,1.4877,1.3295,1.2212,1.1296,0.7558,0.627,0.6403,0.4216,0.1917,-0.04,-0.28,-0.3814,-0.4314,-0.6892,-0.759,-0.7439,-0.8496,-0.8878,-0.891,-0.8869,-0.8472,-0.8152,-0.8635,-0.8464,-0.8488,-0.9924,-1.0339,-1.0419,-1.0481,-1.1991,-1.3401,-1.3525,-1.4805,-1.5948,-1.5953,-1.5884,-1.5798,-1.5788,-1.5786,-1.5266,-1.3619,-1.3395,-1.338,-1.3383,-1.3284,-1.3203,-1.3182,-1.3185,-1.246,-1.066,-1.052,-0.9618,-0.7577,-1.1086,-1.2826,-1.1954,-1.1981,-1.2747,-1.4204,-1.423,-1.4433,-1.4773,-1.4935,-1.4972,-1.4891,-1.5005,-1.5257,2.3304,2.6265,2.9313,2.9986,2.9701,2.9886,3.243,3.2096,3.1077,3.0545,3.0169,0.0,0.0,0.0,0.0,0.0,0.0,0.0,0.0,0.0,0.0,0.0,0.0,0.0,0.0,0.0,0.0,0.0,0.0,0.0,0.0,0.0,0.0,1.4127,1.4202,1.4323,1.446,1.4323,1.4935,1.6285,1.5867,1.5962,1.6474,1.5751,1.4795,1.3663,1.2783,1.1226,0.9147,0.768,0.6385,0.5277,0.4056,0.214,-0.0089,-0.1016,-0.2295,-0.3807,-0.5353,-0.6379,-0.712,-0.7938,-0.8542,-0.8887,-0.8547,-0.8298,-0.8126,-0.799,-0.7674,-0.7641,-0.8981,-0.9457,-0.9716,-1.019,-1.0862,-1.1727,-1.2954,-1.3722,-1.4487,-1.5576,-1.5787,-1.5802,-1.579,-1.4917,-1.3955,-1.3311,-1.3205,-1.3187,-1.3196,-1.3209,-1.32,-1.3185,-1.321,-1.2421,-1.0482,-0.9055,-0.7904,-0.7062,-0.849,-0.9522,-0.9848,-1.0474,-1.1347,-1.2505,-1.3217,-1.3594,-1.3667,-1.4389,-1.4751,-1.4853,-1.5168,-1.5647,2.4562,2.6923,2.9272,3.0358,3.0624,3.1133,3.3087,3.2954,3.2256,3.1641,3.114,3.0422,2.9136,0.0,0.0,0.0,0.0,0.0,0.0,0.0,0.0,0.0,0.0,0.0,0.0,0.0,0.0,0.0,0.0,0.0,0.0,0.0,0.0,0.0,1.4845,1.4993,1.5047,1.5093,1.5567,1.6448,1.5769,1.5619,1.5924,1.5448,1.4349,1.2805,1.2378,1.0726,0.8294,0.796,0.6577,0.4609,0.3873,0.2578,0.1064,0.0267,-0.1197,-0.2964,-0.3982,-0.5153,-0.6265,-0.6881,-0.7574,-0.8091,-0.7533,-0.749,-0.7497,-0.6963,-0.6749,-0.6816,-0.7607,-0.8152,-0.8822,-1.0028,-1.0303,-1.0677,-1.2,-1.2294,-1.3018,-1.5531,-1.5448,-1.4992,-1.4993,-1.4007,-1.32,-1.3208,-1.32,-1.3198,-1.3198,-1.3198,-1.3188,-1.3204,-1.265,-1.1735,-1.041,-0.8262,-0.6997,-0.6997,-0.7011,-0.7346,-0.8125,-0.8837,-0.9718,-1.0861,-1.1592,-1.2236,-1.2786,-1.3572,-1.4227,-1.4798,-1.5124,-1.5555,2.6747,2.8461,2.9899,3.0715,3.1345,3.199,3.2736,3.2334,3.2512,3.4976,3.2744,3.011,2.9256,0.0,0.0,0.0,0.0,0.0,0.0,0.0,0.0,0.0,0.0,0.0,0.0,0.0,0.0,0.0,0.0,0.0,0.0,0.0,0.0,0.0,1.549,1.5465,1.5799,1.5799,1.6144,1.6815,1.6128,1.5573,1.5104,1.469,1.3736,1.239,1.197,1.0895,0.9399,0.8253,0.68,0.5173,0.4029,0.3588,0.3322,0.0932,-0.0489,-0.1418,-0.3011,-0.3946,-0.4478,-0.5087,-0.5701,-0.6099,-0.548,-0.5701,-0.6056,-0.548,-0.5588,-0.5912,-0.5912,-0.6446,-0.7556,-0.9763,-1.0272,-1.0273,-1.0283,-1.0288,-1.1503,-1.5663,-1.4734,-1.3238,-1.3231,-1.3208,-1.3206,-1.321,-1.3198,-1.321,-1.321,-1.321,-1.3191,-1.3176,-1.1459,-1.0273,-1.028,-0.825,-0.6956,-0.6952,-0.6965,-0.6976,-0.697,-0.7004,-0.7702,-0.9238,-0.929,-1.025,-1.2256,-1.2256,-1.3093,-1.4652,-1.4652,-1.4652,2.5518,2.7437,2.9546,3.0694,0.0,0.0,0.0,3.2778,0.0,0.0,3.0874,2.8517,2.8823,0.0,0.0,0.0,0.0,0.0,0.0,0.0,0.0,0.0,0.0,0.0,0.0,0.0,0.0,0.0,0.0,0.0,0.0,0.0,0.0,0.0,1.6038,1.628,1.6141,1.656,1.7,1.7436,1.7,1.6502,1.5909,1.4854,1.3794,1.2724,1.1307,0.9992,0.8788,0.6855,0.5293,0.4056,0.3748,0.3615,0.3524,0.281,0.1289,-0.0577,-0.2163,-0.3184,-0.3986,-0.4995,-0.5546,-0.5805,-0.5625,-0.5715,-0.59,-0.6107,-0.6041,-0.601,-0.6532,-0.6828,-0.7179,-0.7817,-0.7972,-0.8415,-0.9981,-1.0312,-1.1048,-1.3647,-1.4917,-1.5538,-1.5507,-1.4236,-1.3201,-1.321,-1.3194,-1.3212,-1.3215,-1.3204,-1.2681,-1.1309,-1.0633,-0.9652,-0.8111,-0.5931,-0.4604,-0.4608,-0.4617,-0.4957,-0.5764,-0.6073,-0.6623,-0.7521,-0.7989,-0.8697,-0.9579,-0.9995,-1.0754,-1.1874,-1.2167,-1.2666,2.6929,2.8594,0.0,3.1614,3.2013,3.2191,3.2666,0.0,0.0,0.0,0.0,2.8118,0.0,0.0,0.0,0.0,0.0,0.0,0.0,0.0,0.0,0.0,0.0,0.0,0.0,0.0,0.0,0.0,0.0,0.0,0.0,0.0,0.0,0.0,1.6857,1.712,1.7057,1.7517,1.7851,1.8056,1.7742,1.7261,1.6622,1.5228,1.391,1.2655,1.0392,0.8937,0.8047,0.6457,0.5423,0.4763,0.4678,0.4491,0.4228,0.3788,0.2355,0.0533,-0.0884,-0.1945,-0.2879,-0.4176,-0.4741,-0.487,-0.4884,-0.5169,-0.5495,-0.5405,-0.5173,-0.5082,-0.5543,-0.5641,-0.5658,-0.5647,-0.6325,-0.7349,-0.8692,-0.9003,-0.96,-1.1634,-1.3666,-1.512,-1.5197,-1.4088,-1.3192,-1.3212,-1.252,-1.205,-1.2068,-1.2061,-1.1278,-0.9193,-0.901,-0.8439,-0.7098,-0.4895,-0.3602,-0.3611,-0.3618,-0.3894,-0.4583,-0.4871,-0.5298,-0.5941,-0.6535,-0.7105,-0.7747,-0.8139,-0.8809,-0.9737,-1.0011,-1.0468,2.9751,3.082,3.136,3.2964,3.3563,0.0,3.2759,3.2496,3.24,3.2359,0.0,0.0,0.0,0.0,0.0,0.0,0.0,0.0,0.0,0.0,0.0,0.0,0.0,0.0,0.0,0.0,0.0,0.0,0.0,0.0,0.0,0.0,0.0,0.0,1.7793,1.7928,1.8252,1.851,1.8624,0.0,1.8353,1.7847,1.7076,1.5587,1.3864,1.1882,0.9357,0.7879,0.7192,0.6772,0.6547,0.6454,0.6211,0.5744,0.5087,0.4073,0.2926,0.1777,0.0578,-0.0355,-0.1242,-0.2773,-0.3309,-0.3385,-0.336,-0.4131,-0.4807,-0.3851,-0.3581,-0.3581,-0.3581,-0.3581,-0.3612,-0.3601,-0.5194,-0.6742,-0.697,-0.684,-0.7324,-0.9588,-1.144,-1.2704,-1.2906,-1.295,-1.295,-1.2933,-1.1437,-1.0228,-1.0048,-0.9992,-0.9217,-0.7212,-0.699,-0.693,-0.6696,-0.4813,-0.351,-0.3303,-0.3499,-0.3598,-0.3598,-0.3581,-0.3904,-0.4582,-0.4971,-0.5595,-0.6496,-0.6541,-0.6984,-0.7796,-0.8029,-0.817,2.8558,2.9455,0.0,3.2571,3.3293,3.3279,3.2466,3.1638,3.0885,3.0426,0.0,0.0,0.0,0.0,0.0,0.0,0.0,0.0,0.0,0.0,0.0,0.0,0.0,0.0,0.0,0.0,0.0,0.0,0.0,0.0,0.0,0.0,0.0,1.7726,1.8156,1.8476,1.8664,1.8942,1.8975,0.0,1.8429,1.771,1.6593,1.5023,1.2395,0.9086,0.8728,0.7634,0.6077,0.6216,0.6006,0.5577,0.5503,0.513,0.4561,0.4299,0.3778,0.3034,0.1823,0.1108,0.0532,-0.0444,-0.1197,-0.173,-0.1733,-0.2093,-0.2682,-0.3407,-0.3595,-0.3592,-0.3581,-0.3581,-0.3622,-0.3609,-0.3982,-0.4803,-0.66,-0.5587,-0.5001,-0.7278,-0.9414,-1.0885,-1.0914,-1.0933,-1.0905,-1.0909,-1.0574,-0.9684,-0.7928,-0.7706,-0.752,-0.7038,-0.7021,-0.6276,-0.4492,-0.3891,-0.2788,-0.0886,-0.2546,-0.3598,-0.3598,-0.3585,-0.3667,-0.3847,-0.3929,-0.4094,-0.4295,-0.4481,-0.4691,-0.4828,-0.5604,-0.6486,2.8324,2.9587,0.0,3.304,0.0,3.2675,3.2125,3.0971,2.9787,0.0,0.0,0.0,0.0,0.0,0.0,0.0,0.0,0.0,0.0,0.0,0.0,0.0,0.0,0.0,0.0,0.0,0.0,0.0,0.0,0.0,0.0,1.8802,1.8542,1.8697,1.8822,1.8927,1.8988,1.9261,1.9261,1.8988,1.8229,1.6649,1.4366,1.3349,1.1233,0.832,0.785,0.6907,0.5722,0.5897,0.5949,0.5949,0.6072,0.5776,0.526,0.526,0.47,0.3873,0.2973,0.2532,0.2268,0.1869,0.1424,0.0977,0.04,-0.0311,-0.1071,-0.1697,-0.1876,-0.1876,-0.1871,-0.2724,-0.3588,-0.3581,-0.3598,-0.3934,-0.513,-0.4423,-0.429,-0.6539,-0.7953,-0.8741,-0.8716,-0.8736,-0.9077,-1.0151,-0.9395,-0.8303,-0.7147,-0.6996,-0.6985,-0.7005,-0.6002,-0.4904,-0.3712,-0.3602,-0.2578,-0.0133,-0.1159,-0.1876,-0.1875,-0.1865,-0.1869,-0.1875,-0.2422,-0.2725,-0.2723,-0.3465,-0.3493,-0.2926,-0.3999,-0.4824,2.8429,3.0283,3.1955,3.3351,3.2876,0.0,3.161,3.0392,2.9045,0.0,0.0,0.0,0.0,0.0,0.0,0.0,0.0,0.0,0.0,0.0,0.0,0.0,0.0,0.0,0.0,0.0,0.0,0.0,0.0,0.0,2.1087,2.0189,1.9738,1.9914,1.964,1.9435,1.9345,1.9545,1.9439,1.9047,1.7373,1.4824,1.157,1.1039,0.9839,0.8079,0.6913,0.6089,0.559,0.5717,0.6064,0.6566,0.6886,0.6683,0.6179,0.6093,0.5351,0.4343,0.377,0.3609,0.3581,0.3592,0.3612,0.3443,0.242,0.1391,0.0541,0.0134,0.0,0.0,0.0,-0.1784,-0.3598,-0.3585,-0.3605,-0.3591,-0.3619,-0.3581,-0.4156,-0.6027,-0.6748,-0.7009,-0.6997,-0.7011,-0.7613,-0.9466,-0.8185,-0.7014,-0.6996,-0.7015,-0.6849,-0.6437,-0.471,-0.3619,-0.3588,-0.3226,-0.2144,-0.0134,0.0401,0.0625,0.0623,0.0599,0.0648,0.0766,-0.0726,-0.1499,-0.1489,-0.2506,-0.2459,-0.1536,-0.2536,-0.3192,2.8283,0.0,3.232,0.0,3.163,3.1304,0.0,0.0,0.0,0.0,0.0,0.0,0.0,0.0,0.0,0.0,0.0,0.0,0.0,0.0,0.0,0.0,0.0,0.0,0.0,0.0,0.0,0.0,0.0,0.0,2.1495,2.127,2.0879,2.0345,2.0495,2.0356,1.9903,1.9813,1.9378,1.855,1.4966,1.1955,0.9535,0.8167,0.7244,0.6758,0.6315,0.5708,0.5076,0.5823,0.6168,0.6301,0.6797,0.6683,0.6136,0.561,0.5,0.4303,0.3792,0.3578,0.3581,0.3581,0.3718,0.3804,0.3449,0.3266,0.2672,0.0585,0.0,0.0,0.0,-0.1784,-0.3609,-0.3585,-0.3585,-0.3588,-0.3581,-0.3595,-0.3698,-0.401,-0.5647,-0.7018,-0.6981,-0.6992,-0.7098,-0.7413,-0.7199,-0.6982,-0.7024,-0.6984,-0.6256,-0.4256,-0.3762,-0.3605,-0.3581,-0.1682,-0.0356,-0.0,0.1966,0.3141,0.3141,0.3119,0.3367,0.3906,0.1171,-0.0244,-0.0236,-0.0391,-0.039,-0.0235,-0.0393,-0.1583,2.8246,2.9764,3.0723,0.0,3.1054,3.0632,3.0283,0.0,0.0,0.0,0.0,0.0,0.0,0.0,0.0,0.0,0.0,0.0,0.0,0.0,0.0,0.0,0.0,0.0,0.0,0.0,0.0,0.0,0.0,2.1858,2.2463,2.2203,2.1789,2.1309,2.1535,2.1111,2.0012,2.0198,1.8759,1.5663,1.2794,1.0189,0.7855,0.6789,0.6103,0.5802,0.5365,0.5147,0.5171,0.5524,0.6087,0.6683,0.6894,0.6852,0.6598,0.6337,0.569,0.487,0.4618,0.4144,0.3581,0.3581,0.3725,0.3835,0.3628,0.3615,0.3366,0.232,0.1999,0.1698,0.0356,0.0223,0.0089,-0.1246,-0.2637,-0.3595,-0.3592,-0.3619,-0.3595,-0.3618,-0.5443,-0.702,-0.6999,-0.7555,-0.7793,-0.708,-0.759,-0.8021,-0.801,-0.6574,-0.5232,-0.4201,-0.4087,-0.3428,-0.1748,-0.0605,0.0599,0.1935,0.3025,0.3595,0.3592,0.3623,0.3903,0.4498,0.1534,0.0,0.0,0.0,0.0,0.0,0.0,0.0312,2.7276,0.0,2.8868,3.0058,3.0125,2.9898,0.0,0.0,0.0,0.0,0.0,0.0,0.0,0.0,0.0,0.0,0.0,0.0,0.0,0.0,0.0,0.0,0.0,0.0,0.0,0.0,0.0,0.0,0.0,2.2635,2.3165,2.3027,2.2739,2.2309,2.2454,2.1903,2.057,2.0,1.7445,1.2941,1.1009,0.8759,0.6337,0.5594,0.5,0.4539,0.4299,0.457,0.514,0.5265,0.5905,0.681,0.6937,0.6979,0.6979,0.6852,0.6252,0.548,0.5173,0.4526,0.3796,0.3622,0.3676,0.3792,0.3698,0.3728,0.3812,0.3665,0.3618,0.3185,0.14,0.225,0.3141,0.1336,-0.0936,-0.2834,-0.3459,-0.3612,-0.3581,-0.3585,-0.4983,-0.6181,-0.6335,-0.7116,-0.7401,-0.6502,-0.7121,-0.7672,-0.7502,-0.5614,-0.4048,-0.3444,-0.3357,-0.2467,-0.0189,0.0569,0.1754,0.3714,0.3853,0.3826,0.3817,0.3818,0.4056,0.4485,0.2265,0.114,0.1123,0.1131,0.113,0.112,0.1159,0.2359,0.0,2.5985,0.0,2.7489,2.8299,0.0,0.0,0.0,0.0,0.0,0.0,0.0,0.0,0.0,0.0,0.0,0.0,0.0,0.0,0.0,0.0,0.0,0.0,0.0,0.0,0.0,0.0,0.0,0.0,2.3165,2.3189,2.378,2.3805,2.3163,2.3143,2.2824,2.2096,1.8703,1.5148,1.1506,0.9743,0.7452,0.481,0.4031,0.3309,0.2578,0.3303,0.4064,0.4771,0.514,0.5653,0.6307,0.681,0.6979,0.6937,0.6435,0.6227,0.6007,0.4826,0.4391,0.4264,0.3751,0.3676,0.3792,0.3852,0.4152,0.4317,0.3754,0.3607,0.3554,0.3447,0.3501,0.3547,0.3445,0.1561,-0.0813,-0.3102,-0.3589,-0.3612,-0.3579,-0.3701,-0.3983,-0.4554,-0.4682,-0.4699,-0.4638,-0.4662,-0.4525,-0.3938,-0.373,-0.2761,-0.0474,-0.0255,-0.0148,-0.0,0.2095,0.3687,0.4396,0.4458,0.4446,0.4431,0.445,0.4485,0.4481,0.4351,0.4292,0.4256,0.429,0.4287,0.426,0.4287,0.4353,0.0,0.0,0.0,2.6345,2.6825,2.7323,0.0,0.0,0.0,0.0,0.0,0.0,0.0,0.0,0.0,0.0,0.0,0.0,0.0,0.0,0.0,0.0,0.0,0.0,0.0,0.0,0.0,0.0,0.0,0.0,2.3165,2.3631,2.3673,2.3219,2.3735,2.3197,2.1446,1.7279,1.417,1.2141,0.8724,0.5713,0.3242,0.3506,0.3034,0.2089,0.3312,0.4417,0.5335,0.532,0.6,0.7045,0.7264,0.7188,0.7005,0.7017,0.6508,0.5705,0.525,0.4616,0.3982,0.3806,0.3751,0.3812,0.3862,0.4182,0.4453,0.4247,0.4164,0.4094,0.3687,0.3586,0.3605,0.3612,0.1739,-0.0225,-0.1082,-0.2825,-0.4083,-0.3685,-0.3599,-0.3783,-0.4393,-0.4487,-0.4485,-0.4481,-0.285,-0.1532,-0.1342,-0.1293,-0.0969,-0.0106,0.0,0.0,0.0,0.2197,0.3016,0.1675,0.3423,0.4474,0.4524,0.4474,0.4492,0.4523,0.452,0.4523,0.448,0.4474,0.4515,0.4502,0.4501,0.4522,2.399,0.0,0.0,0.0,0.0,2.5955,0.0,0.0,0.0,0.0,0.0,0.0,0.0,0.0,0.0,0.0,0.0,0.0,0.0,0.0,0.0,0.0,0.0,0.0,0.0,0.0,0.0,0.0,0.0,0.0,2.2996,2.3346,2.3443,2.3216,2.3635,2.2589,1.9953,1.6789,1.3964,1.1496,0.7782,0.4897,0.2812,0.3368,0.2924,0.1842,0.2916,0.4355,0.5851,0.5641,0.635,0.7622,0.7622,0.7502,0.7348,0.7548,0.7065,0.6225,0.5799,0.5189,0.4483,0.401,0.387,0.3897,0.3999,0.4404,0.4801,0.4548,0.4488,0.4427,0.4026,0.3746,0.3618,0.3584,0.1761,0.0229,0.1024,-0.0988,-0.2865,-0.2459,-0.3214,-0.4052,-0.4425,-0.4497,-0.4144,-0.3125,-0.1258,0.0,0.0,0.0,0.0,0.0,0.0,0.0,0.0,0.2423,0.3234,0.1633,0.3387,0.4522,0.4519,0.4508,0.4491,0.4522,0.5475,0.5928,0.5923,0.5928,0.5919,0.5955,0.5955,0.5955,0.0,0.0,0.0,0.0,0.0,0.0,0.0,0.0,0.0,0.0,0.0,0.0,0.0,0.0,0.0,0.0,0.0,0.0,0.0,0.0,0.0,0.0,0.0,0.0,0.0,0.0,0.0,0.0,0.0,2.2235,2.2669,2.3021,2.3189,2.3189,2.2768,2.1005,1.7777,1.7194,1.4346,0.931,0.6886,0.5027,0.3613,0.3509,0.2893,0.1871,0.212,0.3723,0.6204,0.6049,0.6761,0.7895,0.7895,0.7888,0.7882,0.7895,0.7895,0.7698,0.6476,0.6034,0.579,0.4515,0.4072,0.4096,0.4195,0.4867,0.5431,0.4736,0.4491,0.4485,0.4517,0.4029,0.3585,0.3491,0.1706,0.0658,0.3058,0.1713,0.0,0.0,-0.2385,-0.4393,-0.4393,-0.4348,-0.336,-0.0447,0.0,0.0,0.0,0.0,0.0,0.0,0.0106,0.0157,0.0151,0.2812,0.4488,0.4474,0.4508,0.4473,0.4519,0.4484,0.4522,0.4631,0.7361,0.8803,0.8791,0.8803,0.8782,0.8775,0.8775,0.8775,2.3596,0.0,0.0,0.0,0.0,0.0,0.0,0.0,0.0,0.0,0.0,0.0,0.0,0.0,0.0,0.0,0.0,0.0,0.0,0.0,0.0,0.0,0.0,0.0,0.0,0.0,0.0,0.0,2.0684,2.124,2.2207,2.2855,2.3076,2.2785,2.1614,1.9609,1.6665,1.5031,1.2014,0.7627,0.5756,0.4535,0.385,0.1886,0.1783,0.3059,0.2467,0.381,0.647,0.6122,0.6913,0.825,0.825,0.8116,0.7908,0.817,0.7946,0.7436,0.708,0.6672,0.6213,0.5858,0.5653,0.559,0.5507,0.5563,0.5538,0.52,0.4809,0.4498,0.4502,0.4055,0.3158,0.14,0.0493,0.0677,0.3063,0.1704,0.0,0.0,-0.0661,-0.122,-0.1271,-0.1255,-0.0949,-0.0112,0.0,0.0,0.0,0.0,0.0,0.0,0.1938,0.326,0.325,0.4005,0.4529,0.4515,0.4498,0.4522,0.4519,0.4484,0.5475,0.7546,0.8413,0.8784,0.8822,0.8811,0.8798,0.8811,0.8811,0.8811,0.0,0.0,0.0,0.0,0.0,0.0,2.4366,2.4558,0.0,0.0,0.0,0.0,0.0,0.0,0.0,0.0,0.0,0.0,0.0,0.0,0.0,0.0,0.0,0.0,0.0,0.0,0.0,2.0296,2.0314,2.0684,2.1576,2.2051,2.2067,2.1616,2.0321,1.8094,1.489,1.345,1.0449,0.5931,0.4948,0.4398,0.4155,0.1898,0.1356,0.2072,0.1521,0.2943,0.5729,0.6317,0.7383,0.8557,0.8557,0.845,0.8317,0.849,0.8287,0.7869,0.7494,0.7109,0.6775,0.6622,0.6638,0.6564,0.5898,0.6016,0.6147,0.5207,0.5596,0.6037,0.4815,0.4038,0.3248,0.1849,0.1505,0.1865,0.3289,0.2491,0.1183,0.019,0.0,0.0,0.0,0.0,0.0,0.0,0.0,0.0,0.0,0.0,0.049,0.1725,0.3463,0.4501,0.4522,0.4473,0.4519,0.4498,0.4494,0.4491,0.4481,0.4504,0.5869,0.8725,0.8823,0.9356,1.0522,0.9377,0.8815,0.8775,0.8775,0.8775,0.0,0.0,0.0,0.0,0.0,0.0,2.443,2.4504,2.4564,0.0,0.0,0.0,0.0,0.0,0.0,0.0,0.0,0.0,0.0,0.0,0.0,0.0,0.0,0.0,0.0,2.0745,2.0615,2.0273,2.028,2.0449,2.0829,2.0894,2.0602,1.9955,1.8826,1.6425,1.274,1.1937,0.9167,0.4429,0.4473,0.4501,0.4455,0.291,0.1396,0.0,0.0335,0.1994,0.4559,0.6593,0.7979,0.8804,0.8804,0.8804,0.8804,0.8804,0.8811,0.8705,0.7824,0.7582,0.7508,0.707,0.7075,0.7076,0.5854,0.643,0.7125,0.5474,0.6849,0.8196,0.5622,0.4341,0.37,0.3639,0.361,0.3618,0.3581,0.3609,0.2978,0.08,0.039,0.0402,0.0403,0.0156,0.0,0.0,0.0,0.0112,0.0447,0.0501,0.1502,0.4196,0.4477,0.4473,0.4512,0.4512,0.4498,0.4518,0.4798,0.4957,0.4989,0.4954,0.6183,0.8738,0.9106,1.0438,1.2871,1.0436,0.9257,0.9257,0.9257,0.9257,0.0,0.0,0.0,0.0,0.0,0.0,2.2898,2.279,2.2965,0.0,0.0,0.0,0.0,0.0,0.0,0.0,0.0,0.0,0.0,0.0,0.0,0.0,0.0,0.0,0.0,2.0983,2.0788,1.9899,2.0124,2.0162,1.9904,2.0169,1.9717,1.8314,1.6662,1.4193,1.0915,0.9147,0.6956,0.4457,0.4473,0.4487,0.4442,0.2907,0.1396,0.0112,0.2581,0.3898,0.4559,0.6593,0.7979,0.8804,0.8804,0.8804,0.8804,0.8804,0.8785,0.8778,0.8611,0.8551,0.8459,0.7881,0.7241,0.6659,0.6742,0.7346,0.8043,0.7955,0.8384,0.8687,0.8101,0.6142,0.4192,0.3724,0.3612,0.3619,0.3592,0.3605,0.3443,0.2982,0.2883,0.2876,0.2878,0.1273,0.0,0.0,0.0,0.0891,0.3304,0.3635,0.3855,0.4421,0.4525,0.4508,0.4477,0.4477,0.4522,0.4494,0.6657,0.7949,0.7943,0.7937,0.8203,0.8797,1.0972,1.2358,1.291,1.2341,1.2085,1.2085,1.2085,1.2085,0.0,0.0,0.0,2.4452,0.0,0.0,0.0,2.2491,2.2532,0.0,0.0,0.0,0.0,0.0,0.0,0.0,0.0,0.0,0.0,0.0,0.0,0.0,0.0,0.0,0.0,2.1886,2.15,2.0273,2.0071,1.9773,1.9273,1.9462,1.8809,1.7155,1.5954,1.3788,1.0557,0.8378,0.6508,0.5003,0.4636,0.4484,0.4432,0.2903,0.1395,0.0168,0.32,0.4868,0.5575,0.6885,0.7979,0.8752,0.8374,0.8049,0.7723,0.7723,0.7687,0.7711,0.7711,0.7706,0.7553,0.6525,0.5667,0.5289,0.6659,0.7751,0.8564,0.8752,0.8818,0.8783,0.8824,0.665,0.4342,0.3721,0.3592,0.3618,0.3595,0.3581,0.3618,0.3614,0.3608,0.3695,0.3993,0.3069,0.2228,0.2228,0.2259,0.2788,0.4317,0.4477,0.4519,0.4501,0.4494,0.4481,0.4504,0.5806,0.6652,0.6666,0.8009,0.8777,0.8798,0.8818,0.9458,1.0828,1.219,1.289,1.2881,1.2909,1.2878,1.2878,1.2878,1.2878,0.0,0.0,0.0,0.0,0.0,2.3502,0.0,0.0,0.0,2.1987,0.0,0.0,0.0,0.0,0.0,0.0,0.0,0.0,0.0,0.0,0.0,0.0,0.0,0.0,0.0,2.2562,2.2034,2.0896,2.022,1.959,1.8945,1.8893,1.8182,1.6579,1.5842,1.4065,1.1094,0.8966,0.7256,0.5914,0.5226,0.4746,0.447,0.3239,0.2011,0.1006,0.3142,0.5093,0.6781,0.7117,0.7699,0.8321,0.7883,0.7343,0.6804,0.6529,0.6534,0.6544,0.6312,0.5819,0.5092,0.3672,0.2857,0.2931,0.5399,0.6761,0.7558,0.818,0.8153,0.7949,0.7961,0.6177,0.4193,0.3701,0.3611,0.3607,0.3729,0.3681,0.3741,0.4163,0.4453,0.4599,0.4497,0.4481,0.4513,0.4513,0.4501,0.4515,0.4515,0.4508,0.4491,0.4518,0.5019,0.535,0.5317,0.7447,0.8797,0.8778,0.8778,0.8811,0.8811,0.9318,1.0626,1.2849,1.289,1.2881,1.2881,1.2881,1.2881,1.2881,1.2881,1.2881,0.0,0.0,0.0,0.0,2.4578,0.0,0.0,0.0,2.1904,2.1279,0.0,0.0,0.0,0.0,0.0,0.0,0.0,0.0,0.0,0.0,0.0,0.0,0.0,0.0,0.0,0.0,2.1665,2.1255,2.0827,2.0078,1.8959,1.8893,1.8352,1.7137,1.5985,1.4407,1.2301,1.0961,0.9307,0.734,0.6704,0.5688,0.4505,0.4311,0.416,0.394,0.291,0.4281,0.729,0.6874,0.6756,0.6912,0.745,0.767,0.745,0.6396,0.6268,0.6425,0.516,0.2977,0.0494,-0.0961,-0.1499,-0.0957,0.2168,0.2869,0.3211,0.6026,0.595,0.4989,0.4992,0.433,0.3697,0.3609,0.3625,0.3729,0.4286,0.3983,0.4185,0.6235,0.7467,0.744,0.4947,0.4506,0.4504,0.4504,0.4501,0.4497,0.4497,0.4497,0.4494,0.449,0.6766,0.8334,0.8331,0.8624,0.8778,0.8824,0.8818,0.8811,0.8804,1.1131,1.2594,1.2908,1.289,1.2881,1.2881,1.2881,1.2881,1.2881,1.2881,1.2881,0.0,0.0,0.0,0.0,0.0,0.0,0.0,0.0,2.1561,0.0,0.0,0.0,0.0,0.0,0.0,0.0,0.0,0.0,0.0,0.0,0.0,0.0,0.0,0.0,0.0,0.0,0.0,0.0,0.0,2.0167,1.8959,1.9163,1.8777,1.7583,1.7343,1.6337,1.4513,1.3219,1.1474,0.9191,0.7774,0.6396,0.5046,0.407,0.3635,0.3638,0.4125,0.5504,0.7399,0.7306,0.7478,0.7842,0.7603,0.682,0.5764,0.5269,0.5234,0.5144,0.3671,0.2899,0.195,-0.2201,-0.3536,-0.3276,-0.1948,-0.0434,0.1031,0.2405,0.3583,0.4525,0.4485,0.4316,0.4101,0.4134,0.4134,0.4179,0.4431,0.5622,0.6924,0.786,0.8464,0.8429,0.7203,0.5618,0.5062,0.6727,0.7003,0.6993,0.6993,0.6993,0.6982,0.7004,0.8063,0.8811,0.8798,0.8798,0.8785,0.8811,0.8803,0.8788,0.8779,1.1429,1.2888,1.291,1.291,1.2881,1.2881,1.2881,1.2881,1.2881,1.2881,1.2881,2.423,0.0,0.0,0.0,0.0,0.0,0.0,0.0,0.0,0.0,0.0,0.0,0.0,0.0,0.0,0.0,0.0,0.0,0.0,0.0,0.0,0.0,0.0,0.0,0.0,0.0,0.0,2.1754,2.1261,2.0586,1.9671,1.9957,1.9779,1.8999,1.9178,1.8418,1.665,1.526,1.3358,1.0925,0.8857,0.7067,0.5534,0.4058,0.34,0.3511,0.5183,0.6405,0.7171,0.7354,0.7818,0.8315,0.7356,0.5732,0.3901,0.4356,0.448,0.4317,0.3244,0.3026,0.2411,-0.2805,-0.4504,-0.4497,-0.4497,-0.2961,-0.1056,-0.0221,0.1883,0.3944,0.4378,0.4517,0.4499,0.4488,0.4498,0.4492,0.4525,0.6147,0.7629,0.7622,0.8281,0.8802,0.8798,0.7047,0.6392,0.8508,0.8797,0.879,0.879,0.879,0.8824,0.8771,0.8825,0.8805,0.8811,0.8804,0.8804,0.8804,0.8815,0.9153,0.991,1.1846,1.29,1.2881,1.2881,1.2881,1.2881,1.2881,1.2881,1.2881,1.2881,1.2881,0.0,0.0,0.0,2.3131,0.0,0.0,0.0,0.0,2.0528,0.0,0.0,0.0,0.0,0.0,0.0,1.8824,0.0,0.0,0.0,0.0,0.0,0.0,0.0,0.0,0.0,0.0,0.0,2.1784,2.168,2.1583,2.145,2.1439,2.1584,2.1967,2.1462,2.0339,1.8544,1.6875,1.4838,1.2416,0.9887,0.7676,0.5846,0.4901,0.4477,0.4532,0.547,0.6173,0.6642,0.6642,0.6933,0.735,0.6351,0.4453,0.2454,0.3925,0.4504,0.4511,0.4455,0.2525,-0.0392,-0.3487,-0.4504,-0.4497,-0.4497,-0.4438,-0.3755,-0.0835,0.1113,0.2621,0.4132,0.4519,0.4508,0.4505,0.4508,0.4501,0.4518,0.4548,0.4635,0.4652,0.6913,0.8798,0.8811,0.8698,0.8684,0.8798,0.8798,0.8811,0.8811,0.8811,0.8811,0.8811,0.8811,0.8811,0.8804,0.8804,0.8804,0.8804,0.8815,0.9997,1.2669,1.2876,1.29,1.2881,1.2881,1.2881,1.2881,1.2881,1.2881,1.2881,1.2881,1.2881,0.0,0.0,2.3904,2.2368,0.0,0.0,0.0,0.0,0.0,0.0,0.0,0.0,0.0,0.0,1.7967,1.7388,1.7687,0.0,0.0,0.0,0.0,0.0,0.0,0.0,0.0,0.0,0.0,2.1141,2.1296,2.1554,0.0,2.2116,2.2704,2.3594,2.2703,2.1641,2.039,1.8293,1.586,1.315,1.1028,0.8761,0.6357,0.5546,0.4901,0.4577,0.5837,0.6431,0.6642,0.7128,0.7144,0.6727,0.5445,0.379,0.2242,0.2796,0.3646,0.4228,0.2188,0.084,-0.0168,-0.1174,-0.2179,-0.3188,-0.4209,-0.4501,-0.4278,-0.3254,-0.0501,0.2567,0.4092,0.4477,0.4519,0.4519,0.4519,0.4515,0.4501,0.4477,0.5062,0.6977,0.8152,0.8805,0.8811,0.8824,0.8785,0.8785,0.8818,0.8804,0.8804,0.8804,0.8804,0.8804,0.8804,0.8804,0.8804,0.8804,0.8804,0.8804,0.8815,1.0035,1.2786,1.2884,1.2889,1.29,1.292,1.2881,1.2881,1.2881,1.2881,1.2881,1.2881,1.2881,2.3188,2.3363,0.0,2.196,2.1647,0.0,2.1277,0.0,0.0,0.0,0.0,0.0,0.0,0.0,0.0,1.6872,1.6936,1.7087,0.0,1.8838,0.0,0.0,0.0,0.0,0.0,0.0,2.2128,2.0812,2.1271,2.1768,0.0,0.0,2.3451,2.4135,2.3484,2.2458,2.1019,1.865,1.6262,1.3828,1.1478,0.9137,0.6945,0.5973,0.5109,0.457,0.5714,0.6199,0.6253,0.674,0.6766,0.6415,0.4391,0.335,0.3035,0.3026,0.2968,0.2635,0.0672,0.0,0.0,0.0,-0.067,-0.1618,-0.2571,-0.3649,-0.4514,-0.4514,-0.162,0.1898,0.3984,0.4484,0.4522,0.4519,0.4519,0.4519,0.4519,0.4484,0.535,0.8244,0.8824,0.8805,0.8811,0.8804,0.8804,0.8804,0.8804,0.8804,0.8804,0.8804,0.8804,0.8804,0.8804,0.8804,0.8804,0.8804,0.8804,0.8804,0.8826,0.9585,1.1369,1.1436,1.1913,1.2855,1.2916,1.2908,1.2895,1.2909,1.292,1.2881,1.2881,1.2881]}]]